     2              OBSERVATION DATA                        RINEX VERSION / TYPE
ASHTORIN USGS 25 - JUN - 92 13:45                           PGM / RUN BY / DATE
                                                            COMMENT
r649 R_649_1942_USC&GS                                      MARKER NAME
                                                            MARKER NUMBER
MHM USGS                                                    OBSERVER / AGENCY
2105 ASHTECH LM-XII3 6GP4                                   REC # / TYPE / VERS
1675 unknown Ashtech                                        ANT # / TYPE
 -2731428.0000 -4020506.0000  4116982.0000                  APPROX POSITION XYZ
        1.1235        0.0000        0.0000                  ANTENNA: DELTA H/E/N
HI is vertical height to base of antenna                    COMMENT
     1     1                                                WAVELENGTH FACT L1/2
     7    L1    L2    C1    P1    P2    D1    D2            # / TYPES OF OBSERV
     3                                                      INTERVAL
  1992     6    13    15    32   33.000000                  TIME OF FIRST OBS
  1992     6    13    17    32   39.002000                  TIME OF LAST OBS
                                                            END OF HEADER
 92  6 13 15 32 33.0000000  0  3  2 16 18                            0.000772810
    371345.51416    289359.44816  32736048.115    32736059.837    32736058.458
     -3561.563       -2775.287
 -20480500.14616 -15958827.73316  32571885.843    31072936.863    31072936.624
     -1998.753       -1557.460
   5832751.96618   4560065.10417  29744714.443    29444933.886    29444931.248
      1065.544         830.287
 92  6 13 15 32 36.0000000  0  3  2 16 18                            0.000775320
    360660.663 6    281033.591 6  32734013.514    32734026.195    32734025.865
     -3561.730       -2775.358
 -20486495.066 6 -15963499.095 6  32570745.582    31071796.303    31071795.164
     -1997.855       -1556.735
   5835949.875 8   4562556.985 7  29745325.540    29445542.285    29445539.887
      1066.376         830.916
 92  6 13 15 32 39.0000000  0  3  2 16 18                            0.000956140
    349974.997 6    272707.118 6  32731980.082    33031785.191    33031784.172
     -3561.973       -2775.582
 -20492487.514 6 -15968168.526 6  32569603.553    31070655.773    31070655.353
     -1996.983       -1556.085
   5839149.970 8   4565050.558 7  29745932.679    29446151.374    29446148.705
      1067.162         831.540
 92  6 13 15 32 42.0000000  0  3  2 16 18                            0.000948070
    339289.403 6    264380.674 6  32729942.332    33029751.969    33029750.739
     -3561.731       -2775.332
 -20498476.571 6 -15972835.327 6  32568466.050    31069516.261    31069516.052
     -1995.654       -1555.016
   5842353.174 8   4567546.561 7  29746541.048    29446760.672    29446758.243
      1068.405         832.511
 92  6 13 15 32 45.0000000  0  3  2 16 18                            0.000940020
    328604.380 6    256054.695 6  32727911.598    33027718.956    33027717.607
     -3561.627       -2775.280
 -20504461.676 6 -15977499.043 6  32567330.736    31068377.620    31068376.750
     -1994.464       -1554.033
   5845560.008 8   4570045.390 7  29747151.186    29447371.079    29447368.591
      1069.470         833.345
 92  6 13 15 32 48.0000000  0  3  2 16 18                            0.000931960
    317920.160 6    247729.340 6  32725871.900    33025685.434    33025684.145
     -3561.223       -2774.924
 -20510442.643 6 -15982159.536 6  32566191.884    31067239.488    31067238.798
     -1992.863       -1552.784
   5848770.668 8   4572547.202 7  29747761.863    29447982.236    29447979.568
      1070.991         834.513
 92  6 13 15 32 51.0000000  0  3  2 16 18                            0.000923910
    307237.339 6    239405.060 6  32723847.732    33023652.691    33023651.612
     -3560.757       -2774.557
 -20516418.891 6 -15986816.354 6  32565055.761    31066102.405    31066101.535
     -1991.286       -1551.648
   5851985.745 8   4575052.450 7  29748376.018    29448593.843    29448591.444
      1072.417         835.623
 92  6 13 15 32 54.0000000  0  3  2 16 18                            0.000915860
    296556.153 6    231082.072 6  32721819.156    33021619.888    33021618.689
     -3560.135       -2774.141
 -20522390.216 6 -15991469.320 6  32563916.670    31064965.832    31064964.902
     -1989.726       -1550.436
   5855205.422 8   4577561.282 7  29748987.714    29449206.618    29449203.980
      1073.923         836.853
 92  6 13 15 32 57.0000000  0  3  2 16 18                            0.000907810
    285876.753 6    222760.467 6  32719788.482    33019588.015    33019586.846
     -3559.320       -2773.519
 -20528356.523 6 -15996118.397 6  32562779.887    31063830.248    31063829.738
     -1987.730       -1548.891
   5858429.763 8   4580073.764 7  29749597.043    29449820.264    29449817.685
      1075.757         838.241
 92  6 13 15 33  0.0000000  0  3  2 16 18                            0.000899770
    275199.985 6    214440.913 6  32717756.608    33017555.872    33017555.032
     -3558.524       -2772.784
 -20534317.001 6 -16000762.931 6  32561648.350    31062696.043    31062695.563
     -1985.865       -1547.358
   5861659.634 8   4582590.539 7  29750213.476    29450434.958    29450432.470
      1077.528         839.638
 92  6 13 15 33  3.0000000  0  3  2 16 18                            0.000891730
    264529.410 6    206126.184 6  33015513.805    33015525.467    33015524.268
     -3557.747       -2772.253
 -20540269.692 6 -16005401.382 6  32860306.363    31061563.487    31061562.798
     -1984.065       -1546.003
   5864893.918 8   4585110.760 7  30050625.485    29451050.522    29451047.554
      1079.240         840.939
 92  6 13 15 33  6.0000000  0  3  2 16 18                            0.000883700
    253857.553 6    197810.455 6  33013475.936    33013494.643    33013493.384
     -3556.834       -2771.591
 -20546218.918 6 -16010037.147 6  32859173.807    31060431.231    31060430.332
     -1982.083       -1544.540
   5868134.445 8   4587635.840 7  30051236.762    29451667.165    29451664.467
      1081.118         842.456
 92  6 13 15 33  9.0000000  0  3  2 16 18                            0.000875670
    243188.837 6    189497.177 6  33011448.200    33011464.719    33011463.220
     -3555.725       -2770.678
 -20552161.867 6 -16014668.005 6  32858044.249    31059300.414    31059299.634
     -1979.927       -1542.796
   5871380.963 8   4590165.587 7  30051858.052    29452284.768    29452281.949
      1083.154         844.040
 92  6 13 15 33 12.0000000  0  3  2 16 18                            0.000867640
    232522.837 6    181186.015 6  33009417.586    33009435.064    33009433.804
     -3554.760       -2769.873
 -20558098.900 6 -16019294.257 6  32856912.053    31058170.706    31058169.896
     -1977.973       -1541.308
   5874633.002 8   4592699.647 7  30052478.892    29452903.779    29452900.871
      1085.022         845.468
 92  6 13 15 33 15.0000000  0  3  2 16 18                            0.000859620
    221859.731 6    172877.098 6  33007387.211    33007405.439    33007404.629
     -3553.840       -2769.306
 -20564029.848 6 -16023915.786 6  32855783.185    31057042.077    31057041.148
     -1975.880       -1539.651
   5877890.736 8   4595238.138 7  30053093.167    29453523.570    29453520.902
      1086.896         846.918
 92  6 13 15 33 18.0000000  0  3  2 16 18                            0.000851600
    211199.530 6    164570.470 6  33005365.861    33005377.343    33005376.114
     -3552.747       -2768.421
 -20569954.672 6 -16028532.523 6  32854659.712    31055915.007    31055914.198
     -1973.835       -1538.097
   5881154.144 8   4597781.050 7  30053718.084    29454144.800    29454141.892
      1088.843         848.463
 92  6 13 15 33 21.0000000  0  3  2 16 18                            0.000843590
    200542.557 6    156266.337 6  33003343.910    33003348.557    33003348.167
     -3551.765       -2767.713
 -20575873.058 6 -16033144.254 6  32853531.953    31054788.297    31054787.878
     -1971.762       -1536.381
   5884423.419 8   4600328.531 7  30054341.143    29454766.749    29454763.841
      1090.725         849.881
 92  6 13 15 33 24.0000000  0  3  2 16 18                            0.000835580
    189889.012 6    147964.877 6  33001313.536    33001321.930    33001320.761
     -3550.652       -2766.685
 -20581784.749 6 -16037750.763 6  32852407.881    31053663.476    31053662.157
     -1969.396       -1534.652
   5887698.697 8   4602880.696 7  30054959.794    29455390.108    29455387.230
      1092.789         851.556
 92  6 13 15 33 27.0000000  0  3  2 16 18                            0.000827580
    179238.652 6    139665.908 6  32999282.802    32999294.614    32999293.475
     -3549.543       -2765.875
 -20587689.937 6 -16042352.208 6  32851286.208    31052539.584    31052538.925
     -1967.288       -1532.959
   5890979.758 8   4605437.366 7  30055588.069    29456014.426    29456011.428
      1094.670         853.000
 92  6 13 15 33 30.0000000  0  3  2 16 18                            0.000819580
    168591.719 6    131369.601 6  32997253.627    32997268.856    32997267.807
     -3548.266       -2764.841
 -20593588.505 6 -16046948.496 6  32850162.586    31051417.071    31051416.142
     -1964.926       -1531.129
   5894266.804 8   4607998.696 7  30056212.207    29456640.062    29456637.005
      1096.828         854.670
 92  6 13 15 33 33.0000000  0  4  2 28 16 18                         0.000763810
    157948.805 6    123076.432 6  32995232.876    23701677.110    23701676.211
     -3547.018       -2763.893
         0.000 1         0.000 1  33069183.611           0.000           0.000
         0.000           0.000
 -20599479.892 6 -16051539.177 6  32849037.075    23555484.517    23555483.918
     -1962.653       -1529.385
   5897560.461 8   4610565.182 7  30056840.932    20763285.407    20763282.439
      1098.934         856.321
 92  6 13 15 33 36.0000000  0  4  2 28 16 18                         0.000763160
    147309.628 6    114786.171 6  32993211.885    23699652.192    23699652.042
     -3545.840       -2762.886
         0.000 1         0.000 1  33069189.576           0.000           0.000
         0.000           0.000
 -20605364.398 6 -16056124.504 6  32847918.639    23554364.673    23554364.223
     -1960.378       -1527.579
   5900860.459 8   4613136.603 7  30057470.706    20763913.532    20763910.774
      1101.044         857.952
 92  6 13 15 33 39.0000000  0  4  2 28 16 18                         0.000762510
    136674.533 6    106499.088 6  32991185.617    23697628.713    23697627.724
     -3544.326       -2761.788
  11889205.47916         0.000 1  33069195.512    23775643.614           0.000
        17.418           0.000
 -20611241.769 6 -16060704.277 6  32846802.152    23553246.387    23553245.937
     -1957.850       -1525.687
   5904167.106 8   4615713.207 7  30058097.722    20764542.586    20764539.648
      1103.356         859.745
 92  6 13 15 33 42.0000000  0  4  2 28 16 18                         0.000761860
    126043.609 6     98215.258 6  32989159.740    23695606.193    23695605.504
     -3542.994       -2760.840
  11889261.515 6         0.000 1  33069206.515    23775653.777           0.000
        19.921           0.000
 -20617111.848 6 -16065278.362 6  32845682.517    23552129.390    23552128.701
     -1955.485       -1523.736
   5907480.520 8   4618295.087 7  30058729.624    20765172.990    20765170.262
      1105.562         861.447
 92  6 13 15 33 45.0000000  0  4  2 28 16 18                         0.000761210
    115416.699 6     89934.564 6  32987130.835    23693583.613    23693583.104
     -3541.709       -2759.725
  11889325.330 6   9264320.44116  33069222.104    23775665.619    23775664.870
        22.601          17.643
 -20622974.916 6 -16069846.989 6  32844568.638    23551013.892    23551013.053
     -1953.152       -1521.946
   5910800.482 8   4620882.062 7  30059362.336    20765804.892    20765802.314
      1107.783         863.192
 92  6 13 15 33 48.0000000  0  4  2 28 16 18                         0.000760560
    104793.837 6     81657.013 6  32985115.000    23691562.113    23691561.453
     -3540.356       -2758.675
  11889396.999 6   9264376.292 6  33069236.704    23775679.410    23775678.180
        25.173          19.559
 -20628830.907 6 -16074410.095 6  32843453.290    23549898.964    23549898.604
     -1950.890       -1520.165
   5914127.123 8   4623474.225 7  30059991.841    20766437.844    20766435.086
      1109.932         864.889
 92  6 13 15 33 51.0000000  0  4  2 28 16 18                         0.000759920
     94175.333 6     73382.848 6  32983099.465    23689540.732    23689540.822
     -3538.848       -2757.508
  11889476.969 6   9264438.601 6  33069251.603    23775694.699    23775693.260
        28.079          21.831
 -20634679.389 6 -16078967.346 6  32842340.221    23548786.195    23548785.085
     -1948.222       -1518.105
   5917460.728 8   4626071.861 7  30060625.572    20767072.175    20767069.717
      1112.376         866.821
 92  6 13 15 33 54.0000000  0  4  2 28 16 18                         0.000759280
     83561.348 6     65112.226 6  32981079.734    23687521.660    23687521.360
     -3537.187       -2756.247
  11889565.424 6   9264507.526 6  33069266.024    23775711.008    23775710.918
        30.995          24.143
 -20640520.225 6 -16083518.648 6  32841230.449    23547674.654    23547673.815
     -1945.642       -1516.041
   5920801.457 8   4628675.018 7  30061264.939    20767707.945    20767705.397
      1114.838         868.699
 92  6 13 15 33 57.0000000  0  4  2 28 16 18                         0.000758630
     72952.027 6     56845.224 6  32979052.267    23685502.738    23685502.888
     -3535.755       -2755.149
  11889662.437 6   9264583.114 6  33069285.510    23775729.055    23775728.666
        33.704          26.313
 -20646353.317 6 -16088063.918 6  32840124.095    23546564.792    23546563.353
     -1943.104       -1514.127
   5924149.407 8   4631283.806 7  30061899.810    20768345.004    20768342.156
      1117.181         870.494
 92  6 13 15 34  0.0000000  0  4  2 28 16 18                         0.000758050
     62347.272 6     48581.780 6  23683468.376    23683484.835    23683483.815
     -3534.198       -2753.913
  11889767.834 6   9264665.242 6  33069303.048    23775749.831    23775748.782
        36.466          28.442
 -20652178.720 6 -16092603.204 6  32839012.645    23545456.490    23545455.530
     -1940.525       -1512.092
   5927504.595 8   4633898.237 7  30062537.828    20768983.532    20768980.774
      1119.597         872.411
 92  6 13 15 34  3.0000000  0  4  2 28 16 18                         0.000757340
    318964.47416    248543.49716  23681432.395    23681446.576    23681446.366
     -3532.675       -2752.720
      -619.19216      -399.15816  23775760.234    23775771.146    23775771.536
        39.312          30.709
    177249.49516    138115.71716  23544325.043    23544337.664    23544336.615
     -1937.942       -1510.098
    -97760.19318    -76176.59017  20769616.783    20769630.004    20769627.246
      1122.027         874.312
 92  6 13 15 34  6.0000000  0  4  2 28 16 18                         0.000756710
    308369.143 6    240287.391 6  23679412.964    23679430.351    23679429.992
     -3530.900       -2751.322
      -496.565 6      -303.604 6  23775780.380    23775794.860    23775794.290
        42.384          33.044
    171440.038 6    133588.872 6  23543219.438    23543232.150    23543230.800
     -1935.034       -1507.912
    -94390.041 8    -73550.500 7  20770257.680    20770271.170    20770268.862
      1124.761         876.415
 92  6 13 15 34  9.0000000  0  4  2 28 16 18                         0.000756070
    297778.720 6    232035.123 6  23677399.497    23677415.147    23677415.087
     -3529.362       -2750.157
      -365.131 6      -201.202 6  23775808.980    23775819.503    23775819.173
        45.257          35.302
    165638.809 6    129068.429 6  23542116.082    23542128.164    23542127.714
     -1932.334       -1505.756
    -91012.170 8    -70918.394 7  20770901.724    20770914.135    20770911.617
      1127.237         878.396
 92  6 13 15 34 12.0000000  0  4  2 28 16 18                         0.000755440
    287193.177 6    223786.663 6  23675384.143    23675400.931    23675400.481
     -3527.761       -2748.912
      -224.923 6       -91.943 6  23775835.122    23775846.664    23775845.854
        48.217          37.493
    159845.795 6    124554.387 6  23541011.857    23541025.587    23541025.047
     -1929.642       -1503.661
    -87626.648 8    -68280.329 7  20771546.458    20771558.419    20771555.871
      1129.716         880.286
 92  6 13 15 34 15.0000000  0  4  2 28 16 18                         0.000754810
    276612.410 6    215541.910 6  23673369.238    23673387.585    23673387.135
     -3525.966       -2747.514
       -75.992 6        24.105 6  23775865.791    23775875.234    23775873.825
        51.249          39.875
    154060.979 6    120046.739 6  23539913.627    23539924.569    23539924.389
     -1926.768       -1501.356
    -84233.596 8    -65636.398 7  20772193.080    20772204.202    20772201.594
      1132.411         882.411
 92  6 13 15 34 18.0000000  0  4  2 28 16 18                         0.000754180
    266037.373 6    207301.625 6  23671358.140    23671374.119    23671375.018
     -3524.063       -2745.960
        82.496 6       147.607 6  23775894.211    23775905.663    23775904.524
        54.409          42.470
    148285.378 6    115546.277 6  23538815.757    23538825.770    23538825.410
     -1923.632       -1498.975
    -80832.106 8    -62985.891 7  20772836.225    20772851.394    20772848.786
      1135.263         884.600
 92  6 13 15 34 21.0000000  0  4  2 28 16 18                         0.000753560
    255467.965 6    199065.732 6  23669349.410    23669363.651    23669363.351
     -3522.326       -2744.721
       250.363 6       278.411 6  23775922.421    23775936.722    23775936.122
        57.325          44.645
    142518.850 6    111052.883 6  23537716.508    23537728.709    23537728.410
     -1920.847       -1496.720
    -77422.380 8    -60328.964 7  20773486.265    20773500.235    20773497.687
      1137.799         886.578
 92  6 13 15 34 24.0000000  0  4  2 28 16 18                         0.000752940
    244903.537 6    190833.713 6  23667340.201    23667352.853    23667352.823
     -3520.610       -2743.269
       426.848 6       415.940 6  23775962.983    23775971.048    23775969.819
        60.303          46.935
    136760.709 6    106566.019 6  23536621.636    23536632.638    23536631.709
     -1917.952       -1494.492
    -74005.151 8    -57666.185 7  20774134.626    20774150.605    20774147.907
      1140.384         888.600
 92  6 13 15 34 27.0000000  0  4  2 28 16 18                         0.000752320
    234344.549 6    182605.933 6  23665330.872    23665343.853    23665343.584
     -3518.694       -2741.780
       612.388 6       560.513 6  23775999.768    23776006.303    23776005.134
        63.412          49.429
    131011.399 6    102086.030 6  23535526.044    23535538.905    23535538.156
     -1914.859       -1492.093
    -70579.905 8    -54997.163 7  20774789.223    20774802.354    20774799.596
      1143.187         890.766
 92  6 13 15 34 30.0000000  0  4  2 28 16 18                         0.000751700
    223791.008 6    174382.408 6  23663321.004    23663335.604    23663335.754
     -3516.867       -2740.464
       806.865 6       712.064 6  23776033.734    23776043.807    23776042.009
        66.371          51.634
    125270.845 6     97612.857 6  23534434.260    23534446.012    23534445.113
     -1912.081       -1489.848
    -67146.690 8    -52321.934 7  20775448.466    20775455.451    20775453.023
      1145.735         892.783
 92  6 13 15 34 33.0000000  0  5  2 19 28 16 18                      0.000751150
    213243.318 6    166163.447 6  23661317.011    23661328.643    23661328.373
     -3515.035       -2738.947
         0.000 1         0.000 1  20656847.002           0.000           0.000
         0.000           0.000
      1010.657 6       870.861 6  23776068.240    23776082.541    23776080.832
        69.355          54.045
    119539.409 6     93146.828 6  23533344.515    23533354.917    23533354.917
     -1909.076       -1487.614
    -63705.258 8    -49640.302 7  20776098.147    20776110.528    20776107.890
      1148.394         894.844
 92  6 13 15 34 36.0000000  0  5  2 19 28 16 18                      0.000750530
    202701.546 6    157949.075 6  23659312.869    23659322.672    23659322.822
     -3512.983       -2737.423
         0.000 1         0.000 1  20656723.128           0.000           0.000
         0.000           0.000
      1223.790 6      1036.938 6  23776109.792    23776122.383    23776121.903
        72.529          56.575
    113817.118 6     88687.901 5  23532256.088    23532266.551    23532265.771
     -1905.968       -1485.192
    -60255.629 8    -46952.285 7  20776754.932    20776766.984    20776764.525
      1151.156         897.036
 92  6 13 15 34 39.0000000  0  5  2 19 28 16 18                      0.000749920
    192165.593 6    149739.245 6  23657312.743    23657317.870    23657317.300
     -3511.032       -2735.862
         0.000 1         0.000 1  20656591.429           0.000           0.000
         0.000           0.000
      1446.204 6      1210.244 6  23776151.793    23776164.894    23776163.844
        75.607          58.988
    108103.895 6     84236.047 6  23531166.972    23531179.204    23531179.413
     -1902.913       -1482.780
    -56797.908 8    -44257.956 7  20777414.595    20777425.178    20777422.300
      1153.883         899.147
 92  6 13 15 34 42.0000000  0  5  2 19 28 16 18                      0.000749310
    181635.235 6    141533.774 6  23655304.284    23655313.787    23655313.187
     -3509.171       -2734.474
         0.000 1         0.000 1  20656474.450           0.000           0.000
         0.000           0.000
      1677.619 6      1390.575 6  23776196.342    23776208.393    23776207.914
        78.654          61.281
    102399.559 6     79791.105 6  23530076.867    23530093.505    23530093.355
     -1900.036       -1480.505
    -53332.347 8    -41557.526 7  20778071.800    20778084.511    20778081.813
      1156.482         901.163
 92  6 13 15 34 45.0000000  0  5  2 19 28 16 18                      0.000748710
    171110.610 6    133332.775 6  23653304.938    23653311.024    23653310.904
     -3507.176       -2732.869
         0.000 1         0.000 1  20656345.210           0.000           0.000
         0.000           0.000
      1918.252 6      1578.081 6  23776245.208    23776254.112    23776253.752
        81.832          63.778
     96704.261 6     75353.209 6  23528996.175    23529009.815    23529009.606
     -1896.838       -1478.073
    -49858.730 8    -38850.807 7  20778733.562    20778745.554    20778742.826
      1159.325         903.364
 92  6 13 15 34 48.0000000  0  5  2 19 28 16 18                      0.000748100
    160592.430 6    125136.798 6  23651303.613    23651309.399    23651309.219
     -3505.075       -2731.257
         0.000 1         0.000 1  20656224.094           0.000           0.000
         0.000           0.000
      2168.890 6      1773.376 6  23776289.217    23776302.588    23776301.299
        85.094          66.260
     91018.683 6     70922.886 6  23527916.652    23527928.314    23527928.134
     -1893.695       -1475.575
    -46376.325 8    -36137.251 7  20779395.564    20779408.305    20779405.487
      1162.130         905.585
 92  6 13 15 34 51.0000000  0  5  2 19 28 16 18                      0.000747500
    150080.272 6    116945.512 6  23649303.128    23649308.974    23649309.604
     -3502.983       -2729.602
         0.000 1         0.000 1  20656107.714           0.000           0.000
         0.000           0.000
      2429.173 6      1976.197 6  23776348.786    23776352.324    23776350.045
        88.443          68.941
     85342.355 6     66499.784 6  23526837.609    23526848.342    23526848.042
     -1890.493       -1473.070
    -42885.593 8    -33417.200 7  20780058.945    20780072.615    20780069.887
      1165.027         907.810
 92  6 13 15 34 54.0000000  0  5  2 19 28 16 18                      0.000746900
    139574.296 6    108759.045 6  23647303.452    23647309.778    23647309.208
     -3501.147       -2728.227
         0.000 1         0.000 1  20655991.994           0.000           0.000
         0.000           0.000
      2699.345 6      2186.721 6  23776394.475    23776403.289    23776401.310
        91.490          71.327
     79675.490 6     62084.041 6  23525756.857    23525769.569    23525768.849
     -1887.549       -1470.806
    -39386.374 8    -30690.548 7  20780724.993    20780738.334    20780735.576
      1167.663         909.886
 92  6 13 15 34 57.0000000  0  5  2 19 28 16 18                      0.000746310
    129074.337 6    100577.268 6  23645295.383    23645311.691    23645311.571
     -3498.960       -2726.356
         0.000 1         0.000 1  20655872.977           0.000           0.000
         0.000           0.000
      2979.116 6      2404.727 6  23776451.825    23776455.932    23776455.033
        94.897          73.960
     74017.905 6     57675.537 6  23524680.333    23524693.254    23524692.474
     -1884.312       -1468.258
    -35878.908 8    -27957.449 7  20781393.111    20781405.792    20781403.154
      1170.582         912.129
 92  6 13 15 35  0.0000000  0  5  2 19 28 16 18                      0.000745710
    118580.288 6     92400.097 6  23643302.482    23643315.074    23643314.354
     -3496.901       -2724.839
         0.000 1         0.000 1  20655753.180           0.000           0.000
         0.000           0.000
      3268.309 6      2630.077 6  23776499.252    23776510.494    23776510.015
        98.171          76.493
     68369.537 6     53274.211 6  23523607.525    23523618.258    23523617.419
     -1881.092       -1465.783
    -32363.230 8    -25217.962 7  20782062.877    20782074.629    20782072.021
      1173.440         914.375
 92  6 13 15 35  3.0000000  0  5  2 19 28 16 18                      0.000745120
    108093.058 6     84228.227 6  23641309.372    23641319.295    23641319.025
     -3494.729       -2723.204
         0.000 1         0.000 1  20655639.019           0.000           0.000
         0.000           0.000
      3567.791 6      2863.438 6  23776554.054    23776567.365    23776567.605
       101.424          79.059
     62731.205 6     48880.713 6  23522534.838    23522545.451    23522544.911
     -1877.894       -1463.317
    -28838.501 8    -22471.423 7  20782730.845    20782745.475    20782742.837
      1176.303         916.589
 92  6 13 15 35  6.0000000  0  5  2 19 28 16 18                      0.000744540
     97612.135 6     76061.279 6  23639317.521    23639324.536    23639324.626
     -3492.522       -2721.489
         0.000 1         0.000 1  20655523.359           0.000           0.000
         0.000           0.000
      3877.006 6      3104.376 6  23776620.548    23776626.574    23776626.544
       104.760          81.584
     57102.423 6     44494.643 6  23521465.358    23521474.382    23521473.603
     -1874.574       -1460.706
    -25305.216 8    -19718.215 7  20783403.549    20783417.849    20783415.091
      1179.265         918.935
 92  6 13 15 35  9.0000000  0  5  2 19 28 16 18                      0.000743950
     87137.897 6     67899.538 6  23637324.021    23637331.306    23637331.246
     -3490.288       -2719.729
         0.000 1         0.000 1  20655408.628           0.000           0.000
         0.000           0.000
      4196.409 6      3353.264 6  23776672.652    23776688.061    23776687.852
       108.178          84.305
     51483.547 6     40116.304 6  23520396.748    23520405.232    23520404.663
     -1871.275       -1458.099
    -21762.966 8    -16958.030 7  20784079.071    20784091.723    20784089.354
      1182.254         921.245
 92  6 13 15 35 12.0000000  0  5  2 19 28 16 18                      0.000743370
     76670.304 6     59742.981 6  23635324.285    23635339.365    23635339.695
     -3488.120       -2718.036
         0.000 1         0.000 1  20655304.270           0.000           0.000
         0.000           0.000
      4526.034 6      3610.111 6  23776740.885    23776751.138    23776750.238
       111.523          86.896
     45874.596 6     35745.698 6  23519327.388    23519337.402    23519337.611
     -1867.992       -1455.527
    -18211.743 8    -14190.844 7  20784754.354    20784767.725    20784765.147
      1185.210         923.514
 92  6 13 15 35 15.0000000  0  5  2 19 28 16 18                      0.000742790
     66209.657 6     51591.830 6  23633330.156    23633348.533    23633349.043
     -3485.860       -2716.133
         0.000 1         0.000 1  20655186.992           0.000           0.000
         0.000           0.000
      4866.151 6      3875.142 6  23776803.272    23776816.073    23776815.473
       115.075          89.704
     40275.837 6     31383.029 6  23518258.718    23518272.389    23518272.299
     -1864.610       -1452.910
    -14651.326 8    -11416.499 7  20785433.983    20785445.436    20785442.348
      1188.296         925.965
 92  6 13 15 35 18.0000000  0  5  2 19 28 16 18                      0.000742210
     55755.728 6     43445.929 6  23631340.194    23631359.560    23631359.170
     -3483.614       -2714.454
         0.000 1         0.000 1  20655086.831           0.000           0.000
         0.000           0.000
      5216.535 6      4148.160 6  23776870.365    23776882.657    23776882.177
       118.526          92.366
     34687.014 6     27028.109 6  23517195.654    23517208.875    23517208.036
     -1861.324       -1450.385
    -11081.869 8     -8635.101 7  20786113.103    20786124.585    20786121.557
      1191.303         928.305
 92  6 13 15 35 21.0000000  0  5  2 19 28 16 18                      0.000741640
     45308.682 6     35305.374 6  23629358.925    23629371.966    23629371.217
     -3481.233       -2712.665
         0.000 1         0.000 1  20654978.396           0.000           0.000
         0.000           0.000
      5577.375 6      4429.335 6  23776939.257    23776951.069    23776950.320
       121.953          95.046
     29108.353 6     22681.100 6  23516137.837    23516147.310    23516145.961
     -1857.901       -1447.726
     -7503.176 8     -5846.521 7  20786791.354    20786805.324    20786802.686
      1194.399         930.698
 92  6 13 15 35 24.0000000  0  5  2 19 28 16 18                      0.000741070
     34868.416 6     27170.106 6  23627378.286    23627384.702    23627384.492
     -3478.958       -2710.884
         0.000 1         0.000 1  20654871.640           0.000           0.000
         0.000           0.000
      5948.519 6      4718.538 6  23777015.645    23777021.760    23777020.441
       125.507          97.752
     23539.792 6     18341.963 6  23515078.130    23515087.664    23515086.644
     -1854.505       -1445.068
     -3915.331 8     -3050.800 7  20787475.900    20787488.191    20787485.613
      1197.470         933.106
 92  6 13 15 35 27.0000000  0  5  2 19 28 16 18                      0.000740510
     24434.933 6     19040.121 6  23625391.202    23625399.476    23625398.997
     -3476.725       -2709.196
         0.000 1         0.000 1  20654765.064           0.000           0.000
         0.000           0.000
      6329.939 6      5015.753 6  23777087.115    23777093.950    23777093.141
       128.867         100.359
     17981.382 6     14010.728 6  23514016.925    23514029.906    23514028.587
     -1851.066       -1442.414
      -318.309 8      -247.929 7  20788160.386    20788172.767    20788170.129
      1200.506         935.492
 92  6 13 15 35 30.0000000  0  5  2 19 28 16 18                      0.000739940
     14008.484 6     10915.623 6  23623406.306    23623415.150    23623415.030
     -3474.299       -2707.234
         0.000 1         0.000 1  20654666.012           0.000           0.000
         0.000           0.000
      6721.936 6      5321.207 6  23777158.106    23777168.719    23777167.340
       132.444         103.285
     12433.395 6      9687.623 6  23512963.124    23512974.127    23512973.557
     -1847.491       -1439.636
      3288.100 8      2562.260 7  20788846.611    20788858.962    20788856.354
      1203.763         937.977
 92  6 13 15 35 33.0000000  0  5  2 19 28 16 18                      0.000739380
      3589.075 6      2796.610 6  23621420.901    23621432.952    23621432.503
     -3471.956       -2705.465
         0.000 1         0.000 1  20654562.854           0.000           0.000
         0.000           0.000
      7124.553 6      5634.930 6  23777236.442    23777245.615    23777244.206
       136.020         105.954
      6895.864 6      5372.668 6  23511911.782    23511920.506    23511920.086
     -1844.144       -1436.995
      6903.976 8      5379.822 7  20789535.234    20789547.256    20789544.648
      1206.854         940.406
 92  6 13 15 35 36.0000000  0  5  2 19 28 16 18                      0.000738830
     -6823.440 6     -5317.034 6  23619438.703    23619451.234    23619451.114
     -3469.646       -2703.619
         0.000 1         0.000 1  20654463.203           0.000           0.000
         0.000           0.000
      7537.667 6      5956.836 6  23777318.675    23777324.311    23777322.812
       139.492         108.741
      1368.631 6      1065.749 6  23510853.095    23510868.534    23510867.935
     -1840.625       -1434.394
     10529.292 8      8204.718 7  20790225.267    20790237.108    20790234.140
      1210.069         942.927
 92  6 13 15 35 39.0000000  0  5  2 19 28 16 18                      0.000738270
    -17229.011 6    -13425.252 6  23617454.796    23617471.045    23617470.925
     -3467.281       -2701.742
         0.000 1         0.000 1  20654363.762           0.000           0.000
         0.000           0.000
      7961.292 6      6286.934 6  23777395.242    23777405.015    23777403.996
       142.967         111.435
     -4148.312 6     -3233.173 6  23509804.091    23509818.391    23509818.182
     -1837.235       -1431.684
     14164.031 8     11037.005 7  20790916.768    20790928.730    20790925.822
      1213.199         945.356
 92  6 13 15 35 42.0000000  0  5  2 19 28 16 18                      0.000737720
    -27627.087 6    -21527.661 6  23615473.048    23615492.295    23615491.785
     -3464.942       -2699.969
         0.000 1         0.000 1  20654271.605           0.000           0.000
         0.000           0.000
      8395.908 6      6625.600 6  23777476.456    23777488.028    23777486.289
       146.562         114.148
     -9654.507 6     -7523.714 6  23508757.995    23508770.947    23508770.287
     -1833.768       -1428.826
     17808.755 8     13877.046 7  20791610.158    20791622.239    20791619.301
      1216.417         947.887
 92  6 13 15 35 45.0000000  0  5  2 19 28 16 18                      0.000737170
    -38018.158 6    -29624.583 6  23613501.103    23613515.523    23613515.134
     -3462.423       -2698.007
         0.000 1         0.000 1  20654171.175           0.000           0.000
         0.000           0.000
      8841.066 6      6972.474 6  23777560.427    23777572.179    23777571.010
       150.224         117.099
    -15150.422 6    -11806.240 6  23507717.236    23507725.031    23507724.881
     -1830.171       -1426.148
     21463.036 8     16724.535 7  20792303.668    20792317.638    20792314.820
      1219.774         950.442
 92  6 13 15 35 48.0000000  0  5  2 19 28 16 18                      0.000736630
    -48401.748 6    -37715.693 6  23611529.398    23611539.411    23611538.422
     -3459.947       -2695.987
         0.000 1         0.000 1  20654080.578           0.000           0.000
         0.000           0.000
      9297.238 6      7327.931 6  23777643.980    23777658.699    23777657.111
       153.945         119.958
    -20635.682 6    -16080.476 6  23506676.387    23506681.393    23506680.614
     -1826.598       -1423.305
     25127.371 8     19579.855 7  20793002.154    20793014.925    20793012.197
      1223.167         953.120
 92  6 13 15 35 51.0000000  0  5  2 19 28 16 18                      0.000736090
    -58777.911 6    -45801.000 6  23609559.972    23609564.649    23609564.379
     -3457.509       -2694.164
         0.000 1         0.000 1  20653985.483           0.000           0.000
         0.000           0.000
      9764.373 6      7691.943 6  23777734.097    23777747.528    23777746.209
       157.458         122.717
    -26110.400 6    -20346.479 6  23505625.974    23505639.404    23505638.985
     -1823.178       -1420.690
     28801.791 8     22443.041 7  20793702.889    20793714.341    20793711.643
      1226.414         955.672
 92  6 13 15 35 54.0000000  0  5  2 19 28 16 18                      0.000735560
    -69146.819 6    -53880.656 6  23607587.247    23607590.905    23607590.695
     -3455.058       -2692.210
         0.000 1         0.000 1  20653900.132           0.000           0.000
         0.000           0.000
     10242.370 6      8064.399 6  23777826.313    23777838.995    23777836.147
       161.186         125.579
    -31574.629 6    -24604.317 6  23504589.351    23504599.964    23504599.185
     -1819.656       -1417.901
     32486.087 8     25313.919 7  20794405.213    20794415.196    20794412.648
      1229.760         958.268
 92  6 13 15 35 57.0000000  0  5  2 19 28 16 18                      0.000735030
    -79508.079 6    -61954.380 6  23605609.607    23605619.470    23605618.900
     -3452.631       -2690.377
         0.000 1         0.000 1  20653801.321           0.000           0.000
         0.000           0.000
     10731.603 6      8445.615 6  23777918.889    23777932.260    23777929.772
       164.871         128.527
    -37027.887 6    -28853.613 6  23503550.630    23503562.113    23503561.483
     -1816.004       -1415.108
     36180.602 8     28192.759 7  20795107.387    20795118.539    20795115.241
      1233.100         960.854
 92  6 13 15 36  0.0000000  0  5  2 19 28 16 18                      0.000734500
    -89862.105 6    -70022.444 6  23603633.944    23603649.204    23603648.904
     -3450.161       -2688.430
         0.000 1         0.000 1  20653715.161           0.000           0.000
         0.000           0.000
     11231.708 6      8835.309 6  23778018.600    23778027.624    23778025.256
       168.467         131.295
    -42470.520 6    -33094.627 6  23502514.967    23502526.270    23502526.300
     -1812.473       -1412.308
     39884.946 8     31079.256 7  20795810.550    20795823.201    20795820.533
      1236.436         963.440
 92  6 13 15 36  3.0000000  0  5  2 19 28 16 18                      0.000733970
   -100208.593 6    -78084.628 6  23601660.141    23601680.646    23601680.017
     -3447.522       -2686.426
         0.000 1         0.000 1  20653633.767           0.000           0.000
         0.000           0.000
     11743.032 6      9233.750 6  23778116.153    23778125.176    23778122.418
       172.239         134.353
    -47902.197 6    -37327.095 6  23501480.534    23501492.705    23501492.525
     -1808.735       -1409.458
     43599.512 8     33973.721 7  20796519.199    20796530.112    20796527.354
      1239.844         966.127
 92  6 13 15 36  6.0000000  0  5  2 19 28 16 18                      0.000733450
   -110547.472 6    -86140.901 6  23599691.853    23599713.288    23599712.959
     -3445.024       -2684.449
         0.000 1         0.000 1  20653546.617           0.000           0.000
         0.000           0.000
     12265.577 6      9640.921 6  23778214.635    23778224.498    23778221.920
       176.067         137.193
    -53322.880 6    -41550.999 6  23500447.269    23500461.179    23500460.550
     -1805.064       -1406.546
     47324.290 8     36876.147 7  20797225.510    20797238.791    20797236.273
      1243.283         968.813
 92  6 13 15 36  9.0000000  0  5  2 19 28 16 18                      0.000732930
   -120879.000 6    -94191.436 6  23597731.271    23597746.860    23597746.680
     -3442.615       -2682.536
         0.000 1         0.000 1  20653460.547           0.000           0.000
         0.000           0.000
     12799.050 6     10056.612 6  23778314.106    23778326.007    23778323.909
       179.613         139.992
    -58732.781 6    -45766.509 6  23499420.210    23499431.812    23499431.032
     -1801.565       -1403.808
     51059.014 8     39786.321 7  20797932.481    20797949.569    20797947.021
      1246.538         971.294
 92  6 13 15 36 12.0000000  0  5  2 19 28 16 18                      0.000732410
   -131202.959 6   -102236.080 6  23595770.448    23595782.530    23595781.810
     -3440.031       -2680.603
         0.000 1         0.000 1  20653388.417           0.000           0.000
         0.000           0.000
     13343.645 6     10480.970 6  23778422.481    23778429.706    23778427.697
       183.333         142.904
    -64131.717 7    -49973.471 6  23498392.252    23498404.663    23498403.824
     -1797.767       -1400.846
     54803.823 8     42704.348 7  20798649.614    20798662.026    20798659.358
      1249.959         973.971
 92  6 13 15 36 15.0000000  0  5  2 19 28 16 18                      0.000731900
   -141519.373 6   -110274.834 6  23593809.086    23593819.189    23593818.829
     -3437.578       -2678.642
         0.000 1         0.000 1  20653299.019           0.000           0.000
         0.000           0.000
     13899.238 6     10913.901 6  23778521.352    23778534.963    23778533.524
       187.011         145.778
    -69519.686 6    -54171.887 6  23497363.514    23497379.163    23497378.653
     -1794.181       -1398.118
     58558.724 8     45630.243 7  20799365.369    20799376.341    20799373.853
      1253.312         976.601
 92  6 13 15 36 18.0000000  0  5  2 19 28 16 18                      0.000731390
   -151828.222 6   -118307.694 6  23591845.805    23591857.377    23591857.077
     -3434.957       -2676.552
         0.000 1         0.000 1  20653225.809           0.000           0.000
         0.000           0.000
     14465.828 6     11355.392 6  23778630.417    23778643.098    23778641.119
       190.754         148.756
    -74896.692 6    -58361.746 6  23496341.251    23496355.881    23496355.671
     -1790.456       -1395.168
     62323.807 8     48564.069 7  20800081.513    20800092.695    20800090.447
      1256.787         979.317
 92  6 13 15 36 21.0000000  0  5  2 19 28 16 18                      0.000730890
   -162129.228 6   -126334.447 6  23589886.421    23589897.694    23589897.064
     -3432.353       -2674.557
         0.000 1         0.000 1  20653143.996           0.000           0.000
         0.000           0.000
     15043.706 6     11805.692 6  23778743.109    23778752.672    23778751.143
       194.506         151.541
    -80262.454 7    -62542.870 6  23495324.176    23495335.058    23495334.458
     -1786.704       -1392.264
     66099.300 8     51506.017 7  20800795.589    20800811.238    20800808.930
      1260.218         981.978
 92  6 13 15 36 24.0000000  0  5  2 19 28 16 18                      0.000730390
   -172422.359 6   -134355.066 6  23587926.019    23587938.820    23587938.670
     -3429.744       -2672.413
         0.000 1         0.000 1  20653070.427           0.000           0.000
         0.000           0.000
     15632.980 6     12264.858 6  23778852.083    23778865.364    23778863.206
       198.321         154.542
    -85617.033 7    -66715.266 6  23494308.599    23494315.884    23494315.824
     -1782.973       -1389.350
     69885.170 8     54456.029 7  20801521.296    20801531.609    20801529.211
      1263.657         984.660
 92  6 13 15 36 27.0000000  0  5  2 19 28 16 18                      0.000729890
   -182707.610 6   -142369.538 6  23585974.699    23585981.745    23585981.355
     -3427.274       -2670.499
         0.000 1         0.000 1  20652998.597           0.000           0.000
         0.000           0.000
     16233.549 6     12732.844 6  23778966.184    23778978.985    23778977.067
       201.920         157.400
    -90960.437 7    -70878.943 6  23493292.902    23493299.317    23493298.838
     -1779.384       -1386.582
     73681.341 8     57414.084 7  20802244.546    20802254.289    20802251.501
      1266.998         987.262
 92  6 13 15 36 30.0000000  0  5  2 19 28 16 18                      0.000729400
   -192985.131 6   -150377.992 6  23584019.723    23584026.258    23584025.059
     -3424.486       -2668.376
         0.000 1         0.000 1  20652929.285           0.000           0.000
         0.000           0.000
     16845.255 6     13209.499 6  23779079.806    23779095.125    23779093.776
       205.875         160.427
    -96292.803 7    -75034.039 6  23492272.948    23492284.760    23492284.040
     -1775.532       -1383.519
     77487.688 8     60380.067 7  20802967.225    20802978.348    20802976.159
      1270.554         990.075
 92  6 13 15 36 33.0000000  0  5  2 19 28 16 18                      0.000728910
   -203254.568 6   -158380.147 6  23582060.759    23582071.791    23582071.132
     -3421.862       -2666.343
         0.000 1         0.000 1  20652850.349           0.000           0.000
         0.000           0.000
     17468.470 6     13695.135 6  23779204.279    23779213.573    23779212.374
       209.710         163.300
   -101613.798 7    -79180.260 6  23491256.292    23491272.031    23491271.521
     -1771.789       -1380.636
     81304.552 8     63354.247 7  20803692.154    20803704.745    20803702.257
      1273.988         992.737
 92  6 13 15 36 36.0000000  0  5  2 19 28 16 18                      0.000728420
   -213516.291 6   -166376.293 6  23580104.433    23580119.153    23580118.853
     -3419.293       -2664.436
         0.000 1         0.000 1  20652786.284           0.000           0.000
         0.000           0.000
     18102.786 6     14189.402 6  23779325.665    23779334.389    23779332.950
       213.280         166.176
   -106923.869 7    -83317.984 6  23490249.918    23490261.580    23490260.951
     -1768.223       -1377.804
     85131.534 8     66336.306 7  20804417.831    20804433.091    20804430.542
      1277.323         995.290
 92  6 13 15 36 39.0000000  0  5  2 19 28 16 18                      0.000727940
   -223770.049 6   -174366.224 6  23578158.451    23578167.804    23578167.264
     -3416.555       -2662.261
         0.000 1         0.000 1  20652709.207           0.000           0.000
         0.000           0.000
     18748.392 6     14692.474 6  23779449.060    23779456.765    23779456.135
       217.097         169.200
   -112222.857 7    -87447.057 6  23489241.956    23489253.318    23489252.089
     -1764.451       -1374.944
     88968.864 8     69326.430 7  20805149.025    20805163.175    20805160.627
      1280.892         998.102
 92  6 13 15 36 42.0000000  0  5  2 19 28 16 18                      0.000727460
   -234016.060 6   -182350.130 6  23576206.712    23576218.074    23576217.924
     -3414.054       -2660.253
         0.000 1         0.000 1  20652653.326           0.000           0.000
         0.000           0.000
     19405.182 6     15204.258 6  23779572.874    23779581.718    23779581.268
       220.873         172.039
   -117510.963 7    -91567.654 6  23488237.741    23488247.245    23488246.166
     -1760.878       -1372.150
     92816.347 8     72324.470 7  20805883.397    20805895.238    20805892.810
      1284.222        1000.686
 92  6 13 15 36 45.0000000  0  5  2 19 28 16 18                      0.000726990
   -244254.437 6   -190328.076 6  23574255.273    23574269.393    23574269.543
     -3411.398       -2658.261
         0.000 1         0.000 1  20652586.112           0.000           0.000
         0.000           0.000
     20073.173 6     15724.761 6  23779699.117    23779709.010    23779709.460
       224.694         175.101
   -122788.228 7    -95679.815 6  23487233.407    23487243.090    23487242.490
     -1757.181       -1369.234
     96673.973 8     75330.408 7  20806617.349    20806629.280    20806626.702
      1287.656        1003.378
 92  6 13 15 36 48.0000000  0  5  2 19 28 16 18                      0.000726520
   -254485.117 6   -198300.023 6  23572308.690    23572322.781    23572322.151
     -3408.948       -2656.304
         0.000 1         0.000 1  20652526.004           0.000           0.000
         0.000           0.000
     20752.483 6     16254.111 6  23779829.437    23779838.550    23779838.580
       228.313         177.932
   -128054.637 7    -99783.509 6  23486227.333    23486240.344    23486239.834
     -1753.705       -1366.507
    100541.762 8     78344.270 7  20807353.819    20807365.481    20807362.842
      1290.907        1005.895
 92  6 13 15 36 51.0000000  0  5  2 19 28 16 18                      0.000726050
   -264708.206 6   -206266.065 6  23570363.787    23570377.187    23570377.008
     -3406.373       -2654.297
         0.000 1         0.000 1  20652459.330           0.000           0.000
         0.000           0.000
     21443.156 6     16792.281 6  23779957.238    23779970.009    23779969.740
       232.164         180.954
   -133310.148 7   -103878.711 6  23485227.675    23485240.237    23485239.757
     -1749.956       -1363.612
    104419.620 8     81365.971 7  20808092.178    20808103.480    20808100.842
      1294.339        1008.582
 92  6 13 15 36 54.0000000  0  5  2 19 28 16 18                      0.000725580
   -274923.412 6   -214225.964 6  23568424.369    23568433.183    23568432.823
     -3403.815       -2652.330
         0.000 1         0.000 1  20652400.720           0.000           0.000
         0.000           0.000
     22145.469 6     17339.548 6  23780088.697    23780104.226    23780103.207
       236.004         183.962
   -138554.435 7   -107965.166 6  23484227.328    23484242.257    23484241.808
     -1746.277       -1360.667
    108307.870 8     84395.769 7  20808828.108    20808843.248    20808840.819
      1297.791        1011.256
 92  6 13 15 36 57.0000000  0  5  2 19 28 16 18                      0.000725120
   -285131.275 6   -222180.131 6  23566479.975    23566490.768    23566490.978
     -3401.439       -2650.416
         0.000 1         0.000 1  20652341.631           0.000           0.000
         0.000           0.000
     22858.948 6     17895.507 6  23780231.039    23780240.362    23780239.193
       239.735         186.772
   -143787.958 7   -112043.236 6  23483236.454    23483246.377    23483245.417
     -1742.719       -1358.030
    112206.175 8     87433.410 7  20809570.904    20809585.234    20809582.566
      1301.115        1013.838
 92  6 13 15 37  0.0000000  0  5  2 19 28 16 18                      0.000724660
   -295331.705 6   -230128.511 6  23564539.299    23564549.612    23564549.942
     -3398.792       -2648.476
         0.000 1         0.000 1  20652286.290           0.000           0.000
         0.000           0.000
     23583.737 6     18460.270 6  23780366.365    23780378.147    23780376.138
       243.614         189.793
   -149010.562 7   -116112.784 6  23482244.021    23482252.775    23482252.175
     -1738.912       -1354.970
    116114.716 8     90479.020 7  20810319.066    20810328.839    20810326.441
      1304.672        1016.657
 92  6 13 15 37  3.0000000  0  5  2 19 28 16 18                      0.000724210
   -305524.450 6   -238070.913 6  23562599.912    23562610.164    23562609.595
     -3396.275       -2646.463
         0.000 1         0.000 1  20652229.659           0.000           0.000
         0.000           0.000
     24320.084 6     19034.043 6  23780507.867    23780518.749    23780516.921
       247.423         192.740
   -154221.987 7   -120173.648 6  23481250.598    23481261.301    23481260.282
     -1735.267       -1352.109
    120033.744 8     93532.807 7  20811063.840    20811074.633    20811072.205
      1308.106        1019.311
 92  6 13 15 37  6.0000000  0  5  2 19 28 16 18                      0.000723760
   -315709.700 6   -246007.451 6  23560655.038    23560672.126    23560671.646
     -3393.777       -2644.496
         0.000 1         0.000 1  20652178.754           0.000           0.000
         0.000           0.000
     25067.740 6     19616.641 6  23780645.742    23780660.701    23780659.082
       251.138         195.653
   -159422.399 7   -124225.906 6  23480259.275    23480270.787    23480270.487
     -1731.580       -1349.334
    123963.103 8     96594.644 7  20811811.373    20811822.495    20811819.947
      1311.566        1021.966
 92  6 13 15 37  9.0000000  0  5  2 19 28 16 18                      0.000723310
   -325887.118 6   -253937.913 6  23558712.593    23558735.197    23558735.017
     -3391.032       -2642.377
         0.000 1         0.000 1  20652122.903           0.000           0.000
         0.000           0.000
     25826.982 6     20208.261 6  23780789.522    23780804.901    23780803.702
       255.080         198.732
   -164611.533 7   -128269.386 6  23479267.202    23479283.660    23479283.121
     -1727.788       -1346.233
    127903.031 8     99664.712 7  20812562.653    20812572.216    20812569.908
      1315.198        1024.807
 92  6 13 15 37 12.0000000  0  5  2 19 28 16 18                      0.000722870
   -336056.673 6   -261862.223 6  23556785.017    23556800.336    23556800.007
     -3388.615       -2640.492
         0.000 1         0.000 1  20652077.934           0.000           0.000
         0.000           0.000
     26597.796 6     20808.894 6  23780938.609    23780951.320    23780950.481
       258.816         201.700
   -169789.380 7   -132304.064 6  23478283.403    23478298.242    23478297.883
     -1724.143       -1343.517
    131853.576 8    102743.057 7  20813313.423    20813324.006    20813321.487
      1318.563        1027.414
 92  6 13 15 37 15.0000000  0  5  2 19 28 16 18                      0.000722430
   -346218.373 6   -269780.431 6  23554853.544    23554866.195    23554866.525
     -3386.059       -2638.509
         0.000 1         0.000 1  20652026.969           0.000           0.000
         0.000           0.000
     27380.049 6     21418.435 6  23781086.646    23781099.807    23781099.597
       262.502         204.612
   -174955.977 7   -136329.992 6  23477303.411    23477315.253    23477315.223
     -1720.464       -1340.631
    135814.674 8    105829.621 7  20814067.221    20814077.804    20814075.495
      1321.998        1030.096
 92  6 13 15 37 18.0000000  0  5  2 19 28 16 18                      0.000721990
   -356372.868 6   -277693.018 6  23552922.401    23552933.943    23552933.853
     -3383.582       -2636.496
         0.000 1         0.000 1  20651983.859           0.000           0.000
         0.000           0.000
     28173.035 6     22036.344 6  23781239.930    23781251.022    23781249.973
       266.197         207.464
   -180111.993 7   -140347.665 6  23476325.938    23476333.942    23476333.133
     -1716.831       -1337.837
    139785.647 8    108923.886 7  20814822.398    20814833.611    20814831.002
      1325.387        1032.797
 92  6 13 15 37 21.0000000  0  5  2 19 28 16 18                      0.000721560
   -366519.432 6   -285599.434 6  23550986.881    23551003.340    23551002.890
     -3380.946       -2634.503
         0.000 1         0.000 1  20651931.935           0.000           0.000
         0.000           0.000
     28977.571 6     22663.256 6  23781396.722    23781404.246    23781402.957
       270.050         210.480
   -185256.703 7   -144356.533 6  23475345.287    23475355.210    23475354.520
     -1713.074       -1334.871
    143767.230 8    112026.410 7  20815578.055    20815591.336    20815588.668
      1328.922        1035.481
 92  6 13 15 37 24.0000000  0  5  2 19 28 16 18                      0.000721130
   -376658.106 6   -293499.695 6  23549062.243    23549073.516    23549073.636
     -3378.120       -2632.349
         0.000 1         0.000 1  20651893.202           0.000           0.000
         0.000           0.000
     29793.680 6     23299.208 6  23781549.046    23781558.909    23781558.130
       274.016         213.591
   -190390.097 6   -148356.573 6  23474363.616    23474378.156    23474377.077
     -1709.146       -1331.843
    147759.350 8    115137.153 7  20816339.318    20816350.800    20816348.342
      1332.543        1038.342
 92  6 13 15 37 27.0000000  0  5  2 19 28 16 18                      0.000720710
   -386788.809 6   -301393.736 6  23547133.049    23547146.180    23547145.340
     -3375.652       -2630.332
         0.000 1         0.000 1  20651851.561           0.000           0.000
         0.000           0.000
     30621.508 6     23944.255 6  23781710.424    23781716.540    23781714.741
       277.757         216.500
   -195512.024 6   -152347.688 6  23473390.610    23473403.351    23473401.702
     -1705.520       -1328.930
    151762.111 8    118256.177 7  20817098.872    20817112.483    20817109.935
      1335.910        1040.988
 92  6 13 15 37 30.0000000  0  5  2 19 28 16 18                      0.000720290
   -396911.838 6   -309281.802 6  23545210.090    23545219.804    23545219.804
     -3373.061       -2628.299
         0.000 1         0.000 1  20651811.658           0.000           0.000
         0.000           0.000
     31460.775 6     24598.243 6  23781872.133    23781876.659    23781875.310
       281.656         219.516
   -200622.840 6   -156330.139 6  23472420.362    23472431.124    23472429.955
     -1701.766       -1326.098
    155775.204 8    121383.265 7  20817860.135    20817876.414    20817873.776
      1339.423        1043.716
 92  6 13 15 37 33.0000000  0  5  2 19 28 16 18                      0.000719870
   -407027.033 6   -317163.764 6  23543284.134    23543295.136    23543294.416
     -3370.384       -2626.239
         0.000 1         0.000 1  20651769.328           0.000           0.000
         0.000           0.000
     32311.498 6     25261.143 6  23782028.115    23782038.457    23782037.168
       285.498         222.502
   -205722.495 6   -160303.899 6  23471446.786    23471460.846    23471459.797
     -1698.009       -1323.111
    159798.702 8    124518.452 7  20818629.553    20818641.994    20818639.506
      1342.953        1046.463
 92  6 13 15 37 36.0000000  0  5  2 19 28 16 18                      0.000719460
   -417134.494 6   -325039.707 6  23541357.757    23541371.248    23541371.248
     -3367.920       -2624.337
         0.000 1         0.000 1  20651734.042           0.000           0.000
         0.000           0.000
     33173.596 6     25932.901 6  23782193.180    23782202.624    23782201.065
       289.248         225.347
   -210811.107 6   -164269.054 6  23470479.115    23470492.366    23470490.957
     -1694.379       -1320.283
    163832.468 8    127661.643 7  20819400.649    20819409.433    20819407.064
      1346.276        1049.043
 92  6 13 15 37 39.0000000  0  5  2 19 28 16 18                      0.000719050
   -427234.161 6   -332909.573 6  23539439.685    23539449.428    23539449.398
     -3365.177       -2622.296
         0.000 1         0.000 1  20651696.598           0.000           0.000
         0.000           0.000
     34047.149 6     26613.583 6  23782358.306    23782369.158    23782368.259
       293.096         228.412
   -215888.647 6   -168225.571 6  23469511.805    23469525.865    23469525.116
     -1690.589       -1317.359
    167876.598 8    130812.908 7  20820164.910    20820179.090    20820176.422
      1349.849        1051.793
 92  6 13 15 37 42.0000000  0  5  2 19 28 16 18                      0.000718640
   -437325.883 6   -340773.238 6  23537518.945    23537528.868    23537528.928
     -3362.553       -2620.181
         0.000 1         0.000 1  20651665.869           0.000           0.000
         0.000           0.000
     34932.416 6     27303.407 6  23782523.432    23782537.852    23782536.503
       297.044         231.480
   -220954.834 6   -172173.258 6  23468548.902    23468561.763    23468560.743
     -1686.789       -1314.404
    171931.342 8    133972.443 7  20820935.886    20820950.726    20820948.178
      1353.367        1054.554
 92  6 13 15 37 45.0000000  0  5  2 19 28 16 18                      0.000718240
   -447409.534 6   -348630.629 6  23535598.954    23535610.436    23535609.866
     -3359.886       -2618.062
         0.000 1         0.000 1  20651631.783           0.000           0.000
         0.000           0.000
     35829.505 6     28002.446 6  23782698.361    23782708.194    23782707.504
       300.992         234.530
   -226009.549 6   -176111.991 6  23467589.296    23467599.819    23467599.009
     -1682.967       -1311.439
    175996.758 8    137140.299 7  20821709.650    20821724.340    20821721.762
      1356.925        1057.349
 92  6 13 15 37 48.0000000  0  5  2 19 28 16 18                      0.000717840
   -457485.319 6   -356481.889 6  23533683.250    23533692.963    23533692.724
     -3357.300       -2616.081
         0.000 1         0.000 1  20651603.542           0.000           0.000
         0.000           0.000
     36738.240 6     28710.541 6  23782870.441    23782881.234    23782880.035
       304.803         237.596
   -231053.022 6   -180041.970 6  23466628.701    23466640.333    23466639.104
     -1679.311       -1308.525
    180072.655 8    140316.274 7  20822487.132    20822499.963    20822497.445
      1360.350        1060.003
 92  6 13 15 37 51.0000000  0  5  2 19 28 16 18                      0.000717440
   -467552.797 6   -364326.662 6  23531769.195    23531776.960    23531776.570
     -3354.562       -2613.858
         0.000 1         0.000 1  20651577.400           0.000           0.000
         0.000           0.000
     37658.990 6     29428.004 6  23783046.510    23783056.103    23783054.964
       308.886         240.655
   -236084.908 6   -183962.913 6  23465668.616    23465682.526    23465681.657
     -1675.412       -1305.526
    184159.416 8    143500.802 7  20823265.333    20823277.505    20823275.107
      1363.993        1062.835
 92  6 13 15 37 54.0000000  0  5  2 19 28 16 18                      0.000717050
   -477612.171 6   -372165.134 6  23529856.100    23529863.355    23529862.755
     -3351.822       -2611.832
         0.000 1         0.000 1  20651546.552           0.000           0.000
         0.000           0.000
     38591.554 6     30154.668 6  23783222.458    23783233.640    23783232.381
       312.766         243.683
   -241105.405 6   -187874.995 6  23464713.327    23464727.447    23464726.878
     -1671.644       -1302.631
    188256.902 8    146693.641 7  20824046.473    20824057.355    20824054.687
      1367.556        1065.648
 92  6 13 15 37 57.0000000  0  5  2 19 28 16 18                      0.000716670
   -487663.719 6   -379997.504 6  23527938.207    23527950.199    23527950.079
     -3348.991       -2609.681
         0.000 1         0.000 1  20651519.091           0.000           0.000
         0.000           0.000
     39535.573 6     30890.267 6  23783400.624    23783412.886    23783411.657
       316.739         246.800
   -246114.862 6   -191778.460 6  23463760.317    23463774.227    23463773.208
     -1667.803       -1299.564
    192364.752 8    149894.561 7  20824827.252    20824839.034    20824836.456
      1371.202        1068.448
 92  6 13 15 38  0.0000000  0  5  2 19 28 16 18                      0.000716280
   -497707.033 6   -387823.461 6  23526023.373    23526038.722    23526039.022
     -3346.358       -2607.569
         0.000 1         0.000 1  20651498.645           0.000           0.000
         0.000           0.000
     40491.380 6     31635.042 6  23783582.778    23783595.070    23783593.601
       320.651         249.828
   -251112.879 6   -195673.022 5  23462812.433    23462823.195    23462822.776
     -1664.102       -1296.660
    196483.289 8    153103.802 7  20825608.511    20825622.781    20825620.143
      1374.654        1071.158
 92  6 13 15 38  3.0000000  0  5  2 19 28 16 18                      0.000715900
   -507742.197 6   -395643.055 6  23524117.382    23524129.494    23524129.194
     -3343.684       -2605.424
         0.000 1         0.000 1  20651474.302           0.000           0.000
         0.000           0.000
     41458.962 6     32389.002 6  23783763.703    23783778.753    23783778.303
       324.524         252.904
   -256099.460 6   -199558.660 6  23461863.230    23461874.023    23461873.153
     -1660.328       -1293.671
    200612.473 8    156321.351 7  20826394.357    20826408.717    20826406.079
      1378.198        1073.882
 92  6 13 15 38  6.0000000  0  5  2 19 28 16 18                      0.000715530
   -517769.117 6   -403456.238 6  23522212.621    23522221.195    23522220.745
     -3340.929       -2603.326
         0.000 1         0.000 1  20651456.764           0.000           0.000
         0.000           0.000
     42438.433 6     33152.224 5  23783957.998    23783965.253    23783963.964
       328.419         255.913
   -261074.506 6   -203435.326 6  23460912.198    23460927.488    23460926.828
     -1656.425       -1290.811
    204752.395 8    159547.260 7  20827183.141    20827196.422    20827193.904
      1381.738        1076.685
 92  6 13 15 38  9.0000000  0  5  2 19 28 16 18                      0.000715160
   -527788.203 6   -411263.317 6  23520304.712    23520314.725    23520314.755
     -3338.440       -2601.377
         0.000 1         0.000 1  20651435.779           0.000           0.000
         0.000           0.000
     43429.336 6     33924.365 6  23784141.681    23784153.943    23784152.174
       332.187         258.847
   -266038.458 6   -207303.330 6  23459970.910    23459982.572    23459981.942
     -1652.798       -1287.866
    208902.590 8    162781.173 7  20827974.923    20827986.105    20827983.647
      1385.094        1079.273
 92  6 13 15 38 12.0000000  0  5  2 19 28 16 18                      0.000714790
   -537799.128 6   -419064.035 6  23518395.574    23518409.904    23518409.004
     -3335.629       -2599.087
         0.000 1         0.000 1  20651422.378           0.000           0.000
         0.000           0.000
     44431.963 6     34705.620 5  23784332.229    23784345.300    23784343.082
       336.184         262.045
   -270990.868 6   -211162.356 5  23459030.131    23459040.924    23459039.425
     -1648.880       -1284.810
    213063.388 8    166023.350 7  20828764.666    20828777.797    20828775.339
      1388.705        1082.123
 92  6 13 15 38 15.0000000  0  5  2 19 28 16 18                      0.000714420
   -547802.355 6   -426858.751 6  23516490.542    23516506.311    23516506.371
     -3333.200       -2597.318
         0.000 1         0.000 1  20651404.720           0.000           0.000
         0.000           0.000
     45445.804 6     35495.635 5  23784526.705    23784538.007    23784536.298
       339.750         264.692
   -275932.152 6   -215012.693 6  23458089.982    23458100.265    23458099.126
     -1645.327       -1282.052
    217234.302 8    169273.406 7  20829555.429    20829571.288    20829568.890
      1391.934        1084.621
 92  6 13 15 38 18.0000000  0  5  2 19 28 16 18                      0.000714060
   -557797.626 6   -434647.266 6  23514587.730    23514604.098    23514603.888
     -3330.387       -2595.083
         0.000 1         0.000 1  20651392.638           0.000           0.000
         0.000           0.000
     46471.075 6     36294.537 5  23784728.615    23784733.322    23784730.983
       343.687         267.874
   -280862.157 6   -218854.261 5  23457151.422    23457161.795    23457161.255
     -1641.359       -1279.019
    221415.604 8    172531.561 7  20830351.887    20830367.357    20830364.838
      1395.601        1087.439
 92  6 13 15 38 21.0000000  0  5  2 19 28 16 18                      0.000713700
   -567784.800 6   -442429.472 6  23512689.534    23512703.774    23512703.114
     -3327.653       -2592.966
         0.000 1         0.000 1  20651377.859           0.000           0.000
         0.000           0.000
     47507.852 6     37102.423 5  23784921.262    23784929.866    23784927.887
       347.573         270.854
   -285780.853 6   -222687.010 5  23456214.870    23456225.603    23456225.123
     -1637.616       -1276.014
    225607.470 8    175797.940 7  20831152.513    20831164.835    20831162.616
      1399.124        1090.245
 92  6 13 15 38 24.0000000  0  5  2 19 28 16 18                      0.000713350
   -577763.521 6   -450205.090 6  23510786.421    23510804.769    23510804.469
     -3324.866       -2590.809
         0.000 1         0.000 1  20651368.805           0.000           0.000
         0.000           0.000
     48556.480 6     37919.531 5  23785118.135    23785128.928    23785127.489
       351.496         273.893
   -290687.894 6   -226510.670 5  23455282.426    23455291.959    23455290.280
     -1633.770       -1273.088
    229810.233 8    179072.823 7  20831952.779    20831964.711    20831962.313
      1402.703        1092.979
 92  6 13 15 38 27.0000000  0  5  2 19 28 16 18                      0.000713000
   -587733.947 6   -457974.257 6  23508892.752    23508907.742    23508907.352
     -3322.114       -2588.684
         0.000 1         0.000 1  20651363.768           0.000           0.000
         0.000           0.000
     49616.757 6     38745.724 5  23785322.804    23785331.318    23785329.399
       355.340         276.900
   -295583.405 6   -230325.361 5  23454349.861    23454360.234    23454358.436
     -1629.927       -1270.127
    234023.761 8    182356.088 7  20832753.105    20832766.476    20832764.108
      1406.297        1095.804
 92  6 13 15 38 30.0000000  0  5  2 19 28 16 18                      0.000712650
   -597696.218 6   -465737.060 6  23506996.295    23507012.424    23507011.884
     -3319.425       -2586.472
         0.000 1         0.000 1  20651359.961           0.000           0.000
         0.000           0.000
     50688.502 6     39580.855 6  23785529.361    23785535.087    23785533.078
       359.156         279.911
   -300467.489 6   -234131.146 5  23453419.845    23453431.387    23453430.098
     -1626.113       -1267.076
    238247.938 8    185647.659 7  20833556.249    20833570.399    20833568.121
      1409.827        1098.582
 92  6 13 15 38 33.0000000  0  5  2 19 28 16 18                      0.000712310
   -607650.590 6   -473493.709 6  23505107.183    23505117.286    23505117.046
     -3316.837       -2584.584
         0.000 1         0.000 1  20651350.158           0.000           0.000
         0.000           0.000
     51771.458 6     40424.716 6  23785731.870    23785741.973    23785740.205
       362.803         282.697
   -305340.434 6   -237928.238 5  23452491.958    23452504.009    23452502.390
     -1622.489       -1264.245
    242482.582 8    188947.368 7  20834363.111    20834376.152    20834373.963
      1413.260        1101.222
 92  6 13 15 38 36.0000000  0  5  2 19 28 16 18                      0.000711970
   -617597.216 6   -481244.308 6  23503218.490    23503224.816    23503223.767
     -3314.077       -2582.368
         0.000 1         0.000 1  20651341.104           0.000           0.000
         0.000           0.000
     52865.518 6     41277.237 6  23785939.237    23785950.089    23785948.351
       366.764         285.734
   -310202.350 6   -241716.742 5  23451565.359    23451578.790    23451577.291
     -1618.612       -1261.288
    246727.630 8    192255.192 7  20835170.602    20835184.062    20835181.664
      1416.947        1104.099
 92  6 13 15 38 39.0000000  0  5  2 19 28 16 18                      0.000711640
   -627535.512 6   -488988.446 6  23501323.862    23501333.845    23501333.365
     -3311.357       -2580.245
         0.000 1         0.000 1  20651340.654           0.000           0.000
         0.000           0.000
     53971.348 6     42138.915 6  23786148.912    23786160.873    23786159.554
       370.531         288.778
   -315052.634 6   -245496.187 5  23450644.397    23450655.699    23450654.080
     -1614.859       -1258.289
    250983.645 8    195571.571 7  20835980.941    20835993.892    20835991.553
      1420.479        1106.901
 92  6 13 15 38 42.0000000  0  5  2 19 28 16 18                      0.000711300
   -637465.819 6   -496726.331 6  23499430.613    23499443.923    23499443.144
     -3308.688       -2578.220
         0.000 1         0.000 1  20651344.462           0.000           0.000
         0.000           0.000
     55088.554 6     43009.465 6  23786360.385    23786373.246    23786372.257
       374.396         291.664
   -319891.670 6   -249266.856 5  23449722.655    23449734.377    23449733.567
     -1611.044       -1255.403
    255250.224 8    198896.179 7  20836790.890    20836805.760    20836803.361
      1424.019        1109.628
 92  6 13 15 38 45.0000000  0  5  2 19 28 16 18                      0.000710980
   -647387.573 6   -504457.570 6  23497545.158    23497555.891    23497555.471
     -3305.958       -2576.108
         0.000 1         0.000 1  20651343.442           0.000           0.000
         0.000           0.000
     56217.721 6     43889.333 6  23786577.135    23786588.228    23786586.998
       378.200         294.667
   -324718.909 6   -253028.342 5  23448809.007    23448816.652    23448814.673
     -1607.331       -1252.491
    259527.951 8    202229.463 7  20837605.636    20837619.846    20837617.538
      1427.603        1112.444
 92  6 13 15 38 48.0000000  0  5  2 19 28 16 18                      0.000710650
   -657301.681 6   -512182.844 6  23495660.573    23495669.357    23495668.877
     -3303.271       -2574.030
         0.000 1         0.000 1  20651349.648           0.000           0.000
         0.000           0.000
     57357.967 6     44777.846 6  23786790.647    23786804.828    23786804.798
       382.053         297.681
   -329535.188 6   -256781.282 5  23447887.805    23447900.037    23447898.298
     -1603.500       -1249.464
    263815.992 8    205570.797 7  20838423.380    20838435.731    20838433.453
      1431.162        1115.223
 92  6 13 15 38 51.0000000  0  5  2 19 28 16 18                      0.000710330
   -667207.512 6   -519901.673 6  23493772.060    23493784.112    23493783.272
     -3300.544       -2571.911
         0.000 1         0.000 1  20651350.548           0.000           0.000
         0.000           0.000
     58509.909 6     45675.454 6  23787010.066    23787023.766    23787023.766
       385.881         300.705
   -334339.904 6   -260525.220 5  23446973.768    23446985.580    23446983.871
     -1599.678       -1246.509
    268114.990 8    208920.653 7  20839242.353    20839254.135    20839251.526
      1434.770        1118.007
 92  6 13 15 38 54.0000000  0  5  2 19 28 16 18                      0.000710020
   -677105.288 6   -527614.214 6  23491883.667    23491900.366    23491900.216
     -3297.961       -2569.881
         0.000 1         0.000 1  20651355.734           0.000           0.000
         0.000           0.000
     59673.308 6     46581.997 6  23787227.955    23787245.403    23787244.683
       389.638         303.624
   -339133.291 6   -264260.323 5  23446060.480    23446073.581    23446072.142
     -1595.964       -1243.547
    272424.668 8    212278.851 7  20840061.296    20840074.007    20840071.729
      1438.289        1120.758
 92  6 13 15 38 57.0000000  0  5  2 19 28 16 18                      0.000709700
   -686995.069 6   -535320.535 6  23490006.157    23490018.898    23490017.549
     -3295.195       -2567.740
         0.000 1         0.000 1  20651368.625           0.000           0.000
         0.000           0.000
     60848.029 6     47497.357 6  23787455.197    23787468.538    23787468.118
       393.510         306.727
   -343915.468 6   -267986.686 5  23445151.809    23445163.051    23445161.732
     -1592.177       -1240.556
    276745.017 8    215645.345 7  20840881.258    20840896.338    20840893.700
      1441.941        1123.622
 92  6 13 15 39  0.0000000  0  5  2 19 28 16 18                      0.000709390
   -696876.916 6   -543020.676 6  23488126.488    23488138.390    23488137.221
     -3292.646       -2565.620
         0.000 1         0.000 1  20651380.347           0.000           0.000
         0.000           0.000
     62034.031 6     48421.512 6  23787681.151    23787694.971    23787693.682
       397.224         309.475
   -348686.454 6   -271704.353 5  23444245.986    23444255.370    23444253.061
     -1588.450       -1237.715
    281075.976 8    219020.117 7  20841708.535    20841720.587    20841717.799
      1445.390        1126.275
 92  6 13 15 39  3.0000000  0  5  2 19 28 16 18                      0.000709090
   -706750.841 6   -550714.640 6  23486246.220    23486259.351    23486258.811
     -3289.957       -2563.570
         0.000 1         0.000 1  20651382.475           0.000           0.000
         0.000           0.000
     63231.389 6     49354.515 6  23787908.664    23787922.934    23787921.555
       401.083         312.518
   -353446.137 6   -275413.196 5  23443338.844    23443349.637    23443347.778
     -1584.587       -1234.807
    285417.554 8    222403.161 7  20842535.543    20842546.605    20842543.997
      1449.039        1129.108
 92  6 13 15 39  6.0000000  0  5  2 19 28 16 18                      0.000708790
   -716616.359 6   -558402.054 6  23484370.569    23484381.751    23484381.061
     -3287.243       -2561.436
         0.000 1         0.000 1  20651399.324           0.000           0.000
         0.000           0.000
     64440.503 6     50296.681 6  23788141.003    23788153.354    23788151.825
       404.854         315.526
   -358194.034 6   -279112.845 5  23442435.120    23442446.242    23442444.084
     -1580.799       -1231.779
    289770.190 8    225794.823 7  20843363.390    20843374.842    20843372.384
      1452.586        1131.907
 92  6 13 15 39  9.0000000  0  5  2 19 28 16 18                      0.000708490
   -726473.463 6   -566082.902 5  23482497.615    23482506.549    23482505.260
     -3284.350       -2559.273
         0.000 1         0.000 1  20651414.104           0.000           0.000
         0.000           0.000
     65661.316 6     51247.967 6  23788376.400    23788385.363    23788383.265
       408.793         318.563
   -362930.236 6   -282803.405 5  23441529.567    23441545.246    23441543.297
     -1576.825       -1228.700
    294133.871 8    229195.084 7  20844193.755    20844204.997    20844202.779
      1456.339        1134.823
 92  6 13 15 39 12.0000000  0  5  2 19 28 16 18                      0.000708190
   -736322.320 6   -573757.338 6  23480616.627    23480631.767    23480631.347
     -3281.586       -2557.056
         0.000 1         0.000 1  20651433.890           0.000           0.000
         0.000           0.000
     66893.579 6     52208.183 6  23788606.910    23788619.681    23788617.883
       412.705         321.555
   -367654.894 6   -286484.949 5  23440630.789    23440645.659    23440644.549
     -1572.976       -1225.639
    298508.465 8    232603.837 7  20845022.621    20845037.611    20845035.033
      1460.007        1137.650
 92  6 13 15 39 15.0000000  0  5  2 19 28 16 18                      0.000707900
   -746163.084 6   -581425.461 6  23478748.740    23478759.923    23478758.754
     -3278.922       -2554.930
         0.000 1         0.000 1  20651447.560           0.000           0.000
         0.000           0.000
     68137.121 6     53177.170 6  23788843.866    23788856.277    23788854.359
       416.385         324.425
   -372368.228 6   -290157.669 5  23439737.288    23439748.860    23439747.690
     -1569.210       -1222.829
    302893.794 8    236020.993 7  20845856.674    20845872.023    20845869.685
      1463.603        1140.444
 92  6 13 15 39 18.0000000  0  5  2 19 28 16 18                      0.000707620
   -755995.179 6   -589086.826 6  23476877.256    23476888.648    23476886.999
     -3275.862       -2552.641
         0.000 1         0.000 1  20651471.424           0.000           0.000
         0.000           0.000
     69392.488 6     54155.382 6  23789080.043    23789094.553    23789093.413
       420.463         327.755
   -377069.687 6   -293821.151 5  23438845.525    23438854.069    23438852.990
     -1565.100       -1219.597
    307290.518 8    239447.005 7  20846695.463    20846708.864    20846706.405
      1467.520        1143.534
 92  6 13 15 39 21.0000000  0  5  2 19 28 16 18                      0.000707330
   -765819.063 6   -596741.799 6  23475012.307    23475019.352    23475017.973
     -3273.241       -2550.672
         0.000 1         0.000 1  20651489.951           0.000           0.000
         0.000           0.000
     70659.274 6     55142.487 6  23789328.780    23789336.395    23789334.057
       424.189         330.518
   -381759.790 6   -297475.767 5  23437951.874    23437961.767    23437960.687
     -1561.487       -1216.741
    311698.052 8    242881.444 7  20847534.072    20847547.413    20847545.195
      1470.981        1146.222
 92  6 13 15 39 24.0000000  0  5  2 19 28 16 18                      0.000707060
   -775634.164 6   -604389.919 6  23473139.474    23473151.495    23473150.536
     -3270.233       -2548.173
         0.000 1         0.000 1  20651512.795           0.000           0.000
         0.000           0.000
     71938.045 6     56138.932 6  23789566.456    23789579.407    23789577.158
       428.314         333.758
   -386438.013 6   -301121.128 5  23437060.651    23437071.233    23437069.824
     -1557.350       -1213.552
    316116.891 8    246324.692 7  20848375.830    20848388.421    20848385.723
      1474.885        1149.237
 92  6 13 15 39 27.0000000  0  5  2 19 28 16 18                      0.000706780
   -785440.859 6   -612031.494 6  23471270.088    23471285.107    23471284.238
     -3267.434       -2546.073
         0.000 1         0.000 1  20651537.318           0.000           0.000
         0.000           0.000
     73228.444 6     57144.438 6  23789809.558    23789824.817    23789823.408
       432.138         336.779
   -391104.745 6   -304757.550 5  23436173.295    23436183.398    23436182.049
     -1553.614       -1210.648
    320546.654 8    249776.449 7  20849216.418    20849231.347    20849228.889
      1478.459        1152.013
 92  6 13 15 39 30.0000000  0  5  2 19 28 16 18                      0.000706510
   -795239.271 6   -619666.616 5  23469406.398    23469420.608    23469419.379
     -3264.728       -2543.938
         0.000 1         0.000 1  20651560.732           0.000           0.000
         0.000           0.000
     74530.349 6     58158.910 6  23790064.681    23790072.745    23790071.366
       435.907         339.632
   -395760.183 6   -308385.162 5  23435287.318    23435297.361    23435295.892
     -1549.939       -1207.728
    324987.132 8    253236.559 7  20850061.083    20850076.193    20850074.064
      1482.002        1154.782
 92  6 13 15 39 33.0000000  0  5  2 19 28 16 18                      0.000706240
   -805029.498 6   -627295.361 5  23467551.012    23467557.668    23467556.259
     -3262.053       -2541.850
         0.000 1         0.000 1  20651592.420           0.000           0.000
         0.000           0.000
     75843.630 6     59182.245 6  23790313.719    23790323.042    23790321.153
       439.659         342.658
   -400404.415 6   -312004.046 5  23434404.399    23434413.993    23434412.584
     -1546.194       -1204.874
    329438.292 8    256704.997 7  20850911.474    20850923.526    20850921.128
      1485.507        1157.524
 92  6 13 15 39 36.0000000  0  5  2 19 28 16 18                      0.000705980
   -814811.569 6   -634917.746 6  23465690.291    23465695.897    23465695.087
     -3259.392       -2539.764
         0.000 1         0.000 1  20651623.928           0.000           0.000
         0.000           0.000
     77168.334 6     60214.486 6  23790564.255    23790575.108    23790573.639
       443.430         345.516
   -405037.412 6   -315614.170 5  23433519.802    23433531.764    23433531.674
     -1542.498       -1201.923
    333900.103 8    260181.732 7  20851759.947    20851772.448    20851770.080
      1488.998        1160.251
 92  6 13 15 39 39.0000000  0  5  2 19 28 16 18                      0.000705720
   -824585.519 6   -642533.806 6  23463827.500    23463836.194    23463834.785
     -3256.685       -2537.623
         0.000 1         0.000 1  20651653.248           0.000           0.000
         0.000           0.000
     78504.524 6     61255.674 6  23790818.629    23790829.451    23790827.893
       447.287         348.506
   -409659.113 6   -319215.491 5  23432643.149    23432652.352    23432652.113
     -1538.728       -1199.055
    338372.490 8    263666.706 7  20852610.218    20852623.289    20852621.161
      1492.496        1162.978
 92  6 13 15 39 42.0000000  0  5  2 19 28 16 18                      0.000705460
   -834350.974 6   -650143.249 5  23461966.569    23461977.421    23461975.982
     -3253.628       -2535.373
         0.000 1         0.000 1  20651690.602           0.000           0.000
         0.000           0.000
     79852.571 6     62306.094 6  23791073.093    23791085.564    23791084.485
       451.413         351.723
   -414269.169 6   -322807.741 5  23431765.656    23431775.639    23431774.770
     -1534.690       -1195.846
    342855.895 8    267160.260 7  20853464.537    20853476.679    20853474.280
      1496.405        1166.030
 92  6 13 15 39 45.0000000  0  5  2 19 28 16 18                      0.000705210
   -844107.760 6   -657745.927 6  23460107.106    23460120.806    23460119.847
     -3250.922       -2533.256
         0.000 1         0.000 1  20651719.982           0.000           0.000
         0.000           0.000
     81212.579 6     63365.844 6  23791333.313    23791343.715    23791342.726
       455.177         354.681
   -418867.400 6   -326390.768 5  23430892.301    23430900.845    23430898.836
     -1530.923       -1192.949
    347350.532 8    270662.575 7  20854321.763    20854332.196    20854329.588
      1499.953        1168.783
 92  6 13 15 39 48.0000000  0  5  2 19 28 16 18                      0.000704960
   -853856.436 6   -665342.305 6  23458255.378    23458265.511    23458264.731
     -3248.257       -2531.081
         0.000 1         0.000 1  20651757.816           0.000           0.000
         0.000           0.000
     82583.883 6     64434.387 6  23791597.010    23791604.595    23791603.426
       458.912         357.693
   -423454.382 6   -329965.036 5  23430014.149    23430027.639    23430025.931
     -1527.133       -1190.015
    351855.842 8    274173.196 7  20855179.919    20855189.183    20855186.905
      1503.527        1171.592
 92  6 13 15 39 51.0000000  0  5  2 19 28 16 18                      0.000704710
   -863597.137 6   -672932.452 6  23456399.033    23456412.404    23456411.444
     -3245.681       -2529.009
         0.000 1         0.000 1  20651794.720           0.000           0.000
         0.000           0.000
     83966.348 6     65511.643 5  23791858.789    23791867.693    23791865.954
       462.598         360.402
   -428030.270 6   -333530.671 5  23429145.350    23429156.652    23429155.363
     -1523.535       -1187.114
    356371.693 8    277692.047 7  20856033.878    20856048.868    20856046.350
      1506.969        1174.219
 92  6 13 15 39 54.0000000  0  5  2 19 28 16 18                      0.000704480
   -873325.503 6   -680512.993 6  23454547.485    23454560.975    23454559.836
     -3241.162       -2525.562
         0.000 1         0.000 1  20651838.730           0.000           0.000
         0.000           0.000
     85364.349 6     66600.990 6  23792125.874    23792134.328    23792132.110
       468.161         364.799
   -432590.623 6   -337084.195 5  23428282.937    23428288.933    23428288.034
     -1518.025       -1182.860
    360902.479 8    281222.519 7  20856895.811    20856910.891    20856908.373
      1512.271        1178.400
 92  6 13 15 39 57.0000000  0  5  2 19 28 16 18                      0.000704240
   -883045.294 6   -688086.840 6  23452700.883    23452710.986    23452711.106
     -3238.646       -2523.675
         0.000 1         0.000 1  20651880.760           0.000           0.000
         0.000           0.000
     86774.200 6     67699.583 5  23792393.799    23792403.032    23792400.874
       471.748         367.609
   -437139.119 6   -340628.472 5  23427417.646    23427423.342    23427422.113
     -1514.342       -1179.979
    365444.428 8    284761.699 7  20857762.182    20857775.193    20857772.734
      1515.691        1181.059
 92  6 13 15 40  0.0000000  0  5  2 19 28 16 18                      0.000704010
   -892757.032 6   -695654.433 6  23450852.483    23450863.395    23450862.316
     -3235.826       -2521.470
         0.000 1         0.000 1  20651920.843           0.000           0.000
         0.000           0.000
     88195.370 6     68806.989 5  23792659.355    23792672.995    23792671.586
       475.674         370.650
   -441676.305 6   -344163.949 5  23426551.066    23426560.000    23426559.011
     -1510.457       -1176.978
    369996.952 8    288309.115 7  20858631.640    20858641.743    20858638.925
      1519.324        1183.858
 92  6 13 15 40  3.0000000  0  5  2 19 28 16 18                      0.000703780
   -902460.871 6   -703215.856 6  23449009.089    23449016.434    23449016.194
     -3233.230       -2519.380
         0.000 1         0.000 1  20651963.773           0.000           0.000
         0.000           0.000
     89627.697 6     69923.081 5  23792933.335    23792946.076    23792943.708
       479.268         373.526
   -446202.307 6   -347690.710 5  23425684.696    23425698.696    23425696.838
     -1506.786       -1174.043
    374559.876 8    291864.636 7  20859500.348    20859510.002    20859507.334
      1522.702        1186.548
 92  6 13 15 40  6.0000000  0  5  2 19 28 16 18                      0.000703560
   -912156.480 6   -710770.882 6  23447160.868    23447171.451    23447170.971
     -3230.508       -2517.331
         0.000 1         0.000 1  20652016.596           0.000           0.000
         0.000           0.000
     91071.383 6     71048.030 5  23793214.360    23793219.817    23793218.887
       483.049         376.461
   -450716.850 6   -351208.529 5  23424822.103    23424839.491    23424838.472
     -1503.022       -1171.192
    379133.488 8    295428.489 7  20860365.010    20860380.479    20860377.961
      1526.276        1189.296
 92  6 13 15 40  9.0000000  0  5  2 19 28 16 18                      0.000703340
   -921843.976 6   -718319.571 6  23445314.327    23445327.937    23445327.577
     -3227.803       -2515.220
         0.000 1         0.000 1  20652063.724           0.000           0.000
         0.000           0.000
     92526.300 6     72181.726 5  23793479.407    23793496.885    23793494.906
       486.838         379.438
   -455220.057 6   -354717.521 5  23423970.453    23423982.414    23423981.605
     -1499.160       -1168.192
    383717.759 8    299000.642 7  20861238.125    20861252.725    20861250.057
      1529.861        1192.127
 92  6 13 15 40 12.0000000  0  5  2 19 28 16 18                      0.000703120
   -931523.350 6   -725861.938 6  23443472.222    23443486.462    23443485.773
     -3225.088       -2513.107
         0.000 1         0.000 1  20652113.909           0.000           0.000
         0.000           0.000
     93992.416 6     73324.155 5  23793757.584    23793776.261    23793774.313
       490.586         382.254
   -459711.939 6   -358217.690 5  23423116.194    23423127.706    23423127.256
     -1495.371       -1165.249
    388312.613 8    302581.045 7  20862114.719    20862126.860    20862124.402
      1533.390        1194.826
 92  6 13 15 40 15.0000000  0  5  2 19 28 16 18                      0.000702910
   -941194.949 6   -733398.247 6  23441630.957    23441645.736    23441645.467
     -3222.446       -2511.023
         0.000 1         0.000 1  20652161.036           0.000           0.000
         0.000           0.000
     95469.451 6     74475.090 5  23794044.816    23794057.017    23794054.439
       494.325         385.135
   -464192.795 6   -361709.267 5  23422266.103    23422275.036    23422273.747
     -1491.638       -1162.297
    392917.702 8    306169.419 7  20862990.832    20863003.213    20863000.635
      1536.856        1197.555
 92  6 13 15 40 18.0000000  0  5  2 19 28 16 18                      0.000702700
   -950858.188 6   -740928.036 6  23439797.396    23439806.600    23439806.660
     -3219.633       -2508.791
         0.000 1         0.000 1  20652216.888           0.000           0.000
         0.000           0.000
     96958.070 6     75635.051 5  23794331.117    23794340.861    23794338.222
       498.178         388.189
   -468662.007 6   -365191.769 5  23421411.814    23421424.525    23421423.236
     -1487.732       -1159.259
    397533.568 8    309766.195 7  20863869.374    20863881.815    20863879.417
      1540.485        1200.360
 92  6 13 15 40 21.0000000  0  5  2 19 28 16 18                      0.000702490
   -960513.154 6   -748451.377 6  23437961.167    23437969.741    23437969.112
     -3216.961       -2506.770
         0.000 1         0.000 1  20652273.519           0.000           0.000
         0.000           0.000
     98458.257 6     76804.042 5  23794613.822    23794626.413    23794623.475
       502.041         391.169
   -473119.675 6   -368665.280 5  23420563.641    23420576.262    23420575.003
     -1483.983       -1156.383
    402160.131 8    313371.306 7  20864749.564    20864762.186    20864759.578
      1543.974        1203.102
 92  6 13 15 40 24.0000000  0  5  2 19 28 16 18                      0.000702290
   -970159.716 6   -755968.177 6  23436125.028    23436133.752    23436133.003
     -3214.177       -2504.585
         0.000 1         0.000 1  20652331.648           0.000           0.000
         0.000           0.000
     99970.214 6     77982.189 5  23794899.824    23794914.154    23794911.366
       505.954         394.163
   -477565.705 6   -372129.715 5  23419717.537    23419730.308    23419729.229
     -1480.077       -1153.342
    406797.535 8    316984.863 7  20865631.404    20865644.445    20865641.927
      1547.543        1205.900
 92  6 13 15 40 27.0000000  0  5  2 19 28 16 18                      0.000702100
   -979798.130 6   -763478.615 6  23434288.140    23434299.832    23434299.502
     -3211.408       -2502.376
         0.000 1         0.000 1  20652386.241           0.000           0.000
         0.000           0.000
    101493.577 6     79169.230 5  23795192.751    23795204.233    23795201.655
       509.728         397.230
   -482000.320 6   -375585.260 6  23418877.638    23418885.973    23418885.583
     -1476.287       -1150.322
    411445.503 8    320606.660 7  20866515.762    20866528.983    20866526.644
      1551.137        1208.629
 92  6 13 15 40 30.0000000  0  5  2 19 28 16 18                      0.000701900
   -989428.508 6   -770982.816 6  23432454.459    23432467.440    23432466.331
     -3208.777       -2500.411
         0.000 1         0.000 1  20652447.368           0.000           0.000
         0.000           0.000
    103028.212 6     80365.049 5  23795485.528    23795496.141    23795493.832
       513.430         400.107
   -486423.605 6   -379031.970 5  23418033.813    23418044.575    23418043.646
     -1472.500       -1147.484
    416103.906 8    324236.575 7  20867401.918    20867415.379    20867413.041
      1554.531        1211.322
 92  6 13 15 40 33.0000000  0  5  2 19 28 16 18                      0.000701710
   -999050.980 6   -778480.834 6  23430625.815    23430636.068    23430635.379
     -3206.268       -2498.355
         0.000 1         0.000 1  20652503.699           0.000           0.000
         0.000           0.000
    104574.070 6     81569.610 5  23795777.856    23795789.937    23795788.199
       517.099         402.936
   -490835.701 6   -382469.961 6  23417199.520    23417205.336    23417204.317
     -1468.911       -1144.631
    420772.674 8    327874.575 7  20868292.752    20868303.814    20868301.326
      1557.928        1213.960
 92  6 13 15 40 36.0000000  0  5  2 19 28 16 18                      0.000701530
  -1008665.493 6   -785972.664 6  23428792.614    23428806.825    23428806.225
     -3203.444       -2496.145
         0.000 1         0.000 1  20652575.110           0.000           0.000
         0.000           0.000
    106131.184 6     82782.949 6  23796071.502    23796085.982    23796084.484
       520.940         405.899
   -495236.617 6   -385899.248 5  23416358.332    23416367.956    23416366.487
     -1465.059       -1141.585
    425451.816 8    331520.651 7  20869183.015    20869194.197    20869191.829
      1561.496        1216.752
 92  6 13 15 40 39.0000000  0  5  2 19 28 16 18                      0.000701340
  -1018271.867 6   -793458.145 6  23426964.750    23426979.140    23426977.971
     -3200.805       -2494.175
         0.000 1         0.000 1  20652636.657           0.000           0.000
         0.000           0.000
    107699.750 6     84005.195 5  23796374.773    23796384.576    23796382.777
       524.686         408.891
   -499626.184 6   -389319.694 6  23415522.061    23415532.734    23415531.355
     -1461.364       -1138.696
    430141.461 8    335174.927 7  20870073.129    20870086.290    20870084.221
      1564.910        1219.389
 92  6 13 15 40 42.0000000  0  5  2 19 28 16 18                      0.000701160
  -1027870.404 6   -800937.520 6  23425142.551    23425152.324    23425151.785
     -3198.151       -2492.064
         0.000 1         0.000 1  20652704.710           0.000           0.000
         0.000           0.000
    109279.554 6     85236.213 5  23796674.295    23796684.698    23796683.589
       528.546         411.803
   -504004.608 7   -392731.460 6  23414685.311    23414699.341    23414698.232
     -1457.565       -1135.792
    434841.331 8    338837.155 7  20870966.151    20870980.811    20870978.772
      1568.375        1222.094
 92  6 13 15 40 45.0000000  0  5  2 19 28 16 18                      0.000700990
  -1037460.880 6   -808410.600 6  23423322.032    23423327.338    23423326.349
     -3195.561       -2490.035
         0.000 1         0.000 1  20652770.934           0.000           0.000
         0.000           0.000
    110870.903 6     86476.220 6  23796977.925    23796987.608    23796986.559
       532.296         414.752
   -508371.649 7   -396134.345 6  23413852.967    23413868.256    23413867.027
     -1453.836       -1132.846
    439551.586 8    342507.483 7  20871863.729    20871877.220    20871874.852
      1571.734        1224.765
 92  6 13 15 40 48.0000000  0  5  2 19 28 16 18                      0.000700820
  -1047043.473 6   -815877.564 6  23421494.287    23421503.880    23421502.471
     -3192.923       -2487.978
         0.000 1         0.000 1  20652840.306           0.000           0.000
         0.000           0.000
    112473.608 6     87725.076 6  23797281.075    23797292.857    23797291.148
       536.112         417.746
   -512727.383 6   -399528.423 6  23413028.897    23413039.690    23413037.861
     -1450.017       -1129.886
    444272.087 8    346185.792 7  20872760.589    20872775.578    20872773.330
      1575.198        1227.389
 92  6 13 15 40 51.0000000  0  5  2 19 28 16 18                      0.000700650
  -1056618.040 6   -823338.252 6  23419672.748    23419681.952    23419680.992
     -3190.145       -2485.834
         0.000 1         0.000 1  20652910.218           0.000           0.000
         0.000           0.000
    114087.942 6     88982.999 6  23797590.821    23797599.814    23797598.525
       540.105         420.868
   -517071.692 6   -402913.605 6  23412199.492    23412213.102    23412211.243
     -1446.156       -1126.945
    449002.932 8    349872.158 7  20873661.165    20873675.945    20873673.427
      1578.707        1230.185
 92  6 13 15 40 54.0000000  0  5  2 19 28 16 18                      0.000700480
  -1066184.509 6   -830792.650 6  23417850.729    23417861.432    23417860.173
     -3187.471       -2483.833
         0.000 1         0.000 1  20652985.855           0.000           0.000
         0.000           0.000
    115713.913 6     90249.980 6  23797898.708    23797909.170    23797908.031
       543.910         423.838
   -521404.636 6   -406289.923 6  23411378.120    23411388.433    23411386.784
     -1442.435       -1123.959
    453744.112 8    353566.581 7  20874564.650    20874578.020    20874575.862
      1582.090        1232.797
 92  6 13 15 40 57.0000000  0  5  2 19 28 16 18                      0.000700320
  -1075743.332 6   -838241.078 6  23416031.289    23416042.561    23416041.422
     -3185.061       -2481.825
         0.000 1         0.000 1  20653057.566           0.000           0.000
         0.000           0.000
    117351.103 6     91525.716 6  23798208.843    23798221.254    23798220.325
       547.540         426.702
   -525726.625 6   -409657.702 6  23410552.792    23410565.922    23410564.304
     -1438.831       -1121.207
    458495.166 8    357268.701 7  20875469.573    20875481.985    20875479.946
      1585.293        1235.281
 92  6 13 15 41  0.0000000  0  5  2 19 28 16 18                      0.000700170
  -1085294.604 6   -845683.617 6  23414213.827    23414225.009    23414223.810
     -3182.477       -2479.827
         0.000 1         0.000 1  20653134.912           0.000           0.000
         0.000           0.000
    118999.463 6     92810.147 6  23798525.334    23798534.957    23798533.038
       551.285         429.574
   -530037.799 6   -413017.065 6  23409734.448    23409745.630    23409744.791
     -1435.234       -1118.362
    463255.948 8    360978.393 7  20876373.567    20876388.047    20876385.649
      1588.571        1237.843
 92  6 13 15 41  3.0000000  0  5  2 19 28 16 18                      0.000700010
  -1094837.846 6   -853119.909 6  23412397.864    23412408.837    23412407.607
     -3179.882       -2477.829
         0.000 1         0.000 1  20653213.248           0.000           0.000
         0.000           0.000
    120659.379 6     94103.586 6  23798838.917    23798851.118    23798849.649
       555.040         432.490
   -534337.735 6   -416367.662 6  23408919.043    23408927.467    23408925.668
     -1431.633       -1115.517
    468026.916 8    364696.026 7  20877281.729    20877296.269    20877293.570
      1591.852        1240.394
 92  6 13 15 41  6.0000000  0  5  2 19 28 16 18                      0.000699860
  -1104373.440 6   -860550.241 6  23410586.248    23410594.373    23410593.054
     -3177.180       -2475.732
         0.000 1         0.000 1  20653292.603           0.000           0.000
         0.000           0.000
    122330.529 6     95405.791 6  23799157.446    23799168.928    23799166.620
       558.983         435.615
   -538626.772 6   -419709.758 6  23408099.260    23408110.892    23408109.483
     -1427.802       -1112.583
    472807.726 8    368421.331 7  20878194.657    20878205.839    20878203.500
      1595.306        1243.131
 92  6 13 15 41  9.0000000  0  5  2 19 28 16 18                      0.000699720
  -1113901.346 6   -867974.575 6  23408771.665    23408781.318    23408780.149
     -3174.684       -2473.798
         0.000 1         0.000 1  20653369.830           0.000           0.000
         0.000           0.000
    124012.944 6     96716.761 6  23799480.113    23799489.646    23799487.847
       562.724         438.491
   -542904.875 6   -423043.347 6  23407287.932    23407297.135    23407295.936
     -1424.212       -1109.705
    477598.373 8    372154.295 7  20879105.216    20879117.208    20879114.690
      1598.506        1245.565
 92  6 13 15 41 12.0000000  0  5  2 19 28 16 18                      0.000699580
  -1123421.333 6   -875392.747 6  23406960.049    23406969.762    23406969.073
     -3172.035       -2471.684
         0.000 1         0.000 1  20653459.587           0.000           0.000
         0.000           0.000
    125706.771 6     98036.620 6  23799805.687    23799811.234    23799810.034
       566.504         441.435
   -547171.861 6   -426368.280 6  23406476.603    23406484.998    23406483.709
     -1420.491       -1106.880
    482399.033 8    375895.063 7  20880019.973    20880030.975    20880028.637
      1601.879        1248.228
 92  6 13 15 41 15.0000000  0  5  2 19 28 16 18                      0.000699440
  -1132933.660 6   -882804.942 6  23405151.371    23405159.615    23405158.356
     -3169.453       -2469.754
         0.000 1         0.000 1  20653534.955           0.000           0.000
         0.000           0.000
    127411.814 6     99365.227 6  23800122.478    23800135.039    23800134.260
       570.206         444.327
   -551427.978 6   -429684.726 6  23405667.104    23405675.288    23405673.639
     -1416.835       -1104.050
    487209.442 8    379643.436 7  20880933.081    20880946.302    20880944.053
      1605.114        1250.747
 92  6 13 15 41 18.0000000  0  5  2 19 28 16 18                      0.000699300
  -1142438.050 6   -890210.953 6  23403337.746    23403351.147    23403349.738
     -3166.698       -2467.590
         0.000 1         0.000 1  20653624.713           0.000           0.000
         0.000           0.000
    129128.337 6    100702.771 6  23800451.920    23800461.723    23800460.224
       574.260         447.412
   -555672.985 6   -432992.529 6  23404855.536    23404867.078    23404865.879
     -1413.068       -1101.115
    492029.840 8    383399.580 7  20881851.045    20881863.637    20881860.938
      1608.550        1253.432
 92  6 13 15 41 21.0000000  0  5  2 19 28 16 18                      0.000699170
  -1151933.900 6   -897610.311 6  23401530.208    23401543.698    23401542.529
     -3163.842       -2465.363
         0.000 1         0.000 1  20653704.608           0.000           0.000
         0.000           0.000
    130857.031 6    102049.814 6  23800780.313    23800791.135    23800789.576
       578.297         450.631
   -559906.277 6   -436291.185 6  23404049.694    23404061.296    23404060.606
     -1409.165       -1098.028
    496860.790 8    387163.953 7  20882772.128    20882783.010    20882780.552
      1612.098        1256.156
 92  6 13 15 41 24.0000000  0  5  2 19 28 16 18                      0.000699050
  -1161421.876 6   -905003.537 6  23399725.187    23399738.498    23399737.389
     -3161.472       -2463.427
         0.000 1         0.000 1  20653794.156           0.000           0.000
         0.000           0.000
    132597.236 6    103405.810 6  23801115.601    23801122.166    23801121.027
       581.895         453.373
   -564128.531 6   -439581.262 6  23403250.567    23403258.062    23403256.922
     -1405.714       -1095.298
    501701.610 8    390936.019 7  20883691.831    20883704.033    20883701.694
      1615.147        1258.543
 92  6 13 15 41 27.0000000  0  5  2 19 28 16 18                      0.000698920
  -1170902.281 6   -912390.858 6  23397926.972    23397934.287    23397933.148
     -3158.919       -2461.514
         0.000 1         0.000 1  20653881.096           0.000           0.000
         0.000           0.000
    134348.597 6    104770.512 6  23801444.473    23801455.505    23801454.366
       585.646         456.360
   -568340.098 6   -442863.000 6  23402446.224    23402456.866    23402454.918
     -1402.083       -1092.539
    506552.041 8    394715.569 7  20884613.513    20884627.064    20884624.785
      1618.407        1261.067
 92  6 13 15 41 30.0000000  0  5  2 19 28 16 18                      0.000698800
  -1180374.898 6   -919772.108 6  23396123.271    23396131.695    23396130.226
     -3156.291       -2459.469
         0.000 1         0.000 1  20653977.029           0.000           0.000
         0.000           0.000
    136111.373 6    106144.096 6  23801782.729    23801790.793    23801790.313
       589.545         459.328
   -572540.760 6   -446136.242 6  23401649.675    23401657.949    23401655.731
     -1398.445       -1089.606
    511412.363 8    398502.829 7  20885538.253    20885551.713    20885549.495
      1621.775        1263.698
 92  6 13 15 41 33.0000000  0  5  2 19 28 16 18                      0.000698690
  -1189840.056 6   -927147.554 6  23394320.739    23394330.362    23394329.253
     -3153.735       -2457.435
         0.000 1         0.000 1  20654069.245           0.000           0.000
         0.000           0.000
    137885.258 6    107526.342 6  23802120.685    23802128.599    23802128.269
       593.199         462.224
   -576730.811 6   -449401.220 6  23400848.989    23400860.292    23400858.942
     -1394.869       -1086.855
    516282.328 8    402297.606 7  20886466.620    20886478.792    20886476.243
      1625.012        1266.225
 92  6 13 15 41 36.0000000  0  5  2 19 28 16 18                      0.000698580
  -1199297.607 6   -934517.075 6  23392522.314    23392530.768    23392529.809
     -3151.279       -2455.561
         0.000 1         0.000 1  20654169.616           0.000           0.000
         0.000           0.000
    139670.337 6    108917.302 6  23802457.352    23802467.814    23802467.844
       596.919         465.122
   -580910.115 6   -452657.812 6  23400052.651    23400064.522    23400063.413
     -1391.239       -1084.125
    521162.083 8    406100.007 7  20887394.298    20887407.159    20887405.030
      1628.253        1268.770
 92  6 13 15 41 39.0000000  0  5  2 19 28 16 18                      0.000698470
  -1208747.398 6   -941880.537 6  23390725.897    23390732.523    23390731.114
     -3148.641       -2453.486
         0.000 1         0.000 1  20654261.652           0.000           0.000
         0.000           0.000
    141466.804 6    110317.160 6  23802795.368    23802809.698    23802809.608
       600.762         468.142
   -585078.466 6   -455905.873 6  23399262.548    23399271.302    23399270.312
     -1387.571       -1081.284
    526051.699 8    409910.097 7  20888323.924    20888337.865    20888335.826
      1631.547        1271.360
 92  6 13 15 41 42.0000000  0  5  2 19 28 16 18                      0.000698360
  -1218189.451 6   -949237.978 6  23388930.740    23388935.777    23388934.817
     -3146.035       -2451.559
         0.000 1         0.000 1  20654362.502           0.000           0.000
         0.000           0.000
    143274.543 6    111725.780 6  23803141.178    23803154.069    23803152.990
       604.473         471.001
   -589235.905 6   -459145.444 6  23398474.123    23398480.299    23398479.610
     -1384.027       -1078.452
    530951.133 8    413727.834 7  20889257.508    20889270.069    20889267.881
      1634.781        1273.865
 92  6 13 15 41 45.0000000  0  5  2 19 28 16 18                      0.000698260
  -1227623.714 6   -956589.343 6  23387134.504    23387140.440    23387139.990
     -3143.563       -2449.535
         0.000 1         0.000 1  20654453.999           0.000           0.000
         0.000           0.000
    145093.610 6    113143.238 6  23803489.807    23803500.749    23803499.400
       608.142         473.976
   -593382.326 6   -462376.416 6  23397683.061    23397691.365    23397690.106
     -1380.358       -1075.631
    535860.438 8    417553.264 7  20890192.351    20890204.372    20890202.064
      1637.988        1276.350
 92  6 13 15 41 48.0000000  0  5  2 19 28 16 18                      0.000698170
  -1237050.605 6   -963934.981 6  23385341.235    23385346.541    23385345.672
     -3141.111       -2447.495
         0.000 1         0.000 1  20654558.417           0.000           0.000
         0.000           0.000
    146923.554 6    114569.167 6  23803835.168    23803848.928    23803847.399
       611.767         476.731
   -597518.077 6   -465599.081 6  23396891.999    23396904.650    23396903.091
     -1376.805       -1072.840
    540779.194 8    421386.050 7  20891127.883    20891140.354    20891138.136
      1641.166        1278.808
 92  6 13 15 41 51.0000000  0  5  2 19 28 16 18                      0.000698070
  -1246469.985 6   -971274.744 6  23383547.217    23383553.873    23383553.153
     -3138.367       -2445.533
         0.000 1         0.000 1  20654657.918           0.000           0.000
         0.000           0.000
    148764.503 6    116003.671 6  23804190.302    23804199.026    23804197.587
       615.620         479.654
   -601642.966 6   -468813.270 6  23396107.202    23396119.344    23396117.725
     -1373.031       -1069.906
    545707.569 8    425226.343 7  20892068.572    20892078.255    20892075.827
      1644.506        1281.459
 92  6 13 15 41 54.0000000  0  5  2 19 28 16 18                      0.000697980
  -1255881.042 6   -978608.025 6  23381747.713    23381763.152    23381762.343
     -3135.666       -2443.446
         0.000 1         0.000 1  20654764.434           0.000           0.000
         0.000           0.000
    150617.285 6    117447.401 6  23804546.695    23804551.582    23804550.113
       619.512         482.681
   -605756.130 6   -472018.338 6  23395324.684    23395336.645    23395335.506
     -1369.156       -1066.861
    550646.394 8    429074.771 7  20893006.173    20893017.955    20893015.856
      1647.957        1284.117
 92  6 13 15 41 57.0000000  0  5  2 19 28 16 18                      0.000697890
  -1265284.670 6   -985935.532 6  23379957.202    23379973.511    23379972.612
     -3133.282       -2441.542
         0.000 1         0.000 1  20654876.287           0.000           0.000
         0.000           0.000
    152480.992 6    118899.634 6  23804897.632    23804906.056    23804904.408
       623.104         485.556
   -609858.492 6   -475214.990 6  23394547.202    23394555.806    23394554.697
     -1365.660       -1064.120
    555594.728 8    432930.610 7  20893946.562    20893959.543    20893957.504
      1651.053        1286.557
 92  6 13 15 42  0.0000000  0  5  2 19 28 16 18                      0.000697810
  -1274680.976 6   -993257.318 6  23378181.382    23378185.189    23378184.560
     -3130.802       -2439.496
         0.000 1         0.000 1  20654979.865           0.000           0.000
         0.000           0.000
    154355.535 6    120360.320 6  23805245.062    23805262.480    23805261.281
       626.773         488.395
   -613950.132 6   -478403.273 6  23393764.744    23393777.725    23393776.286
     -1361.997       -1061.277
    560552.514 8    436793.818 7  20894893.306    20894903.020    20894900.891
      1654.291        1289.037
 92  6 13 15 42  3.0000000  0  5  2 19 28 16 18                      0.000697730
  -1284069.319 6  -1000572.904 6  23376396.208    23376398.906    23376397.886
     -3128.216       -2437.532
         0.000 1         0.000 1  20655084.103           0.000           0.000
         0.000           0.000
    156241.543 6    121829.927 6  23805610.839    23805621.721    23805619.952
       630.423         491.290
   -618030.399 6   -481582.710 6  23392993.677    23393000.783    23392999.463
     -1358.331       -1058.389
    565520.417 8    440664.906 7  20895838.552    20895848.325    20895846.227
      1657.536        1291.588
 92  6 13 15 42  6.0000000  0  5  2 19 28 16 18                      0.000697660
  -1293450.671 6  -1007883.037 6  23374600.751    23374613.192    23374613.042
     -3125.844       -2435.776
         0.000 1         0.000 1  20655193.077           0.000           0.000
         0.000           0.000
    158138.055 6    123307.727 6  23805976.795    23805982.581    23805980.872
       634.022         493.967
   -622100.252 6   -484754.020 6  23392217.455    23392226.509    23392225.909
     -1354.808       -1055.730
    570497.466 8    444543.124 7  20896780.680    20896795.460    20896793.301
      1660.609        1293.977
 92  6 13 15 42  9.0000000  0  5  2 19 28 16 18                      0.000697580
  -1302824.737 6  -1015187.508 6  23372817.195    23372829.847    23372829.487
     -3123.447       -2433.844
         0.000 1         0.000 1  20655299.294           0.000           0.000
         0.000           0.000
    160045.524 6    124794.061 6  23806340.354    23806346.289    23806343.741
       637.666         496.906
   -626159.328 6   -487916.927 6  23391444.920    23391453.943    23391453.254
     -1351.200       -1052.874
    575483.998 8    448428.727 7  20897732.971    20897744.333    20897742.144
      1663.768        1296.449
 92  6 13 15 42 12.0000000  0  5  2 19 28 16 18                      0.000697520
  -1312191.602 6  -1022486.355 6  23371039.966    23371047.401    23371046.411
     -3121.041       -2431.959
         0.000 1         0.000 1  20655417.472           0.000           0.000
         0.000           0.000
    161963.963 6    126288.952 6  23806699.985    23806711.047    23806709.668
       641.319         499.676
   -630207.701 6   -491071.499 6  23390674.843    23390683.357    23390682.577
     -1347.665       -1050.092
    580479.872 8    452321.612 7  20898682.953    20898694.885    20898692.906
      1666.900        1298.842
 92  6 13 15 42 15.0000000  0  5  2 19 28 16 18                      0.000697450
  -1321550.966 6  -1029779.363 6  23369256.770    23369266.663    23369265.764
     -3118.594       -2430.042
         0.000 1         0.000 1  20655528.665           0.000           0.000
         0.000           0.000
    163893.549 6    127792.524 6  23807066.301    23807077.933    23807076.284
       645.054         502.555
   -634245.140 6   -494217.553 6  23389906.145    23389915.409    23389914.119
     -1344.027       -1047.294
    585485.341 8    456221.974 7  20899633.745    20899647.505    20899645.347
      1670.051        1301.306
 92  6 13 15 42 18.0000000  0  5  2 19 28 16 18                      0.000697390
  -1330902.962 6  -1037066.625 6  23367472.795    23367486.646    23367486.196
     -3116.060       -2428.071
         0.000 1         0.000 1  20655649.092           0.000           0.000
         0.000           0.000
    165834.193 6    129304.717 6  23807438.164    23807446.947    23807445.808
       648.792         505.561
   -638271.804 6   -497355.213 6  23389137.717    23389149.259    23389148.240
     -1340.347       -1044.459
    590500.239 8    460129.684 7  20900588.913    20900601.864    20900599.466
      1673.274        1303.841
 92  6 13 15 42 21.0000000  0  5  2 19 28 16 18                      0.000697330
  -1340247.408 6  -1044348.002 6  23365692.058    23365708.277    23365707.797
     -3113.622       -2426.179
         0.000 1         0.000 1  20655760.465           0.000           0.000
         0.000           0.000
    167786.052 6    130825.640 6  23807802.321    23807817.641    23807817.401
       652.427         508.390
   -642287.534 6   -500484.349 6  23388372.826    23388384.998    23388383.769
     -1336.825       -1041.721
    595524.789 8    464044.915 7  20901544.262    20901558.082    20901555.834
      1676.418        1306.343
 92  6 13 15 42 24.0000000  0  5  2 19 28 16 18                      0.000697270
  -1349584.864 6  -1051623.941 6  23363919.025    23363931.287    23363931.077
     -3111.198       -2424.306
         0.000 1         0.000 1  20655883.949           0.000           0.000
         0.000           0.000
    169748.554 6    132354.853 6  23808186.715    23808191.332    23808191.152
       656.032         511.192
   -646292.868 6   -503605.382 6  23387609.825    23387622.476    23387622.086
     -1333.273       -1038.914
    600558.524 8    467967.302 7  20902501.769    20902515.919    20902513.641
      1679.515        1308.725
 92  6 13 15 42 27.0000000  0  5  2 19 28 16 18                      0.000697220
  -1358914.912 6  -1058894.102 6  23362149.171    23362156.336    23362155.646
     -3108.680       -2422.363
         0.000 1         0.000 1  20656004.885           0.000           0.000
         0.000           0.000
    171722.111 6    133892.693 6  23808555.880    23808567.002    23808566.193
       659.795         514.168
   -650287.365 6   -506717.983 6  23386848.622    23386862.442    23386861.513
     -1329.639       -1036.049
    605601.850 8    471897.157 7  20903466.381    20903475.825    20903473.307
      1682.790        1311.264
 92  6 13 15 42 30.0000000  0  5  2 19 28 16 18                      0.000697170
  -1368237.085 6  -1066158.129 6  23360378.776    23360382.284    23360381.325
     -3106.219       -2420.417
         0.000 1         0.000 1  20656124.443           0.000           0.000
         0.000           0.000
    173707.260 6    135439.549 6  23808937.875    23808944.681    23808943.961
       663.465         516.961
   -654270.504 6   -509821.726 6  23386094.014    23386104.357    23386104.057
     -1325.988       -1033.279
    610655.248 8    475834.869 7  20904426.946    20904437.349    20904434.981
      1686.013        1313.761
 92  6 13 15 42 33.0000000  0  5  2 19 28 16 18                      0.000697120
  -1377552.089 6  -1073416.573 6  23358605.204    23358609.821    23358609.101
     -3103.796       -2418.572
         0.000 1         0.000 1  20656244.300           0.000           0.000
         0.000           0.000
    175703.310 6    136994.917 6  23809318.852    23809324.847    23809324.338
       667.187         519.907
   -658242.951 6   -512917.138 6  23385337.038    23385348.310    23385347.321
     -1322.355       -1030.412
    615718.043 8    479779.904 7  20905388.411    20905400.852    20905398.214
      1689.197        1316.238
 92  6 13 15 42 36.0000000  0  5  2 19 28 16 18                      0.000697080
  -1386859.948 6  -1080669.434 6  23356828.154    23356838.557    23356837.568
     -3101.433       -2416.734
         0.000 1         0.000 1  20656370.003           0.000           0.000
         0.000           0.000
    177710.278 6    138558.788 6  23809695.751    23809706.813    23809705.434
       670.814         522.779
   -662204.777 6   -516004.273 6  23384584.979    23384594.992    23384593.942
     -1318.813       -1027.690
    620790.196 8    483732.225 7  20906351.824    20906366.244    20906363.696
      1692.294        1318.697
 92  6 13 15 42 39.0000000  0  5  2 19 28 16 18                      0.000697040
  -1396160.643 6  -1087916.728 6  23355060.638    23355068.552    23355067.803
     -3098.980       -2414.840
         0.000 1         0.000 1  20656493.757           0.000           0.000
         0.000           0.000
    179728.134 6    140131.139 6  23810082.573    23810090.607    23810089.618
       674.408         525.600
   -666155.002 6   -519082.142 6  23383829.861    23383843.322    23383842.003
     -1315.277       -1024.835
    625871.765 8    487691.883 7  20907320.034    20907333.045    20907330.256
      1695.500        1321.134
 92  6 13 15 42 42.0000000  0  5  2 19 28 16 18                      0.000697010
  -1405454.123 6  -1095158.386 6  23353286.886    23353300.347    23353299.567
     -3096.651       -2412.965
         0.000 1         0.000 1  20656629.443           0.000           0.000
         0.000           0.000
    181756.862 6    141711.965 6  23810469.515    23810476.770    23810475.931
       678.001         528.269
   -670096.579 6   -522153.726 6  23383080.260    23383093.211    23383092.252
     -1311.797       -1022.177
    630962.838 8    491658.954 7  20908291.121    20908301.974    20908299.216
      1698.572        1323.542
 92  6 13 15 42 45.0000000  0  5  2 19 28 16 18                      0.000696980
  -1414740.373 6  -1102394.431 6  23351520.809    23351533.520    23351532.560
     -3094.168       -2411.024
         0.000 1         0.000 1  20656751.818           0.000           0.000
         0.000           0.000
    183796.435 6    143301.253 6  23810856.457    23810865.031    23810863.922
       681.736         531.167
   -674026.435 6   -525215.944 6  23382331.409    23382345.049    23382344.360
     -1308.096       -1019.390
    636063.470 8    495633.469 7  20909258.072    20909272.462    20909269.884
      1701.838        1326.076
 92  6 13 15 42 48.0000000  0  5  2 19 28 16 18                      0.000696950
  -1424019.630 6  -1109625.006 6  23349753.922    23349767.502    23349766.243
     -3091.925       -2409.380
         0.000 1         0.000 1  20656884.476           0.000           0.000
         0.000           0.000
    185846.542 6    144898.726 6  23811247.956    23811255.391    23811254.282
       685.096         533.839
   -677945.797 6   -528269.992 6  23381587.953    23381599.406    23381598.866
     -1304.796       -1016.713
    641173.448 8    499615.262 7  20910230.029    20910244.929    20910242.051
      1704.833        1328.422
 92  6 13 15 42 51.0000000  0  5  2 19 28 16 18                      0.000696920
  -1433291.945 6  -1116850.177 6  23347991.352    23348002.834    23348001.965
     -3089.541       -2407.329
         0.000 1         0.000 1  20657014.017           0.000           0.000
         0.000           0.000
    187907.201 6    146504.434 6  23811633.249    23811647.400    23811646.440
       688.779         536.727
   -681854.775 6   -531315.956 6  23380845.218    23380855.770    23380854.931
     -1301.162       -1013.890
    646292.717 8    503604.302 7  20911206.363    20911219.074    20911216.466
      1708.077        1330.968
 92  6 13 15 42 54.0000000  0  5  2 19 28 16 18                      0.000696900
  -1442556.921 6  -1124069.636 6  23346230.131    23346240.024    23346239.245
     -3087.149       -2405.581
         0.000 1         0.000 1  20657143.437           0.000           0.000
         0.000           0.000
    189978.869 6    148118.723 6  23812034.312    23812042.016    23812040.607
       692.352         539.479
   -685752.975 6   -534353.505 6  23380101.582    23380113.364    23380112.735
     -1297.661       -1011.202
    651421.672 8    507600.892 7  20912185.125    20912194.869    20912192.291
      1711.227        1333.406
 92  6 13 15 42 57.0000000  0  5  2 19 28 16 18                      0.000696880
  -1451814.826 6  -1131283.586 6  23344468.701    23344478.354    23344477.155
     -3084.821       -2403.740
         0.000 1         0.000 1  20657277.684           0.000           0.000
         0.000           0.000
    192061.272 6    149741.375 6  23812431.477    23812437.772    23812437.203
       695.920         542.289
   -689640.592 6   -537382.814 6  23379360.585    23379373.357    23379373.327
     -1294.095       -1008.415
    656560.098 8    511604.852 7  20913163.678    20913172.702    20913170.333
      1714.365        1335.866
 92  6 13 15 43  0.0000000  0  5  2 19 28 16 18                      0.000696870
  -1461065.902 6  -1138492.205 6  23342706.670    23342717.853    23342716.414
     -3082.591       -2402.067
         0.000 1         0.000 1  20657414.899           0.000           0.000
         0.000           0.000
    194154.223 6    151372.247 6  23812827.233    23812836.227    23812835.267
       699.437         544.980
   -693517.757 6   -540403.983 6  23378624.415    23378635.927    23378635.088
     -1290.641       -1005.644
    661707.767 8    515616.024 7  20914137.554    20914152.513    20914149.755
      1717.430        1338.295
 92  6 13 15 43  3.0000000  0  5  2 19 28 16 18                      0.000696860
  -1470309.801 6  -1145695.238 6  23340947.278    23340958.731    23340957.681
     -3080.159       -2400.025
         0.000 1         0.000 1  20657552.084           0.000           0.000
         0.000           0.000
    196258.061 6    153011.596 6  23813226.017    23813236.120    23813235.520
       703.073         547.810
   -697384.162 6   -543416.764 6  23377883.238    23377900.087    23377899.037
     -1287.045       -1002.850
    666865.088 8    519634.712 7  20915121.623    20915134.034    20915131.216
      1720.702        1340.813
 92  6 13 15 43  6.0000000  0  5  2 19 28 16 18                      0.000696850
  -1479546.789 6  -1152892.884 6  23339193.313    23339201.047    23339199.998
     -3077.834       -2398.289
         0.000 1         0.000 1  20657693.047           0.000           0.000
         0.000           0.000
    198372.441 6    154659.162 6  23813623.781    23813638.081    23813638.171
       706.561         550.471
   -701240.145 6   -546421.424 6  23377153.064    23377166.285    23377165.175
     -1283.636       -1000.161
    672031.730 8    523660.666 7  20916106.681    20916117.113    20916114.325
      1723.783        1343.177
 92  6 13 15 43  9.0000000  0  5  2 19 28 16 18                      0.000696840
  -1488776.941 6  -1160085.210 6  23337436.079    23337444.803    23337443.784
     -3075.602       -2396.522
         0.000 1         0.000 1  20657833.230           0.000           0.000
         0.000           0.000
    200497.303 6    156314.888 6  23814036.805    23814042.771    23814042.112
       710.060         553.248
   -705085.822 6   -549418.056 6  23376418.752    23376434.161    23376433.562
     -1280.148        -997.516
    677207.652 8    527693.846 7  20917086.972    20917102.142    20917099.353
      1726.856        1345.584
 92  6 13 15 43 12.0000000  0  5  2 19 28 16 18                      0.000696840
  -1498000.064 6  -1167272.046 6  23335678.846    23335689.608    23335688.619
     -3073.090       -2394.657
         0.000 1         0.000 1  20657980.877           0.000           0.000
         0.000           0.000
    202632.774 6    157978.885 6  23814437.508    23814449.230    23814448.810
       713.634         556.109
   -708921.081 6   -552406.577 6  23375693.884    23375704.856    23375704.077
     -1276.638        -994.779
    682392.983 8    531734.357 7  20918075.747    20918088.968    20918086.270
      1730.072        1348.132
 92  6 13 15 43 15.0000000  0  5  2 19 28 16 18                      0.000696830
  -1507215.886 6  -1174453.206 6  23333924.640    23333935.972    23333934.683
     -3070.766       -2392.820
         0.000 1         0.000 1  20658114.195           0.000           0.000
         0.000           0.000
    204778.957 6    159651.238 6  23814846.395    23814857.877    23814856.798
       717.114         558.768
   -712745.674 6   -555386.777 5  23374966.647    23374976.780    23374976.241
     -1273.179        -992.076
    687587.962 8    535782.389 7  20919066.981    20919077.354    20919074.926
      1733.196        1350.546
 92  6 13 15 43 18.0000000  0  5  2 19 28 16 18                      0.000696840
  -1516424.703 7  -1181628.907 6  23332172.203    23332183.446    23332182.396
     -3068.331       -2390.930
         0.000 1         0.000 1  20658264.481           0.000           0.000
         0.000           0.000
    206935.576 6    161331.724 6  23815261.398    23815268.143    23815267.723
       720.726         561.591
   -716559.812 6   -558358.822 5  23374238.631    23374250.743    23374250.413
     -1269.569        -989.291
    692792.346 8    539837.752 7  20920055.637    20920067.629    20920065.020
      1736.483        1353.129
 92  6 13 15 43 21.0000000  0  5  2 19 28 16 18                      0.000696840
  -1525626.332 6  -1188798.999 6  23330419.557    23330432.328    23330431.458
     -3066.007       -2389.094
         0.000 1         0.000 1  20658408.202           0.000           0.000
         0.000           0.000
    209102.795 6    163020.462 6  23815672.113    23815680.957    23815680.537
       724.176         564.287
   -720363.342 6   -561322.618 6  23373509.926    23373527.224    23373526.055
     -1266.057        -986.516
    698006.306 8    543900.574 7  20921046.631    20921059.882    20921057.243
      1739.584        1355.531
 92  6 13 15 43 24.0000000  0  5  2 19 28 16 18                      0.000696850
  -1534820.883 6  -1195963.577 6  23328668.049    23328683.069    23328681.420
     -3063.668       -2387.310
         0.000 1         0.000 1  20658554.141           0.000           0.000
         0.000           0.000
    211280.548 6    164717.406 6  23816080.041    23816095.480    23816094.311
       727.644         566.979
   -724156.301 6   -564278.166 6  23372790.334    23372805.503    23372804.574
     -1262.561        -983.820
    703229.742 8    547970.774 7  20922041.402    20922053.754    20922051.325
      1742.694        1357.928
 92  6 13 15 43 27.0000000  0  5  2 19 28 16 18                      0.000696870
  -1544008.602 6  -1203122.829 6  23326922.897    23326934.409    23326933.660
     -3061.603       -2385.664
         0.000 1         0.000 1  20658709.403           0.000           0.000
         0.000           0.000
    213468.596 6    166422.380 6  23816501.849    23816512.162    23816511.142
       730.931         569.502
   -727938.912 6   -567225.652 5  23372073.260    23372085.492    23372084.563
     -1259.317        -981.284
    708462.363 8    552048.140 7  20923037.672    20923049.814    20923047.416
      1745.583        1360.202
 92  6 13 15 43 30.0000000  0  5  2 19 28 16 18                      0.000696880
  -1553189.484 6  -1210276.768 6  23325176.726    23325187.699    23325186.320
     -3058.965       -2383.648
         0.000 1         0.000 1  20658864.306           0.000           0.000
         0.000           0.000
    215666.924 6    168135.359 6  23816918.830    23816930.522    23816928.873
       734.700         572.460
   -731711.208 6   -570165.105 5  23371359.754    23371367.909    23371367.279
     -1255.611        -978.363
    713704.177 8    556132.670 7  20924035.292    20924047.194    20924044.435
      1748.955        1362.818
 92  6 13 15 43 33.0000000  0  5  2 19 28 16 18                      0.000696900
  -1562363.198 6  -1217425.096 6  23323432.474    23323441.707    23323440.958
     -3056.812       -2381.940
         0.000 1         0.000 1  20659008.716           0.000           0.000
         0.000           0.000
    217875.866 6    169856.611 6  23817340.398    23817350.262    23817348.733
       737.998         575.068
   -735472.797 6   -573096.215 5  23370643.700    23370652.184    23370650.385
     -1252.161        -975.728
    718955.569 8    560224.659 7  20925031.382    20925046.222    20925043.824
      1751.973        1365.157
 92  6 13 15 43 36.0000000  0  5  2 19 28 16 18                      0.000696920
  -1571529.940 6  -1224568.018 6  23321688.971    23321697.515    23321696.136
     -3054.519       -2380.141
         0.000 1         0.000 1  20659164.218           0.000           0.000
         0.000           0.000
    220095.315 6    171586.047 6  23817761.757    23817772.519    23817772.129
       741.484         577.837
   -739223.834 6   -576019.101 5  23369926.447    23369938.138    23369937.389
     -1248.678        -972.910
    724216.394 8    564323.995 7  20926033.259    20926047.289    20926044.861
      1755.129        1367.625
 92  6 13 15 43 39.0000000  0  5  2 19 28 16 18                      0.000696940
  -1580689.823 6  -1231705.582 6  23319946.157    23319953.892    23319952.603
     -3052.196       -2378.296
         0.000 1         0.000 1  20659317.322           0.000           0.000
         0.000           0.000
    222325.140 6    173323.574 6  23818183.325    23818196.666    23818195.886
       745.002         580.576
   -742964.417 6   -578933.841 5  23369216.118    23369226.851    23369224.872
     -1245.121        -970.203
    729486.554 8    568430.615 7  20927039.272    20927050.035    20927047.726
      1758.309        1370.136
 92  6 13 15 43 42.0000000  0  5  2 19 28 16 18                      0.000696970
  -1589843.248 6  -1238838.114 6  23318199.327    23318212.278    23318211.348
     -3050.026       -2376.754
         0.000 1         0.000 1  20659474.683           0.000           0.000
         0.000           0.000
    224564.965 6    175068.889 6  23818613.677    23818623.120    23818621.591
       748.339         583.094
   -746694.917 6   -581840.730 5  23368507.409    23368517.002    23368514.964
     -1241.792        -967.576
    734765.729 8    572544.251 7  20928044.476    20928054.609    20928052.271
      1761.268        1372.421
 92  6 13 15 43 45.0000000  0  5  2 19 28 16 18                      0.000697000
  -1598989.938 6  -1245965.398 6  23316457.023    23316471.503    23316470.843
     -3047.877       -2374.915
         0.000 1         0.000 1  20659625.869           0.000           0.000
         0.000           0.000
    226815.034 6    176822.190 6  23819037.404    23819051.524    23819050.175
       751.626         585.675
   -750415.097 6   -584739.566 5  23367797.081    23367809.282    23367807.064
     -1238.415        -964.965
    740054.201 8    576665.136 7  20929048.871    20929061.312    20929058.764
      1764.249        1374.763
 92  6 13 15 43 48.0000000  0  5  2 19 28 16 18                      0.000697030
  -1608129.901 6  -1253087.442 6  23314722.334    23314732.706    23314731.357
     -3045.519       -2373.108
         0.000 1         0.000 1  20659788.716           0.000           0.000
         0.000           0.000
    229075.312 6    178583.448 6  23819469.404    23819481.996    23819479.837
       755.164         588.500
   -754124.875 6   -587630.302 5  23367095.147    23367103.061    23367101.232
     -1234.849        -962.216
    745351.930 8    580793.230 7  20930057.463    20930069.155    20930066.816
      1767.458        1377.246
 92  6 13 15 43 51.0000000  0  5  2 19 28 16 18                      0.000697070
  -1617263.072 6  -1260204.195 6  23312987.225    23312994.120    23312993.580
     -3043.247       -2371.407
         0.000 1         0.000 1  20659947.336           0.000           0.000
         0.000           0.000
    231345.924 6    180352.763 6  23819900.236    23819913.967    23819912.078
       758.580         591.134
   -757824.208 6   -590512.903 5  23366394.442    23366399.059    23366397.620
     -1231.426        -959.492
    750658.890 8    584928.520 7  20931067.404    20931079.095    20931076.757
      1770.511        1379.652
 92  6 13 15 43 54.0000000  0  5  2 19 28 16 18                      0.000697110
  -1626389.464 6  -1267315.670 6  23311248.099    23311257.812    23311256.703
     -3040.940       -2369.547
         0.000 1         0.000 1  20660109.404           0.000           0.000
         0.000           0.000
    233626.817 6    182130.085 6  23820333.976    23820347.976    23820345.788
       762.090         593.803
   -761513.079 6   -593387.343 5  23365683.574    23365697.124    23365695.326
     -1227.885        -956.753
    755975.042 8    589070.972 7  20932079.923    20932090.955    20932088.497
      1773.609        1382.053
 92  6 13 15 43 57.0000000  0  5  2 19 28 16 18                      0.000697150
  -1635508.748 6  -1274421.600 6  23309511.011    23309522.134    23309521.564
     -3038.575       -2367.771
         0.000 1         0.000 1  20660279.716           0.000           0.000
         0.000           0.000
    235918.342 6    183915.687 6  23820766.606    23820784.234    23820782.525
       765.641         596.620
   -765191.177 6   -596253.395 5  23364982.299    23364997.169    23364995.760
     -1224.219        -953.844
    761300.611 8    593220.762 7  20933094.720    20933104.313    20933102.005
      1776.753        1384.490
 92  6 13 15 44  0.0000000  0  5  2 19 28 16 18                      0.000697190
  -1644621.177 6  -1281522.187 6  23307776.982    23307788.314    23307786.665
     -3036.217       -2365.879
         0.000 1         0.000 1  20660440.854           0.000           0.000
         0.000           0.000
    238220.273 6    185709.386 6  23821207.211    23821221.362    23821221.032
       769.217         599.325
   -768858.804 6   -599111.298 5  23364287.231    23364299.162    23364297.693
     -1220.697        -951.095
    766635.276 8    597377.635 7  20934106.430    20934119.531    20934117.132
      1779.899        1386.915
 92  6 13 15 44  3.0000000  0  5  2 19 28 16 18                      0.000697240
  -1653726.654 6  -1288617.351 6  23306046.010    23306055.514    23306054.584
     -3034.127       -2364.263
         0.000 1         0.000 1  20660607.779           0.000           0.000
         0.000           0.000
    240532.665 6    187511.245 6  23821650.065    23821661.637    23821661.067
       772.403         601.919
   -772515.937 6   -601961.005 5  23363591.442    23363603.854    23363601.485
     -1217.422        -948.599
    771979.119 8    601541.662 7  20935124.435    20935136.517    20935134.058
      1782.708        1389.138
 92  6 13 15 44  6.0000000  0  5  2 19 28 16 18                      0.000697290
  -1662825.575 6  -1295707.418 6  23304313.809    23304324.032    23304323.193
     -3031.767       -2362.474
         0.000 1         0.000 1  20660779.230           0.000           0.000
         0.000           0.000
    242855.199 6    189321.017 6  23822095.317    23822103.381    23822103.021
       775.980         604.597
   -776162.955 6   -604802.834 5  23362899.221    23362909.624    23362907.226
     -1213.934        -945.995
    777331.746 8    605712.544 7  20936140.791    20936155.091    20936152.663
      1785.807        1391.502
 92  6 13 15 44  9.0000000  0  5  2 19 28 16 18                      0.000697340
  -1671917.643 6  -1302792.141 6  23302579.840    23302593.810    23302593.300
     -3029.448       -2360.575
         0.000 1         0.000 1  20660942.017           0.000           0.000
         0.000           0.000
    245188.169 6    191138.913 6  23822533.763    23822547.254    23822546.474
       779.516         607.408
   -779799.616 6   -607636.596 5  23362201.335    23362217.403    23362214.945
     -1210.417        -943.143
    782693.534 8    609890.557 7  20937161.165    20937175.345    20937172.737
      1788.884        1393.910
 92  6 13 15 44 12.0000000  0  5  2 19 28 16 18                      0.000697400
  -1681002.880 6  -1309871.542 6  23300851.416    23300865.087    23300863.918
     -3027.359       -2358.980
         0.000 1         0.000 1  20661116.826           0.000           0.000
         0.000           0.000
    247531.497 6    192964.879 6  23822979.225    23822993.495    23822992.266
       782.760         609.966
   -783426.031 6   -610462.372 5  23361518.827    23361527.221    23361525.393
     -1207.159        -940.718
    788064.441 8    614075.676 7  20938186.365    20938197.308    20938194.849
      1791.752        1396.180
 92  6 13 15 44 15.0000000  0  5  2 19 28 16 18                      0.000697460
  -1690081.555 6  -1316945.825 6  23299125.661    23299137.293    23299136.394
     -3025.083       -2357.192
         0.000 1         0.000 1  20661284.830           0.000           0.000
         0.000           0.000
    249884.912 6    194798.705 6  23823429.003    23823441.175    23823439.646
       786.183         612.636
   -787042.535 6   -613280.426 5  23360826.756    23360838.958    23360837.009
     -1203.796        -938.072
    793444.162 8    618267.659 7  20939213.064    20939221.069    20939218.970
      1794.756        1398.536
 92  6 13 15 44 18.0000000  0  5  2 19 28 16 18                      0.000697520
  -1699153.334 6  -1324014.742 6  23297402.184    23297410.878    23297410.009
     -3022.869       -2355.499
         0.000 1         0.000 1  20661459.519           0.000           0.000
         0.000           0.000
    252248.714 6    196640.630 6  23823883.009    23823891.433    23823889.994
       789.587         615.274
   -790648.880 6   -616090.562 5  23360140.112    23360152.853    23360151.204
     -1200.526        -935.407
    798833.027 8    622466.775 7  20940237.545    20940246.599    20940244.171
      1797.714        1400.810
 92  6 13 15 44 21.0000000  0  5  2 19 28 16 18                      0.000697590
  -1708218.592 6  -1331078.577 6  23295679.637    23295686.082    23295685.812
     -3020.558       -2353.655
         0.000 1         0.000 1  20661632.619           0.000           0.000
         0.000           0.000
    254622.587 6    198490.402 6  23824331.259    23824342.711    23824341.572
       793.099         618.044
   -794245.429 6   -618893.072 6  23359457.004    23359468.486    23359467.257
     -1197.072        -932.724
    804230.751 8    626672.789 7  20941261.247    20941273.868    20941271.439
      1800.839        1403.256
 92  6 13 15 44 24.0000000  0  5  2 19 28 16 18                      0.000697650
  -1717276.320 6  -1338136.540 6  23293954.571    23293962.305    23293961.436
     -3017.871       -2351.616
         0.000 1         0.000 1  20661807.668           0.000           0.000
         0.000           0.000
    257007.522 6    200348.788 6  23824782.506    23824796.537    23824795.517
       796.998         620.993
   -797831.221 6   -621687.184 6  23358774.557    23358786.459    23358784.840
     -1193.334        -929.888
    809638.363 8    630886.510 7  20942292.383    20942302.785    20942300.297
      1804.324        1405.993
 92  6 13 15 44 27.0000000  0  5  2 19 28 16 18                      0.000697730
  -1726326.521 6  -1345188.637 6  23292232.083    23292239.998    23292239.158
     -3015.674       -2349.814
         0.000 1         0.000 1  20661989.013           0.000           0.000
         0.000           0.000
    259403.462 6    202215.754 5  23825242.538    23825251.801    23825251.921
       800.311         623.639
   -801406.375 6   -624473.021 5  23358094.837    23358106.379    23358104.221
     -1190.108        -927.473
    815055.826 8    635107.905 7  20943324.388    20943333.712    20943331.194
      1807.267        1408.258
 92  6 13 15 44 30.0000000  0  5  2 19 28 16 18                      0.000697800
  -1735370.055 6  -1352235.538 6  23290510.915    23290519.429    23290518.769
     -3013.316       -2348.019
         0.000 1         0.000 1  20662168.528           0.000           0.000
         0.000           0.000
    261809.451 6    204090.548 6  23825700.291    23825709.525    23825709.674
       803.804         626.345
   -804971.789 6   -627251.265 5  23357422.253    23357427.469    23357426.360
     -1186.773        -924.716
    820482.218 8    639336.260 7  20944353.786    20944366.257    20944363.739
      1810.389        1410.688
 92  6 13 15 44 33.0000000  0  5  2 19 28 16 18                      0.000697880
  -1744406.521 6  -1359276.937 6  23288795.592    23288799.490    23288798.620
     -3011.041       -2346.290
         0.000 1         0.000 1  20662344.477           0.000           0.000
         0.000           0.000
    264225.809 6    205973.422 6  23826158.284    23826169.496    23826169.766
       807.149         628.961
   -808527.139 6   -630021.672 6  23356743.463    23356751.168    23356748.949
     -1183.529        -922.190
    825917.825 8    643571.794 7  20945387.890    20945400.481    20945398.203
      1813.338        1413.010
 92  6 13 15 44 36.0000000  0  5  2 19 28 16 18                      0.000697960
  -1753435.951 6  -1366312.854 6  23287073.165    23287081.229    23287080.090
     -3008.566       -2344.354
         0.000 1         0.000 1  20662528.039           0.000           0.000
         0.000           0.000
    266652.464 6    207864.320 6  23826626.410    23826631.266    23826631.386
       810.687         631.660
   -812072.503 6   -632784.291 6  23356069.080    23356076.275    23356074.386
     -1180.090        -919.546
    831362.573 8    647814.448 7  20946423.193    20946437.013    20946434.585
      1816.491        1415.427
 92  6 13 15 44 39.0000000  0  5  2 19 28 16 18                      0.000698040
  -1762458.471 6  -1373343.376 6  23285351.637    23285364.827    23285364.018
     -3006.336       -2342.568
         0.000 1         0.000 1  20662710.793           0.000           0.000
         0.000           0.000
    269089.341 6    209763.196 6  23827088.870    23827095.855    23827094.536
       813.994         634.312
   -815607.947 6   -635539.181 6  23355393.557    23355403.241    23355402.072
     -1176.834        -916.966
    836816.439 8    652064.212 7  20947462.154    20947474.535    20947472.137
      1819.494        1417.752
 92  6 13 15 44 42.0000000  0  5  2 19 28 16 18                      0.000698130
  -1771474.528 6  -1380368.871 6  23283631.457    23283648.695    23283648.246
     -3004.165       -2340.972
         0.000 1         0.000 1  20662899.362           0.000           0.000
         0.000           0.000
    271536.055 6    211669.731 6  23827552.978    23827561.402    23827560.083
       817.306         636.863
   -819133.897 6   -638286.664 6  23354721.872    23354732.575    23354730.806
     -1173.619        -914.548
    842279.034 8    656320.777 7  20948498.836    20948514.185    20948511.727
      1822.423        1420.058
 92  6 13 15 44 45.0000000  0  5  2 19 28 16 18                      0.000698220
  -1780483.680 6  -1387388.986 6  23281918.593    23281934.512    23281933.583
     -3001.918       -2339.104
         0.000 1         0.000 1  20663078.369           0.000           0.000
         0.000           0.000
    273993.068 6    213584.280 6  23828019.246    23828028.959    23828027.850
       820.704         639.520
   -822649.892 6   -641026.402 5  23354048.748    23354063.468    23354061.999
     -1170.384        -912.001
    847750.792 8    660584.485 7  20949539.296    20949555.365    20949553.116
      1825.422        1422.407
 92  6 13 15 44 48.0000000  0  5  2 19 28 16 18                      0.000698310
  -1789486.072 7  -1394403.826 6  23280210.825    23280221.648    23280220.029
     -2999.715       -2337.509
         0.000 1         0.000 1  20663271.495           0.000           0.000
         0.000           0.000
    276460.172 6    215506.698 6  23828488.541    23828498.824    23828496.905
       824.030         642.092
   -826156.143 6   -643758.546 5  23353381.171    23353395.711    23353394.631
     -1167.165        -909.554
    853231.527 8    664855.185 7  20950585.601    20950598.403    20950595.854
      1828.370        1424.662
 92  6 13 15 44 51.0000000  0  5  2 19 28 16 18                      0.000698400
  -1798481.462 6  -1401413.223 6  23278497.482    23278509.953    23278508.754
     -2997.272       -2335.515
         0.000 1         0.000 1  20663455.807           0.000           0.000
         0.000           0.000
    278937.524 6    217437.097 6  23828957.356    23828970.397    23828968.538
       827.501         644.811
   -829652.492 6   -646482.970 5  23352719.169    23352730.501    23352729.362
     -1163.752        -906.828
    858721.400 8    669133.005 7  20951632.417    20951643.239    20951640.481
      1831.514        1427.131
 92  6 13 15 44 54.0000000  0  5  2 19 28 16 18                      0.000698500
  -1807470.021 6  -1408417.288 6  23276786.956    23276799.247    23276798.228
     -2994.962       -2333.687
         0.000 1         0.000 1  20663647.435           0.000           0.000
         0.000           0.000
    281425.009 6    219375.399 6  23829429.469    23829443.080    23829441.671
       831.002         647.492
   -833139.074 6   -649199.787 6  23352056.718    23352067.210    23352065.621
     -1160.478        -904.300
    864220.292 8    673417.850 7  20952679.202    20952689.605    20952687.087
      1834.592        1429.524
 92  6 13 15 44 57.0000000  0  5  2 19 28 16 18                      0.000698600
  -1816451.610 6  -1415415.930 6  23275082.456    23275090.190    23275088.661
     -2992.757       -2331.987
         0.000 1         0.000 1  20663836.544           0.000           0.000
         0.000           0.000
    283922.774 6    221321.691 6  23829903.561    23829918.940    23829917.741
       834.208         649.994
   -836615.806 6   -651908.932 6  23351396.005    23351405.598    23351404.339
     -1157.336        -901.785
    869728.267 8    677709.772 7  20953722.929    20953737.559    20953735.101
      1837.455        1431.770
 92  6 13 15 45  0.0000000  0  5  2 19 28 16 18                      0.000698710
  -1825426.617 7  -1422409.433 6  23273372.769    23273382.513    23273380.954
     -2990.570       -2330.367
         0.000 1         0.000 1  20664025.953           0.000           0.000
         0.000           0.000
    286430.360 6    223275.647 6  23830382.719    23830395.970    23830395.371
       837.486         652.577
   -840083.058 6   -654610.685 6  23350735.802    23350745.425    23350744.466
     -1154.171        -899.290
    875244.958 8    682008.490 7  20954775.171    20954787.463    20954784.974
      1840.357        1434.029
 92  6 13 15 45  3.0000000  0  5  2 19 28 16 18                      0.000698810
  -1834395.069 7  -1429397.834 6  23271665.032    23271675.854    23271674.535
     -2988.294       -2328.524
         0.000 1         0.000 1  20664223.606           0.000           0.000
         0.000           0.000
    288947.801 6    225237.286 6  23830859.090    23830875.278    23830873.929
       840.848         655.177
   -843540.760 6   -657304.995 5  23350074.040    23350087.621    23350086.511
     -1150.891        -896.810
    880770.405 8    686314.028 7  20955829.931    20955838.895    20955836.316
      1843.304        1436.343
 92  6 13 15 45  6.0000000  0  5  2 19 28 16 18                      0.000698920
  -1843356.751 7  -1436380.953 6  23269958.823    23269970.305    23269969.016
     -2986.132       -2326.806
         0.000 1         0.000 1  20664422.458           0.000           0.000
         0.000           0.000
    291475.312 6    227206.769 6  23831340.586    23831355.966    23831354.796
       844.149         657.768
   -846988.690 6   -659991.702 6  23349419.353    23349431.645    23349430.266
     -1147.726        -894.324
    886304.681 8    690626.449 7  20956881.813    20956892.006    20956889.637
      1846.189        1438.621
 92  6 13 15 45  9.0000000  0  5  2 19 28 16 18                      0.000699030
  -1852311.593 7  -1443358.749 6  23268258.520    23268266.344    23268264.995
     -2983.822       -2325.042
         0.000 1         0.000 1  20664613.965           0.000           0.000
         0.000           0.000
    294012.954 6    229184.136 6  23831824.241    23831838.631    23831838.002
       847.583         660.400
   -850426.836 6   -662670.779 6  23348764.757    23348777.258    23348775.609
     -1144.426        -891.709
    891847.787 8    694945.752 7  20957935.583    20957946.885    20957944.427
      1849.162        1440.942
 92  6 13 15 45 12.0000000  0  5  2 19 28 16 18                      0.000699150
  -1861259.785 7  -1450331.367 6  23266551.921    23266563.523    23266562.474
     -2981.670       -2323.398
         0.000 1         0.000 1  20664819.863           0.000           0.000
         0.000           0.000
    296560.564 6    231169.288 6  23832306.997    23832323.696    23832322.676
       850.833         663.037
   -853855.383 6   -665342.375 6  23348112.228    23348125.119    23348123.950
     -1141.246        -889.286
    897399.480 8    699271.740 7  20958991.722    20959003.354    20959000.806
      1851.971        1443.095
 92  6 13 15 45 15.0000000  0  5  2 19 28 16 18                      0.000699260
  -1870201.233 6  -1457298.717 6  23264849.940    23264861.841    23264860.522
     -2979.300       -2321.521
         0.000 1         0.000 1  20665010.951           0.000           0.000
         0.000           0.000
    299118.195 6    233162.255 6  23832789.873    23832809.959    23832809.239
       854.303         665.673
   -857274.186 6   -668006.375 6  23347458.351    23347474.360    23347472.861
     -1137.933        -886.730
    902959.873 8    703604.513 7  20960048.131    20960061.471    20960059.013
      1855.005        1445.407
 92  6 13 15 45 18.0000000  0  5  2 19 28 16 18                      0.000699380
  -1879135.691 7  -1464260.623 6  23263144.570    23263161.299    23263160.309
     -2977.109       -2319.809
         0.000 1         0.000 1  20665217.717           0.000           0.000
         0.000           0.000
    301686.041 6    235163.174 6  23833282.702    23833298.920    23833298.081
       857.588         668.271
   -860683.064 6   -670662.650 6  23346810.889    23346825.879    23346824.110
     -1134.716        -884.236
    908529.183 8    707944.230 7  20961109.636    20961121.178    20961118.869
      1857.853        1447.682
 92  6 13 15 45 21.0000000  0  5  2 19 28 16 18                      0.000699500
  -1888063.509 6  -1471217.364 6  23261450.173    23261462.764    23261460.846
     -2974.814       -2318.047
         0.000 1         0.000 1  20665422.776           0.000           0.000
         0.000           0.000
    304263.654 6    237171.699 6  23833774.901    23833789.321    23833788.362
       860.919         670.773
   -864082.495 6   -673311.554 6  23346167.235    23346178.597    23346177.578
     -1131.496        -881.693
    914106.977 8    712290.557 7  20962171.621    20962182.713    20962180.225
      1860.722        1449.933
 92  6 13 15 45 24.0000000  0  5  2 19 28 16 18                      0.000699630
  -1896984.263 6  -1478168.601 6  23259758.564    23259764.980    23259763.901
     -2972.433       -2316.262
         0.000 1         0.000 1  20665620.519           0.000           0.000
         0.000           0.000
    306851.406 6    239188.131 6  23834271.597    23834282.090    23834281.220
       864.189         673.426
   -867472.124 6   -675952.819 6  23345528.047    23345533.893    23345532.814
     -1128.297        -879.198
    919693.662 8    716643.822 7  20963233.845    20963245.837    20963243.379
      1863.628        1452.203
 92  6 13 15 45 27.0000000  0  5  2 19 28 16 18                      0.000699760
  -1905898.425 6  -1485114.700 6  23258060.690    23258068.904    23258067.465
     -2970.276       -2314.459
         0.000 1         0.000 1  20665823.058           0.000           0.000
         0.000           0.000
    309448.780 6    241212.057 6  23834766.854    23834775.938    23834775.308
       867.437         675.862
   -870852.426 6   -678586.826 6  23344880.496    23344890.389    23344889.190
     -1125.191        -876.772
    925288.724 8    721003.605 7  20964295.770    20964310.640    20964308.241
      1866.434        1454.372
 92  6 13 15 45 30.0000000  0  5  2 19 28 16 18                      0.000699890
  -1914806.012 6  -1492055.668 6  23256363.085    23256373.787    23256372.888
     -2968.150       -2312.856
         0.000 1         0.000 1  20666031.864           0.000           0.000
         0.000           0.000
    312055.771 6    243243.479 6  23835267.777    23835272.124    23835271.405
       870.599         678.354
   -874223.311 6   -681213.483 6  23344236.212    23344248.983    23344247.963
     -1122.136        -874.321
    930892.240 8    725369.978 7  20965362.132    20965376.762    20965374.513
      1869.202        1456.525
 92  6 13 15 45 33.0000000  0  5  2 19 28 16 18                      0.000700030
  -1923706.789 6  -1498991.340 6  23254664.641    23254680.080    23254679.121
     -2965.779       -2310.929
         0.000 1         0.000 1  20666236.442           0.000           0.000
         0.000           0.000
    314672.591 6    245282.563 6  23835754.850    23835769.870    23835769.210
       873.963         680.971
   -877584.596 6   -683832.672 6  23343595.555    23343609.196    23343608.866
     -1118.770        -871.804
    936504.421 8    729743.098 7  20966432.301    20966444.802    20966442.374
      1872.223        1458.873
 92  6 13 15 45 36.0000000  0  5  2 19 28 16 18                      0.000700160
  -1932600.779 6  -1505921.709 6  23252975.820    23252987.362    23252986.283
     -2963.592       -2309.236
         0.000 1         0.000 1  20666441.111           0.000           0.000
         0.000           0.000
    317299.226 6    247329.278 6  23836254.125    23836269.204    23836268.844
       877.137         683.468
   -880936.248 6   -686444.346 6  23342958.676    23342971.417    23342970.848
     -1115.690        -869.355
    942125.284 8    734122.986 7  20967504.509    20967514.552    20967512.243
      1875.024        1461.050
 92  6 13 15 45 39.0000000  0  5  2 19 28 16 18                      0.000700300
  -1941488.329 6  -1512847.070 6  23251285.200    23251296.382    23251295.303
     -2961.485       -2307.616
         0.000 1         0.000 1  20666650.366           0.000           0.000
         0.000           0.000
    319935.415 6    249383.449 6  23836761.284    23836771.177    23836770.637
       880.299         686.030
   -884278.597 6   -689048.774 6  23342320.358    23342335.018    23342334.868
     -1112.560        -866.934
    947754.508 8    738509.397 7  20968575.577    20968585.680    20968583.222
      1877.771        1463.200
 92  6 13 15 45 42.0000000  0  5  2 19 28 16 18                      0.000700440
  -1950369.238 6  -1519767.262 6  23249593.621    23249605.943    23249605.163
     -2959.178       -2305.906
         0.000 1         0.000 1  20666868.435           0.000           0.000
         0.000           0.000
    322581.459 6    251445.293 6  23837264.006    23837275.128    23837273.839
       883.658         688.576
   -887611.375 6   -691645.742 6  23341692.862    23341701.226    23341700.687
     -1109.300        -864.441
    953392.306 8    742902.476 7  20969646.586    20969658.278    20969655.969
      1880.694        1465.449
 92  6 13 15 45 45.0000000  0  5  2 19 28 16 18                      0.000700590
  -1959243.550 6  -1526682.296 6  23247909.297    23247917.332    23247917.062
     -2957.099       -2304.262
         0.000 1         0.000 1  20667075.531           0.000           0.000
         0.000           0.000
    325237.242 6    253514.741 6  23837774.762    23837780.518    23837778.869
       886.784         691.067
   -890934.645 6   -694235.301 6  23341057.242    23341068.964    23341068.155
     -1106.238        -862.000
    959038.621 8    747302.203 7  20970720.472    20970732.884    20970730.485
      1883.468        1467.659
 92  6 13 15 45 48.0000000  0  5  2 19 28 16 18                      0.000700740
  -1968111.357 6  -1533592.275 6  23246221.316    23246230.010    23246228.571
     -2954.795       -2302.462
         0.000 1         0.000 1  20667294.859           0.000           0.000
         0.000           0.000
    327902.646 6    255591.676 6  23838280.242    23838287.677    23838287.497
       890.097         693.635
   -894248.495 6   -696817.524 6  23340421.742    23340438.081    23340437.301
     -1102.990        -859.484
    964693.409 8    751708.529 7  20971796.038    20971808.779    20971806.530
      1886.378        1469.937
 92  6 13 15 45 51.0000000  0  5  2 19 28 16 18                      0.000700890
  -1976972.707 6  -1540497.218 6  23244533.634    23244543.707    23244542.718
     -2952.646       -2300.715
         0.000 1         0.000 1  20667507.352           0.000           0.000
         0.000           0.000
    330577.695 6    257676.125 6  23838778.977    23838796.844    23838795.435
       893.331         696.128
   -897552.995 6   -699392.463 6  23339795.326    23339809.596    23339808.517
     -1099.892        -857.066
    970356.706 8    756121.479 7  20972874.841    20972886.803    20972884.404
      1889.239        1472.121
 92  6 13 15 45 54.0000000  0  5  2 19 28 16 18                      0.000701040
  -1985827.651 6  -1547397.167 6  23242847.661    23242858.754    23242857.585
     -2950.579       -2299.130
         0.000 1         0.000 1  20667726.651           0.000           0.000
         0.000           0.000
    333262.343 6    259768.060 6  23839291.292    23839307.181    23839306.821
       896.538         698.589
   -900848.233 6   -701960.171 6  23339169.209    23339182.400    23339181.801
     -1096.793        -854.698
    976028.475 8    760541.037 7  20973950.286    20973965.786    20973963.747
      1892.084        1474.329
 92  6 13 15 45 57.0000000  0  5  2 19 28 16 18                      0.000701190
  -1994675.897 6  -1554291.907 6  23241166.215    23241175.089    23241173.830
     -2948.398       -2297.397
         0.000 1         0.000 1  20667937.944           0.000           0.000
         0.000           0.000
    335956.857 6    261867.666 6  23839802.978    23839819.886    23839819.706
       899.728         701.108
   -904133.952 6   -704520.476 6  23338545.071    23338556.943    23338556.164
     -1093.694        -852.191
    981708.975 8    764967.398 7  20975035.295    20975046.837    20975044.259
      1894.901        1476.549
 92  6 13 15 46  0.0000000  0  5  2 19 28 16 18                      0.000701350
  -2003517.390 6  -1561181.367 6  23239484.799    23239492.384    23239491.875
     -2946.010       -2295.592
         0.000 1         0.000 1  20668161.799           0.000           0.000
         0.000           0.000
    338661.191 6    263974.933 6  23840327.495    23840334.840    23840334.540
       903.074         703.724
   -907410.104 6   -707073.317 6  23337925.251    23337933.795    23337932.685
     -1090.473        -849.716
    987398.220 8    769400.572 7  20976116.287    20976129.118    20976126.840
      1897.863        1478.802
 92  6 13 15 46  3.0000000  0  5  2 19 28 16 18                      0.000701510
  -2012352.125 6  -1568065.577 6  23237797.418    23237811.268    23237810.399
     -2943.740       -2293.814
         0.000 1         0.000 1  20668375.252           0.000           0.000
         0.000           0.000
    341375.354 6    266089.854 6  23840839.480    23840851.322    23840850.962
       906.393         706.302
   -910676.694 6   -709618.713 6  23337304.380    23337312.115    23337310.736
     -1087.225        -847.208
    993096.207 8    773840.561 7  20977200.876    20977213.497    20977211.159
      1900.782        1481.131
 92  6 13 15 46  6.0000000  0  5  2 19 28 16 18                      0.000701680
  -2021180.114 6  -1574944.520 6  23236111.475    23236131.381    23236130.212
     -2941.536       -2292.134
         0.000 1         0.000 1  20668602.464           0.000           0.000
         0.000           0.000
    344099.315 6    268212.428 6  23841354.194    23841369.303    23841368.824
       909.605         708.754
   -913933.761 6   -712156.686 6  23336684.140    23336692.504    23336691.485
     -1084.064        -844.701
    998802.892 8    778287.322 7  20978287.504    20978299.316    20978297.127
      1903.654        1483.385
 92  6 13 15 46  9.0000000  0  5  2 19 28 16 18                      0.000701840
  -2030001.367 6  -1581818.222 6  23234435.275    23234452.723    23234452.004
     -2939.398       -2290.407
         0.000 1         0.000 1  20668821.942           0.000           0.000
         0.000           0.000
    346832.981 6    270342.547 6  23841873.554    23841889.593    23841888.634
       912.783         711.172
   -917181.304 6   -714687.240 6  23336062.430    23336073.882    23336073.792
     -1081.004        -842.411
   1004518.179 8    782740.795 7  20979374.191    20979386.903    20979384.804
      1906.443        1485.543
 92  6 13 15 46 12.0000000  0  5  2 19 28 16 18                      0.000702010
  -2038816.166 6  -1588686.900 6  23232761.324    23232775.144    23232774.215
     -2937.186       -2288.738
         0.000 1         0.000 1  20669051.853           0.000           0.000
         0.000           0.000
    349576.024 6    272479.983 6  23842400.080    23842412.072    23842410.872
       915.903         713.709
   -920419.647 6   -717210.604 6  23335443.149    23335457.479    23335457.149
     -1077.931        -839.957
   1010241.831 8    787200.779 7  20980461.898    20980476.438    20980473.950
      1909.292        1487.759
 92  6 13 15 46 15.0000000  0  5  2 19 28 16 18                      0.000702180
  -2047624.339 6  -1595550.390 6  23231086.683    23231098.915    23231097.986
     -2934.963       -2286.941
         0.000 1         0.000 1  20669268.453           0.000           0.000
         0.000           0.000
    352328.544 6    274624.814 6  23842925.556    23842936.169    23842934.700
       919.070         716.192
   -923648.674 6   -719726.741 6  23334829.174    23334843.534    23334842.545
     -1074.805        -837.452
   1015974.037 8    791667.428 7  20981549.336    20981567.083    20981564.985
      1912.180        1489.975
 92  6 13 15 46 18.0000000  0  5  2 19 28 16 18                      0.000702360
  -2056425.674 6  -1602408.574 6  23229411.983    23229424.274    23229422.895
     -2932.720       -2285.258
         0.000 1         0.000 1  20669500.972           0.000           0.000
         0.000           0.000
    355090.787 6    276777.203 6  23843447.225    23843461.795    23843460.596
       922.291         718.705
   -926868.144 6   -722235.414 6  23334220.086    23334231.028    23334230.039
     -1071.622        -835.072
   1021714.998 8    796140.899 7  20982647.745    20982659.497    20982657.129
      1915.033        1492.247
 92  6 13 15 46 21.0000000  0  5  2 19 28 16 18                      0.000702530
  -2065220.487 6  -1609261.677 6  23227737.162    23227750.713    23227749.334
     -2930.580       -2283.511
         0.000 1         0.000 1  20669721.320           0.000           0.000
         0.000           0.000
    357862.380 6    278936.889 6  23843973.061    23843989.250    23843987.901
       925.385         721.112
   -930078.414 6   -724736.932 6  23333612.346    23333619.871    23333619.451
     -1068.524        -832.574
   1027464.438 8    800620.979 7  20983742.168    20983753.740    20983751.281
      1917.905        1494.462
 92  6 13 15 46 24.0000000  0  5  2 19 28 16 18                      0.000702710
  -2074008.630 6  -1616109.576 6  23226063.871    23226077.871    23226077.151
     -2928.261       -2281.726
         0.000 1         0.000 1  20669955.817           0.000           0.000
         0.000           0.000
    360643.488 6    281103.982 6  23844508.160    23844518.383    23844517.424
       928.651         723.594
   -933279.250 6   -727231.073 6  23332999.990    23333010.813    23333010.453
     -1065.372        -830.135
   1033222.622 8    805107.870 7  20984835.181    20984849.241    20984847.352
      1920.878        1496.790
 92  6 13 15 46 27.0000000  0  5  2 19 28 16 18                      0.000702890
  -2082789.998 6  -1622952.194 6  23224392.408    23224407.307    23224406.228
     -2926.103       -2280.128
         0.000 1         0.000 1  20670189.715           0.000           0.000
         0.000           0.000
    363434.154 6    283278.523 6  23845032.647    23845049.586    23845049.046
       931.750         725.938
   -936470.508 6   -729717.783 6  23332389.523    23332403.973    23332403.103
     -1062.284        -827.729
   1038989.691 8    809601.679 7  20985934.850    20985946.811    20985944.563
      1923.736        1498.994
 92  6 13 15 46 30.0000000  0  5  2 19 28 16 18                      0.000703080
  -2091565.284 6  -1629790.076 6  23222715.968    23222737.493    23222735.994
     -2924.028       -2278.414
         0.000 1         0.000 1  20670415.969           0.000           0.000
         0.000           0.000
    366233.733 6    285460.002 6  23845568.826    23845582.257    23845581.388
       934.737         728.352
   -939652.861 6   -732197.528 6  23331783.942    23331797.763    23331797.703
     -1059.268        -825.349
   1044764.961 8    814101.897 7  20987034.968    20987045.880    20987043.482
      1926.519        1501.190
 92  6 13 15 46 33.0000000  0  5  2 19 28 16 18                      0.000703260
  -2100334.191 6  -1636622.990 6  23221053.169    23221068.669    23221067.529
     -2921.927       -2276.797
         0.000 1         0.000 1  20670647.888           0.000           0.000
         0.000           0.000
    369042.611 6    287648.741 6  23846103.176    23846117.087    23846115.558
       937.883         730.757
   -942825.889 6   -734670.017 6  23331173.355    23331194.220    23331193.381
     -1056.111        -822.897
   1050548.667 8    818608.677 7  20988133.797    20988146.598    20988144.290
      1929.329        1503.385
 92  6 13 15 46 36.0000000  0  5  2 19 28 16 18                      0.000703450
  -2109096.748 6  -1643450.946 6  23219386.833    23219401.163    23219399.934
     -2919.837       -2275.262
         0.000 1         0.000 1  20670883.285           0.000           0.000
         0.000           0.000
    371860.888 6    289844.798 6  23846641.693    23846653.235    23846651.767
       940.980         733.230
   -945989.569 6   -737135.213 6  23330578.956    23330592.507    23330591.578
     -1053.020        -820.474
   1056340.894 8    823122.099 7  20989237.663    20989248.725    20989246.657
      1932.142        1505.614
 92  6 13 15 46 39.0000000  0  5  2 19 28 16 18                      0.000703640
  -2117852.934 6  -1650273.949 6  23217723.405    23217735.246    23217733.717
     -2917.657       -2273.548
         0.000 1         0.000 1  20671117.243           0.000           0.000
         0.000           0.000
    374688.573 6    292048.186 6  23847178.262    23847191.573    23847189.594
       944.115         735.653
   -949143.826 6   -739593.069 6  23329983.868    23329992.232    23329991.633
     -1049.877        -818.130
   1062141.673 8    827642.179 7  20990339.640    20990352.561    20990350.163
      1934.973        1507.752
 92  6 13 15 46 42.0000000  0  5  2 19 28 16 18                      0.000703840
  -2126602.840 6  -1657092.047 6  23216054.760    23216069.929    23216068.670
     -2915.538       -2271.915
         0.000 1         0.000 1  20671356.538           0.000           0.000
         0.000           0.000
    377525.578 6    294258.827 6  23847715.700    23847731.079    23847729.730
       947.215         738.097
   -952288.625 6   -742043.566 6  23329380.776    23329393.667    23329392.468
     -1046.636        -815.667
   1067950.910 8    832168.836 7  20991446.414    20991457.956    20991455.618
      1937.837        1510.015
 92  6 13 15 46 45.0000000  0  5  2 19 28 16 18                      0.000704030
  -2135346.166 6  -1663905.022 6  23214391.661    23214406.231    23214404.492
     -2913.496       -2270.282
         0.000 1         0.000 1  20671589.596           0.000           0.000
         0.000           0.000
    380372.084 6    296476.887 6  23848256.406    23848272.445    23848271.485
       950.251         740.412
   -955423.671 6   -744486.458 6  23328784.998    23328797.110    23328796.360
     -1043.538        -813.163
   1073768.862 8    836702.315 7  20992553.278    20992565.269    20992562.931
      1940.632        1512.183
 92  6 13 15 46 48.0000000  0  5  2 19 28 16 18                      0.000704230
  -2144083.341 6  -1670713.206 6  23212731.231    23212743.402    23212742.443
     -2911.243       -2268.476
         0.000 1         0.000 1  20671833.388           0.000           0.000
         0.000           0.000
    383227.704 6    298702.039 6  23848801.069    23848815.848    23848814.349
       953.547         743.033
   -958549.413 6   -746922.095 6  23328194.587    23328202.142    23328201.242
     -1040.242        -810.605
   1079595.050 8    841242.201 7  20993662.030    20993673.662    20993671.504
      1943.555        1514.496
 92  6 13 15 46 51.0000000  0  5  2 19 28 16 18                      0.000704430
  -2152814.078 6  -1677516.376 6  23211072.329    23211082.042    23211081.473
     -2909.082       -2266.865
         0.000 1         0.000 1  20672068.485           0.000           0.000
         0.000           0.000
    386092.689 6    300934.493 6  23849350.858    23849360.841    23849359.762
       956.675         745.446
   -961665.421 6   -749350.157 6  23327597.640    23327609.602    23327608.253
     -1036.981        -808.069
   1085429.760 8    845788.727 7  20994773.870    20994784.243    20994781.635
      1946.409        1516.692
 92  6 13 15 46 54.0000000  0  5  2 19 28 16 18                      0.000704640
  -2161538.206 6  -1684314.386 6  23209410.100    23209422.061    23209421.132
     -2906.969       -2265.207
         0.000 1         0.000 1  20672315.724           0.000           0.000
         0.000           0.000
    388967.280 6    303174.424 6  23849899.238    23849908.112    23849906.973
       959.749         747.858
   -964771.500 6   -751770.478 6  23327006.569    23327018.471    23327017.482
     -1033.761        -805.548
   1091273.199 8    850342.054 7  20995886.580    20995896.323    20995893.985
      1949.269        1518.889
 92  6 13 15 46 57.0000000  0  5  2 19 28 16 18                      0.000704840
  -2170256.062 6  -1691107.522 6  23207749.040    23207762.890    23207762.201
     -2904.965       -2263.585
         0.000 1         0.000 1  20672558.705           0.000           0.000
         0.000           0.000
    391851.097 6    305421.546 6  23850448.548    23850457.062    23850455.233
       962.721         750.202
   -967867.999 6   -754183.341 6  23326415.738    23326429.409    23326428.030
     -1030.622        -803.094
   1097125.087 8    854901.966 7  20996997.491    20997009.843    20997007.504
      1951.958        1521.005
 92  6 13 15 47  0.0000000  0  5  2 19 28 16 18                      0.000705050
  -2178968.005 6  -1697896.038 6  23206086.840    23206105.068    23206104.348
     -2903.049       -2262.048
         0.000 1         0.000 1  20672798.899           0.000           0.000
         0.000           0.000
    394743.784 6    307675.575 6  23850995.190    23851007.361    23851006.162
       965.686         752.420
   -970955.248 6   -756588.976 6  23325832.102    23325841.666    23325840.407
     -1027.589        -800.659
   1102985.157 8    859468.247 7  20998114.788    20998125.041    20998122.432
      1954.698        1523.126
 92  6 13 15 47  3.0000000  0  5  2 19 28 16 18                      0.000705260
  -2187673.881 6  -1704679.841 6  23204430.067    23204448.595    23204447.215
     -2900.943       -2260.455
         0.000 1         0.000 1  20673040.142           0.000           0.000
         0.000           0.000
    397645.474 6    309936.643 6  23851547.737    23851559.819    23851558.020
       968.746         754.894
   -974033.150 6   -758987.347 6  23325246.548    23325256.471    23325254.732
     -1024.398        -798.223
   1108853.553 8    864041.025 7  20999232.324    20999241.737    20999239.489
      1957.515        1525.367
 92  6 13 15 47  6.0000000  0  5  2 19 28 16 18                      0.000705470
  -2196373.404 6  -1711458.675 6  23202778.751    23202792.991    23202791.642
     -2898.708       -2258.752
         0.000 1         0.000 1  20673289.599           0.000           0.000
         0.000           0.000
    400556.379 6    312204.876 6  23852104.901    23852113.146    23852112.066
       971.907         757.288
   -977101.441 6   -761378.230 6  23324661.803    23324672.445    23324671.366
     -1021.081        -795.718
   1114730.498 8    868620.455 7  21000348.391    21000360.263    21000357.745
      1960.451        1527.653
 92  6 13 15 47  9.0000000  0  5  2 19 28 16 18                      0.000705690
  -2205066.521 6  -1718232.527 6  23201127.674    23201138.706    23201137.747
     -2896.536       -2256.992
         0.000 1         0.000 1  20673532.911           0.000           0.000
         0.000           0.000
    403476.460 6    314480.251 6  23852660.507    23852669.141    23852667.942
       975.053         759.656
   -980160.132 6   -763761.617 6  23324074.509    23324090.098    23324088.929
     -1017.833        -793.122
   1120615.976 8    873206.539 7  21001467.607    21001480.228    21001477.829
      1963.338        1529.876
 92  6 13 15 47 12.0000000  0  5  2 19 28 16 18                      0.000705910
  -2213753.217 6  -1725001.371 6  23199479.145    23199485.231    23199484.571
     -2894.561       -2255.432
         0.000 1         0.000 1  20673787.195           0.000           0.000
         0.000           0.000
    406405.753 6    316762.818 6  23853220.699    23853226.155    23853225.286
       977.887         761.984
   -983209.142 6   -766137.465 6  23323493.242    23323509.580    23323508.261
     -1014.775        -790.791
   1126509.994 8    877799.277 7  21002590.119    21002601.781    21002599.353
      1966.007        1531.965
 92  6 13 15 47 15.0000000  0  5  2 19 28 16 18                      0.000706130
  -2222434.058 6  -1731765.667 6  23197830.286    23197833.584    23197833.164
     -2892.512       -2253.986
         0.000 1         0.000 1  20674032.755           0.000           0.000
         0.000           0.000
    409343.781 6    319052.198 6  23853777.743    23853785.118    23853783.919
       980.928         764.318
   -986249.003 6   -768506.204 6  23322917.490    23322930.771    23322929.722
     -1011.674        -788.251
   1132412.035 8    882398.272 7  21003712.213    21003724.924    21003722.406
      1968.789        1534.111
 92  6 13 15 47 18.0000000  0  5  2 19 28 16 18                      0.000706350
  -2231108.596 6  -1738525.042 6  23196177.291    23196183.286    23196182.117
     -2890.578       -2252.385
         0.000 1         0.000 1  20674287.489           0.000           0.000
         0.000           0.000
    412290.928 6    321348.676 6  23854334.848    23854346.300    23854344.681
       983.803         766.640
   -989279.209 6   -770867.402 6  23322342.458    23322354.420    23322353.820
     -1008.544        -785.879
   1138322.586 8    887003.895 7  21004836.374    21004849.685    21004846.957
      1971.491        1536.229
 92  6 13 15 47 21.0000000  0  5  2 19 28 16 18                      0.000706580
  -2239777.067 6  -1745279.684 6  23194521.117    23194533.349    23194532.839
     -2888.459       -2250.665
         0.000 1         0.000 1  20674536.166           0.000           0.000
         0.000           0.000
    415246.957 6    323652.051 6  23854898.937    23854909.010    23854907.481
       986.837         768.978
   -992299.944 6   -773221.208 5  23321769.255    23321779.238    23321778.399
     -1005.318        -783.421
   1144241.401 8    891615.953 7  21005968.001    21005975.826    21005973.337
      1974.393        1538.454
 92  6 13 15 47 24.0000000  0  5  2 19 28 16 18                      0.000706810
  -2248439.139 6  -1752029.346 6  23192871.659    23192885.120    23192884.100
     -2886.330       -2249.106
         0.000 1         0.000 1  20674798.635           0.000           0.000
         0.000           0.000
    418212.168 6    325962.590 6  23855460.298    23855473.789    23855471.840
       989.917         771.357
   -995310.873 6   -775567.375 5  23321197.821    23321206.515    23321205.885
     -1001.996        -780.818
   1150168.757 8    896234.676 7  21007092.882    21007103.945    21007101.366
      1977.180        1540.666
 92  6 13 15 47 27.0000000  0  5  2 19 28 16 18                      0.000707040
  -2257095.042 6  -1758774.198 6  23191221.691    23191238.000    23191236.921
     -2884.281       -2247.492
         0.000 1         0.000 1  20675054.028           0.000           0.000
         0.000           0.000
    421186.316 6    328280.101 6  23856026.726    23856039.707    23856038.029
       992.901         773.704
   -998312.314 6   -777906.170 5  23320622.399    23320635.410    23320633.971
      -998.872        -778.373
   1156104.360 8    900859.812 7  21008220.012    21008233.353    21008231.044
      1979.931        1542.793
 92  6 13 15 47 30.0000000  0  5  2 19 28 16 18                      0.000707270
  -2265744.898 6  -1765514.339 6  23189575.231    23189591.870    23189591.090
     -2882.203       -2245.862
         0.000 1         0.000 1  20675301.507           0.000           0.000
         0.000           0.000
    424169.251 6    330604.445 6  23856594.353    23856607.155    23856605.805
       995.838         775.981
  -1001304.466 6   -780237.715 6  23320052.643    23320065.864    23320065.625
      -995.793        -775.928
   1162048.154 8    905491.342 7  21009354.876    21009364.500    21009362.341
      1982.697        1544.964
 92  6 13 15 47 33.0000000  0  5  2 19 28 16 18                      0.000707500
  -2274388.371 6  -1772249.505 6  23187936.026    23187947.418    23187946.459
     -2880.108       -2244.269
         0.000 1         0.000 1  20675555.131           0.000           0.000
         0.000           0.000
    427161.283 6    332935.912 6  23857165.908    23857177.000    23857175.831
       998.879         778.287
  -1004286.986 6   -782561.750 6  23319485.076    23319498.447    23319497.338
      -992.540        -773.371
   1168000.552 8    910129.574 7  21010489.411    21010497.145    21010494.747
      1985.563        1547.170
 92  6 13 15 47 36.0000000  0  5  2 19 28 16 18                      0.000707740
  -2283025.496 6  -1778979.748 6  23186295.652    23186303.866    23186302.607
     -2878.020       -2242.598
         0.000 1         0.000 1  20675816.490           0.000           0.000
         0.000           0.000
    430162.381 6    335274.445 6  23857737.912    23857747.295    23857746.606
      1001.892         780.734
  -1007259.905 6   -784878.307 6  23318926.053    23318932.709    23318931.959
      -989.449        -770.954
   1173961.566 8    914774.505 7  21011621.547    21011631.620    21011629.162
      1988.415        1549.370
 92  6 13 15 47 39.0000000  0  5  2 19 28 16 18                      0.000707980
  -2291656.080 6  -1785704.862 6  23184649.491    23184661.213    23184660.374
     -2875.841       -2240.949
         0.000 1         0.000 1  20676075.391           0.000           0.000
         0.000           0.000
    433172.840 6    337620.259 6  23858308.627    23858319.899    23858319.149
      1004.893         783.069
  -1010222.993 6   -787187.208 6  23318359.925    23318369.339    23318367.060
      -986.201        -768.462
   1179931.431 8    919426.341 7  21012757.701    21012767.564    21012765.375
      1991.286        1551.656
 92  6 13 15 47 42.0000000  0  5  2 19 28 16 18                      0.000708220
  -2300280.530 6  -1792425.220 6  23183009.327    23183019.879    23183019.370
     -2873.784       -2239.299
         0.000 1         0.000 1  20676338.249           0.000           0.000
         0.000           0.000
    436192.245 6    339973.030 6  23858885.158    23858894.901    23858893.642
      1007.931         785.401
  -1013176.576 6   -789488.703 6  23317794.097    23317807.108    23317805.579
      -982.977        -765.991
   1185909.725 8    924084.748 7  21013892.355    21013905.396    21013902.638
      1994.164        1553.908
 92  6 13 15 47 45.0000000  0  5  2 19 28 16 18                      0.000708470
  -2308898.780 6  -1799140.728 6  23181371.530    23181379.925    23181379.505
     -2871.807       -2237.771
         0.000 1         0.000 1  20676595.711           0.000           0.000
         0.000           0.000
    439220.727 6    342332.878 6  23859462.468    23859470.952    23859469.753
      1010.950         787.771
  -1016120.487 6   -791782.667 6  23317233.515    23317247.126    23317245.537
      -979.784        -763.455
   1191896.593 8    928749.832 7  21015033.455    21015044.517    21015041.999
      1996.991        1556.108
 92  6 13 15 47 48.0000000  0  5  2 19 28 16 18                      0.000708710
  -2317511.311 6  -1805851.793 6  23179731.216    23179741.169    23179740.480
     -2869.865       -2236.287
         0.000 1         0.000 1  20676865.014           0.000           0.000
         0.000           0.000
    442257.881 6    344699.488 6  23860039.748    23860049.282    23860047.753
      1013.842         789.939
  -1019055.172 6   -794069.422 6  23316677.490    23316688.403    23316686.544
      -976.718        -761.097
   1197891.649 8    933421.295 7  21016174.255    21016185.048    21016182.829
      1999.723        1558.211
 92  6 13 15 47 51.0000000  0  5  2 19 28 16 18                      0.000708960
  -2326117.878 6  -1812558.201 6  23178091.201    23178103.133    23178102.354
     -2867.755       -2234.606
         0.000 1         0.000 1  20677125.474           0.000           0.000
         0.000           0.000
    445304.068 6    347073.134 6  23860616.579    23860629.020    23860627.102
      1017.002         792.488
  -1021980.352 6   -796348.792 6  23316123.504    23316131.928    23316130.699
      -973.392        -758.483
   1203895.159 8    938099.363 7  21017315.205    21017327.527    21017325.159
      2002.685        1560.522
 92  6 13 15 47 54.0000000  0  5  2 19 28 16 18                      0.000709210
  -2334717.896 6  -1819259.509 6  23176452.026    23176466.836    23176466.176
     -2865.667       -2232.973
         0.000 1         0.000 1  20677392.919           0.000           0.000
         0.000           0.000
    448359.851 6    349454.263 6  23861198.476    23861210.168    23861208.249
      1020.130         794.866
  -1024895.490 6   -798620.321 6  23315567.479    23315576.922    23315575.453
      -970.071        -755.900
   1209907.703 8    942784.451 7  21018460.023    21018471.745    21018469.167
      2005.628        1562.845
 92  6 13 15 47 57.0000000  0  5  2 19 28 16 18                      0.000709460
  -2343311.749 6  -1825956.011 6  23174818.097    23174831.438    23174831.258
     -2863.659       -2231.348
         0.000 1         0.000 1  20677657.156           0.000           0.000
         0.000           0.000
    451424.970 6    351842.651 6  23861783.701    23861793.294    23861791.885
      1023.245         797.351
  -1027800.914 6   -800884.282 6  23315014.212    23315024.285    23315022.906
      -966.851        -753.410
   1215928.882 8    947476.270 7  21019604.960    21019617.372    21019615.003
      2008.481        1565.041
 92  6 13 15 48  0.0000000  0  5  2 19 28 16 18                      0.000709720
  -2351899.879 6  -1832648.052 6  23173185.967    23173197.179    23173196.580
     -2861.747       -2230.002
         0.000 1         0.000 1  20677924.601           0.000           0.000
         0.000           0.000
    454499.066 6    354238.045 6  23862368.056    23862378.219    23862377.110
      1026.191         799.585
  -1030697.053 6   -803141.020 6  23314462.324    23314473.086    23314471.917
      -963.856        -750.990
   1221958.292 8    952174.505 7  21020752.146    21020764.558    21020762.579
      2011.167        1567.139
 92  6 13 15 48  3.0000000  0  5  2 19 28 16 18                      0.000709980
  -2360481.927 6  -1839335.359 6  23171552.188    23171563.880    23171563.281
     -2859.617       -2228.347
         0.000 1         0.000 1  20678190.996           0.000           0.000
         0.000           0.000
    457582.365 6    356640.623 6  23862952.322    23862964.913    23862963.684
      1029.358         802.087
  -1033583.666 6   -805390.329 6  23313912.654    23313923.896    23313922.997
      -960.614        -748.497
   1227996.210 8    956879.377 7  21021900.561    21021913.632    21021911.264
      2014.092        1569.429
 92  6 13 15 48  6.0000000  0  5  2 19 28 16 18                      0.000710230
  -2369058.053 6  -1846018.046 6  23169916.760    23169931.900    23169931.930
     -2857.658       -2226.765
         0.000 1         0.000 1  20678468.244           0.000           0.000
         0.000           0.000
    460674.689 6    359050.217 6  23863543.213    23863553.795    23863551.667
      1032.365         804.416
  -1036460.936 6   -807632.360 6  23313367.332    23313376.475    23313375.396
      -957.464        -746.002
   1234042.507 8    961590.771 7  21023053.083    21023064.235    21023061.807
      2016.887        1571.613
 92  6 13 15 48  9.0000000  0  5  2 19 28 16 18                      0.000710500
  -2377627.914 7  -1852695.870 6  23168285.949    23168301.269    23168300.909
     -2855.615       -2225.122
         0.000 1         0.000 1  20678734.400           0.000           0.000
         0.000           0.000
    463776.403 6    361467.133 6  23864130.266    23864143.817    23864142.438
      1035.496         806.890
  -1039328.522 6   -809866.848 6  23312819.191    23312830.493    23312829.534
      -954.212        -743.611
   1240097.549 8    966308.980 7  21024201.858    21024216.638    21024214.299
      2019.782        1573.855
 92  6 13 15 48 12.0000000  0  5  2 19 28 16 18                      0.000710760
  -2386191.998 7  -1859369.158 6  23166662.633    23166671.327    23166671.327
     -2853.639       -2223.649
         0.000 1         0.000 1  20679015.126           0.000           0.000
         0.000           0.000
    466887.087 6    363891.026 6  23864724.035    23864736.027    23864734.258
      1038.395         809.114
  -1042186.844 6   -812094.111 6  23312272.639    23312287.059    23312286.040
      -951.200        -741.198
   1246160.810 8    971033.598 7  21025357.918    21025370.299    21025367.991
      2022.487        1575.952
 92  6 13 15 48 15.0000000  0  5  2 19 28 16 18                      0.000711030
  -2394749.735 6  -1866037.524 6  23165034.730    23165043.004    23165042.585
     -2851.496       -2221.962
         0.000 1         0.000 1  20679284.219           0.000           0.000
         0.000           0.000
    470007.231 6    366322.305 6  23865318.973    23865329.796    23865328.837
      1041.623         811.676
  -1045035.348 6   -814313.721 6  23311729.116    23311744.525    23311743.716
      -947.839        -738.663
   1252232.718 8    975764.952 7  21026514.997    21026525.909    21026523.631
      2025.401        1578.261
 92  6 13 15 48 18.0000000  0  5  2 19 28 16 18                      0.000711290
  -2403301.675 6  -1872701.363 6  23163402.750    23163415.611    23163415.101
     -2849.644       -2220.531
         0.000 1         0.000 1  20679561.587           0.000           0.000
         0.000           0.000
    473136.233 6    368760.493 6  23865914.061    23865924.944    23865923.625
      1044.553         813.876
  -1047874.539 6   -816526.083 6  23311191.138    23311204.509    23311203.670
      -944.850        -736.199
   1258312.649 8    980502.560 7  21027669.797    21027682.598    21027680.440
      2028.000        1580.265
 92  6 13 15 48 21.0000000  0  5  2 19 28 16 18                      0.000711570
  -2411847.325 6  -1879360.310 6  23161775.866    23161789.297    23161788.727
     -2847.541       -2218.809
         0.000 1         0.000 1  20679833.859           0.000           0.000
         0.000           0.000
    476274.626 6    371205.980 6  23866513.257    23866522.310    23866520.931
      1047.688         816.330
  -1050703.927 6   -818730.789 6  23310658.677    23310665.902    23310665.212
      -941.448        -733.703
   1264401.079 8    985246.786 7  21028828.375    21028841.206    21028838.898
      2030.883        1582.549
 92  6 13 15 48 24.0000000  0  5  2 19 28 16 18                      0.000711840
  -2420387.366 6  -1886014.873 6  23160151.171    23160164.032    23160164.212
     -2845.899       -2217.500
         0.000 1         0.000 1  20680117.702           0.000           0.000
         0.000           0.000
    479421.738 6    373658.274 6  23867111.672    23867121.446    23867120.067
      1050.355         818.578
  -1053524.208 6   -820928.408 6  23310119.110    23310129.123    23310128.554
      -938.705        -731.436
   1270497.394 8    989997.153 7  21029989.981    21030001.283    21029999.214
      2033.253        1584.350
 92  6 13 15 48 27.0000000  0  5  2 19 28 16 18                      0.000712110
  -2428921.775 6  -1892665.069 6  23158531.182    23158540.086    23158539.727
     -2843.742       -2215.957
         0.000 1         0.000 1  20680382.779           0.000           0.000
         0.000           0.000
    482577.529 6    376117.329 6  23867713.925    23867722.350    23867719.981
      1053.531         820.971
  -1056335.431 6   -823118.968 6  23309581.283    23309594.354    23309593.814
      -935.369        -728.894
   1276601.561 8    994753.633 7  21031151.557    21031163.069    21031160.790
      2036.152        1586.639
 92  6 13 15 48 30.0000000  0  5  2 19 28 16 18                      0.000712390
  -2437449.885 7  -1899310.344 6  23156908.796    23156917.370    23156916.560
     -2841.724       -2214.313
         0.000 1         0.000 1  20680667.942           0.000           0.000
         0.000           0.000
    485742.786 6    378583.762 6  23868314.919    23868324.603    23868322.624
      1056.567         823.389
  -1059136.790 6   -825301.836 6  23309048.761    23309061.083    23309060.093
      -932.230        -726.403
   1282714.252 8    999516.777 7  21032310.464    21032326.054    21032323.835
      2038.892        1588.796
 92  6 13 15 48 33.0000000  0  5  2 19 28 16 18                      0.000712670
  -2445972.085 7  -1905951.015 6  23155289.497    23155296.122    23155294.773
     -2839.714       -2212.698
         0.000 1         0.000 1  20680949.507           0.000           0.000
         0.000           0.000
    488917.185 6    381057.322 6  23868916.633    23868928.385    23868926.196
      1059.700         825.755
  -1061928.725 6   -827477.364 6  23308515.760    23308529.791    23308529.401
      -929.028        -723.930
   1288835.150 8   1004286.301 7  21033477.916    21033490.897    21033489.069
      2041.665        1590.925
 92  6 13 15 48 36.0000000  0  5  2 19 28 16 18                      0.000712950
  -2454488.785 6  -1912587.404 6  23153666.870    23153675.144    23153674.665
     -2837.915       -2211.376
         0.000 1         0.000 1  20681231.401           0.000           0.000
         0.000           0.000
    492100.450 6    383537.792 6  23869521.944    23869533.995    23869532.257
      1062.631         828.018
  -1064711.619 6   -829645.851 6  23307986.597    23308000.027    23307999.548
      -926.063        -721.657
   1294963.881 8   1009061.930 7  21034645.818    21034657.360    21034655.021
      2044.278        1592.940
 92  6 13 15 48 39.0000000  0  5  2 19 28 16 18                      0.000713240
  -2462999.604 6  -1919219.211 6  23152045.862    23152055.575    23152055.126
     -2835.997       -2209.861
         0.000 1         0.000 1  20681512.667           0.000           0.000
         0.000           0.000
    495293.019 6    386025.496 6  23870130.253    23870141.645    23870139.696
      1065.736         830.420
  -1067485.042 6   -831806.982 6  23307459.262    23307472.572    23307471.283
      -922.938        -719.118
   1301100.886 8   1013844.003 7  21035812.040    21035825.141    21035823.013
      2047.050        1595.109
 92  6 13 15 48 42.0000000  0  5  2 19 28 16 18                      0.000713530
  -2471504.985 6  -1925846.768 6  23150422.306    23150437.266    23150436.366
     -2834.285       -2208.546
         0.000 1         0.000 1  20681806.973           0.000           0.000
         0.000           0.000
    498494.470 6    388520.124 6  23870734.934    23870750.553    23870748.994
      1068.588         832.603
  -1070249.487 6   -833961.081 6  23306933.396    23306946.197    23306945.837
      -920.044        -716.994
   1307245.771 8   1018632.225 7  21036981.651    21036994.302    21036992.353
      2049.538        1597.017
 92  6 13 15 48 45.0000000  0  5  2 19 28 16 18                      0.000713810
  -2480004.987 6  -1932470.146 6  23148802.258    23148819.646    23148818.746
     -2832.377       -2207.009
         0.000 1         0.000 1  20682085.690           0.000           0.000
         0.000           0.000
    501704.767 6    391021.650 6  23871349.449    23871361.470    23871360.211
      1071.582         835.032
  -1073004.951 6   -836108.204 6  23306407.200    23306421.860    23306421.440
      -916.979        -714.496
   1313398.443 8   1023426.507 7  21038152.490    21038165.441    21038162.953
      2052.208        1599.114
 92  6 13 15 48 48.0000000  0  5  2 19 28 16 18                      0.000714100
  -2488499.365 6  -1939089.123 6  23147186.826    23147203.345    23147202.325
     -2830.444       -2205.544
         0.000 1         0.000 1  20682376.878           0.000           0.000
         0.000           0.000
    504924.172 6    393530.284 6  23871962.284    23871974.276    23871972.837
      1074.732         837.380
  -1075751.248 6   -838248.157 6  23305886.071    23305899.142    23305898.632
      -913.833        -712.052
   1319559.061 8   1028226.985 7  21039325.068    21039337.660    21039335.441
      2054.935        1601.228
 92  6 13 15 48 51.0000000  0  5  2 19 28 16 18                      0.000714390
  -2496988.157 6  -1945703.769 6  23145576.821    23145587.853    23145586.774
     -2828.539       -2204.078
         0.000 1         0.000 1  20682660.512           0.000           0.000
         0.000           0.000
    508152.672 6    396045.983 6  23872577.578    23872588.611    23872587.292
      1077.787         839.811
  -1078488.434 6   -840381.037 6  23305368.659    23305378.462    23305378.072
      -910.746        -709.716
   1325727.573 8   1033033.613 7  21040500.195    21040511.587    21040508.979
      2057.606        1603.348
 92  6 13 15 48 54.0000000  0  5  2 19 28 16 18                      0.000714690
  -2505470.732 6  -1952313.572 6  23143962.228    23143973.980    23143972.901
     -2826.498       -2202.442
         0.000 1         0.000 1  20682951.341           0.000           0.000
         0.000           0.000
    511390.845 6    398569.229 6  23873196.770    23873205.044    23873203.365
      1080.981         842.237
  -1081215.958 6   -842506.385 6  23304845.611    23304859.342    23304858.562
      -907.534        -707.122
   1331904.571 8   1037846.849 7  21041671.634    21041686.893    21041684.705
      2060.417        1605.499
 92  6 13 15 48 57.0000000  0  5  2 19 28 16 18                      0.000714990
  -2513947.622 6  -1958918.935 6  23142351.084    23142360.737    23142359.958
     -2824.649       -2200.999
         0.000 1         0.000 1  20683253.262           0.000           0.000
         0.000           0.000
    514638.128 6    401099.566 6  23873813.773    23873822.467    23873820.608
      1084.039         844.563
  -1083934.424 6   -844624.659 6  23304332.516    23304341.990    23304341.570
      -904.552        -704.904
   1338089.551 8   1042666.316 7  21042853.116    21042864.148    21042861.450
      2063.041        1607.560
 92  6 13 15 49  0.0000000  0  5  2 19 28 16 18                      0.000715280
  -2522418.883 7  -1965519.904 6  23140741.438    23140748.693    23140747.524
     -2822.889       -2199.650
         0.000 1         0.000 1  20683540.193           0.000           0.000
         0.000           0.000
    517894.355 6    403636.885 6  23874428.107    23874442.857    23874440.938
      1086.864         846.921
  -1086643.889 6   -846735.929 5  23303815.314    23303826.557    23303825.987
      -901.756        -702.645
   1344282.437 8   1047491.934 7  21044031.960    21044042.423    21044040.024
      2065.509        1609.485
 92  6 13 15 49  3.0000000  0  5  2 19 28 16 18                      0.000715580
  -2530884.430 6  -1972116.442 6  23139127.385    23139137.728    23139136.559
     -2820.817       -2198.048
         0.000 1         0.000 1  20683825.596           0.000           0.000
         0.000           0.000
    521159.581 6    406181.220 6  23875054.284    23875064.207    23875061.749
      1089.996         849.361
  -1089344.335 6   -848840.176 5  23303299.432    23303312.712    23303311.783
      -898.547        -700.170
   1350483.218 8   1052323.711 7  21045212.483    21045222.616    21045220.307
      2068.370        1611.674
 92  6 13 15 49  6.0000000  0  5  2 19 28 16 18                      0.000715890
  -2539344.036 6  -1978708.336 6  23137516.301    23137527.933    23137527.003
     -2818.865       -2196.424
         0.000 1         0.000 1  20684122.540           0.000           0.000
         0.000           0.000
    524434.055 6    408732.742 6  23875674.734    23875687.146    23875684.837
      1093.095         851.755
  -1092035.656 6   -850937.305 5  23302785.257    23302800.307    23302800.007
      -895.574        -697.820
   1356692.116 8   1057161.809 7  21046391.267    21046404.038    21046401.699
      2071.011        1613.775
 92  6 13 15 49  9.0000000  0  5  2 19 28 16 18                      0.000716190
  -2547797.718 7  -1985295.606 6  23135911.692    23135918.947    23135918.527
     -2816.856       -2194.985
         0.000 1         0.000 1  20684416.846           0.000           0.000
         0.000           0.000
    527717.711 6    411291.441 6  23876295.814    23876311.943    23876309.695
      1096.145         854.086
  -1094717.883 6   -853027.348 5  23302276.779    23302290.570    23302289.251
      -892.521        -695.543
   1362909.093 8   1062006.201 7  21047575.417    21047586.809    21047584.560
      2073.695        1615.824
 92  6 13 15 49 12.0000000  0  5  2 19 28 16 18                      0.000716500
  -2556245.413 7  -1991878.221 6  23134304.085    23134311.699    23134310.620
     -2814.953       -2193.532
         0.000 1         0.000 1  20684716.609           0.000           0.000
         0.000           0.000
    531010.670 6    413857.373 6  23876926.788    23876938.689    23876936.111
      1099.164         856.448
  -1097390.890 6   -855110.230 5  23301770.760    23301781.582    23301780.143
      -889.593        -693.171
   1369134.215 8   1066856.942 7  21048763.614    21048771.559    21048769.190
      2076.340        1617.907
 92  6 13 15 49 15.0000000  0  5  2 19 28 16 18                      0.000716810
  -2564687.521 7  -1998456.481 6  23132695.728    23132705.381    23132704.122
     -2813.061       -2191.986
         0.000 1         0.000 1  20685009.956           0.000           0.000
         0.000           0.000
    534312.622 6    416430.340 6  23877551.225    23877566.814    23877564.626
      1102.167         858.783
  -1100055.042 6   -857186.177 5  23301263.601    23301274.633    23301273.134
      -886.546        -690.827
   1375367.132 8   1071713.756 7  21049945.906    21049957.538    21049955.199
      2078.956        1619.947
 92  6 13 15 49 18.0000000  0  5  2 19 28 16 18                      0.000717120
  -2573123.734 7  -2005030.163 6  23131088.301    23131099.573    23131098.674
     -2811.027       -2190.392
         0.000 1         0.000 1  20685312.896           0.000           0.000
         0.000           0.000
    537623.834 6    419010.479 6  23878187.325    23878196.648    23878194.940
      1105.342         861.318
  -1102710.015 6   -859254.993 5  23300755.603    23300769.423    23300768.494
      -883.370        -688.368
   1381608.155 8   1076576.886 7  21051131.825    21051145.405    21051142.767
      2081.739        1622.097
 92  6 13 15 49 21.0000000  0  5  2 19 28 16 18                      0.000717440
  -2581554.362 6  -2011599.480 6  23129479.195    23129495.234    23129494.544
     -2809.250       -2188.986
         0.000 1         0.000 1  20685611.069           0.000           0.000
         0.000           0.000
    540944.003 6    421597.637 6  23878819.287    23878828.431    23878827.082
      1108.285         863.598
  -1105356.168 6   -861316.919 5  23300253.720    23300266.011    23300264.363
      -880.534        -686.110
   1387856.948 8   1081446.075 7  21052323.949    21052334.442    21052331.954
      2084.265        1624.062
 92  6 13 15 49 24.0000000  0  5  2 19 28 16 18                      0.000717750
  -2589979.351 6  -2018164.400 6  23127880.911    23127892.303    23127891.434
     -2807.380       -2187.595
         0.000 1         0.000 1  20685912.631           0.000           0.000
         0.000           0.000
    544273.197 6    424191.798 6  23879446.723    23879462.132    23879460.663
      1111.270         865.930
  -1107993.499 6   -863371.984 5  23299751.807    23299764.519    23299762.090
      -877.591        -683.857
   1394113.525 8   1086321.321 7  21053511.697    21053524.978    21053522.550
      2086.861        1626.078
 92  6 13 15 49 27.0000000  0  5  2 19 28 16 18                      0.000718070
  -2598398.650 7  -2024724.884 6  23126277.381    23126290.272    23126288.594
     -2805.488       -2186.092
         0.000 1         0.000 1  20686215.391           0.000           0.000
         0.000           0.000
    547611.414 6    426792.999 6  23880085.521    23880097.363    23880096.553
      1114.259         868.304
  -1110621.969 6   -865420.154 5  23299254.512    23299264.345    23299262.696
      -874.661        -681.528
   1400377.878 8   1091202.635 7  21054704.242    21054717.073    21054714.494
      2089.379        1628.075
 92  6 13 15 49 30.0000000  0  5  2 19 28 16 18                      0.000718390
  -2606812.475 6  -2031281.117 6  23124678.019    23124689.231    23124687.672
     -2803.707       -2184.755
         0.000 1         0.000 1  20686517.222           0.000           0.000
         0.000           0.000
    550958.514 6    429401.122 6  23880723.119    23880734.332    23880732.593
      1117.189         870.529
  -1113241.761 6   -867461.549 5  23298755.627    23298765.760    23298764.111
      -871.831        -679.293
   1406649.782 8   1096089.829 7  21055898.585    21055910.606    21055907.788
      2091.867        1630.005
 92  6 13 15 49 33.0000000  0  5  2 19 28 16 18                      0.000718710
  -2615221.052 7  -2037833.238 6  23123079.705    23123088.819    23123087.919
     -2801.970       -2183.350
         0.000 1         0.000 1  20686819.773           0.000           0.000
         0.000           0.000
    554314.257 6    432015.992 6  23881361.497    23881372.890    23881371.391
      1120.062         872.745
  -1115853.045 6   -869496.312 5  23298258.152    23298268.704    23298266.786
      -869.048        -677.151
   1412929.046 8   1100982.759 7  21057092.208    21057105.489    21057102.941
      2094.303        1631.938
 92  6 13 15 49 36.0000000  0  5  2 19 28 16 18                      0.000719040
  -2623624.126 7  -2044381.083 6  23121479.923    23121489.636    23121488.856
     -2800.012       -2181.870
         0.000 1         0.000 1  20687130.448           0.000           0.000
         0.000           0.000
    557678.910 6    434637.791 6  23882005.362    23882012.767    23882011.957
      1123.129         875.154
  -1118455.587 6   -871524.263 5  23297763.434    23297773.777    23297772.218
      -865.945        -674.833
   1419215.890 8   1105881.590 7  21058292.398    21058302.021    21058299.473
      2096.984        1634.011
 92  6 13 15 49 39.0000000  0  5  2 19 28 16 18                      0.000719360
  -2632021.291 7  -2050924.325 6  23119880.470    23119891.652    23119890.963
     -2798.191       -2180.395
         0.000 1         0.000 1  20687435.456           0.000           0.000
         0.000           0.000
    561052.951 6    437266.915 6  23882642.541    23882655.012    23882653.933
      1126.130         877.486
  -1121049.013 6   -873545.117 5  23297271.924    23297280.318    23297278.610
      -863.094        -672.516
   1425510.671 8   1110786.617 7  21059487.940    21059499.542    21059497.173
      2099.434        1635.911
 92  6 13 15 49 42.0000000  0  5  2 19 28 16 18                      0.000719690
  -2640413.107 7  -2057463.404 6  23118281.587    23118294.598    23118294.178
     -2796.288       -2178.955
         0.000 1         0.000 1  20687750.478           0.000           0.000
         0.000           0.000
    564435.816 6    439902.900 6  23883286.375    23883298.726    23883298.187
      1129.165         879.807
  -1123633.930 6   -875559.338 5  23296775.828    23296788.239    23296786.560
      -860.179        -670.250
   1431812.840 8   1115697.394 7  21060686.870    21060698.922    21060696.613
      2102.013        1637.945
 92  6 13 15 49 45.0000000  0  5  2 19 28 16 18                      0.000720020
  -2648799.589 7  -2063998.315 6  23116686.901    23116698.952    23116698.143
     -2794.620       -2177.623
         0.000 1         0.000 1  20688055.667           0.000           0.000
         0.000           0.000
    567827.475 6    442545.751 6  23883931.079    23883944.209    23883943.070
      1131.921         882.103
  -1126210.431 6   -877566.993 5  23296286.207    23296297.629    23296296.280
      -857.428        -668.171
   1438122.411 8   1120613.940 7  21061885.740    21061899.710    21061897.222
      2104.409        1639.800
 92  6 13 15 49 48.0000000  0  5  2 19 28 16 18                      0.000720350
  -2657180.624 7  -2070528.987 6  23115091.915    23115104.206    23115103.217
     -2792.800       -2176.148
         0.000 1         0.000 1  20688367.631           0.000           0.000
         0.000           0.000
    571228.098 6    445195.583 6  23884577.461    23884591.431    23884590.382
      1135.080         884.451
  -1128778.450 6   -879568.050 5  23295798.354    23295809.147    23295807.378
      -854.580        -665.794
   1444439.496 8   1125536.337 7  21063087.668    21063101.758    21063099.120
      2106.976        1641.789
 92  6 13 15 49 51.0000000  0  5  2 19 28 16 18                      0.000720680
  -2665556.388 7  -2077055.552 6  23113498.068    23113510.180    23113509.370
     -2791.052       -2174.858
         0.000 1         0.000 1  20688678.066           0.000           0.000
         0.000           0.000
    574637.574 6    447852.307 6  23885227.741    23885240.302    23885239.163
      1137.980         886.740
  -1131338.094 6   -881562.574 5  23295312.421    23295322.104    23295320.665
      -851.802        -663.792
   1450763.954 8   1130464.491 7  21064293.133    21064305.155    21064302.937
      2109.370        1643.702
 92  6 13 15 49 54.0000000  0  5  2 19 28 16 18                      0.000721020
  -2673926.843 6  -2083577.977 6  23111908.599    23111917.173    23111916.813
     -2789.260       -2173.414
         0.000 1         0.000 1  20688997.645           0.000           0.000
         0.000           0.000
    578055.997 6    450516.008 6  23885880.299    23885890.852    23885889.143
      1140.970         889.024
  -1133889.238 6   -883550.480 5  23294826.997    23294836.440    23294834.702
      -848.940        -661.574
   1457095.806 8   1135398.391 7  21065493.113    21065510.231    21065507.742
      2111.850        1645.560
 92  6 13 15 49 57.0000000  0  5  2 19 28 16 18                      0.000721350
  -2682292.041 7  -2090096.317 6  23110316.251    23110325.335    23110324.885
     -2787.416       -2171.996
         0.000 1         0.000 1  20689305.412           0.000           0.000
         0.000           0.000
    581483.285 6    453186.622 6  23886532.678    23886542.870    23886541.971
      1143.966         891.423
  -1136431.918 6   -885531.784 5  23294339.744    23294352.275    23294350.956
      -846.082        -659.341
   1463434.870 8   1140337.918 7  21066704.844    21066716.386    21066714.407
      2114.302        1647.500
 92  6 13 15 50  0.0000000  0  5  2 19 28 16 18                      0.000721690
  -2690652.048 7  -2096610.599 6  23108719.766    23108734.366    23108733.916
     -2785.793       -2170.732
         0.000 1         0.000 1  20689620.824           0.000           0.000
         0.000           0.000
    584919.397 6    455864.113 6  23887188.504    23887197.347    23887195.788
      1146.856         893.672
  -1138966.215 6   -887506.566 5  23293856.569    23293870.629    23293868.410
      -843.367        -657.039
   1469781.069 8   1145283.003 7  21067911.538    21067924.070    21067921.761
      2116.569        1649.316
 92  6 13 15 50  3.0000000  0  5  2 19 28 16 18                      0.000722030
  -2699006.482 7  -2103120.547 6  23107125.860    23107144.507    23107144.447
     -2783.867       -2169.212
         0.000 1         0.000 1  20689934.317           0.000           0.000
         0.000           0.000
    588364.672 6    458548.741 6  23887842.021    23887852.394    23887850.955
      1149.976         896.091
  -1141491.763 6   -889474.520 5  23293377.380    23293389.672    23293387.693
      -840.412        -654.799
   1476134.728 8   1150233.897 7  21069119.522    21069132.923    21069130.734
      2119.132        1651.322
 92  6 13 15 50  6.0000000  0  5  2 19 28 16 18                      0.000722380
  -2707355.441 6  -2109626.223 6  23105535.401    23105555.757    23105555.906
     -2782.116       -2167.845
         0.000 1         0.000 1  20690253.805           0.000           0.000
         0.000           0.000
    591818.956 6    461240.385 6  23888494.010    23888509.839    23888508.520
      1152.871         898.402
  -1144008.775 6   -891435.833 5  23292899.841    23292910.663    23292909.404
      -837.643        -652.783
   1482495.711 8   1155190.508 7  21070327.206    21070343.335    21070341.296
      2121.511        1653.154
 92  6 13 15 50  9.0000000  0  5  2 19 28 16 18                      0.000722720
  -2715699.126 6  -2116127.793 6  23103955.075    23103968.176    23103967.666
     -2780.384       -2166.563
         0.000 1         0.000 1  20690570.236           0.000           0.000
         0.000           0.000
    595281.976 6    463938.838 6  23889156.791    23889168.333    23889167.943
      1155.725         900.632
  -1146517.536 6   -893390.700 5  23292420.353    23292433.424    23292431.445
      -834.919        -650.632
   1488863.785 8   1160152.644 7  21071543.974    21071555.126    21071553.057
      2123.810        1654.884
 92  6 13 15 50 12.0000000  0  5  2 19 28 16 18                      0.000723070
  -2724037.711 6  -2122625.397 6  23102368.003    23102381.344    23102381.254
     -2778.538       -2165.080
         0.000 1         0.000 1  20690897.040           0.000           0.000
         0.000           0.000
    598753.488 6    466643.911 6  23889818.673    23889829.225    23889828.536
      1158.697         902.917
  -1149018.222 6   -895339.294 5  23291946.171    23291957.473    23291956.124
      -832.114        -648.431
   1495238.717 8   1165120.120 7  21072756.544    21072768.476    21072766.407
      2126.257        1656.815
 92  6 13 15 50 15.0000000  0  5  2 19 28 16 18                      0.000723420
  -2732370.567 6  -2129118.518 6  23100782.641    23100795.952    23100795.382
     -2776.775       -2163.745
         0.000 1         0.000 1  20691210.473           0.000           0.000
         0.000           0.000
    602234.013 6    469355.997 6  23890482.173    23890491.827    23890490.777
      1161.559         905.109
  -1151510.264 6   -897281.140 5  23291471.900    23291482.962    23291481.463
      -829.351        -646.247
   1501620.990 8   1170093.317 7  21073971.333    21073982.845    21073980.957
      2128.501        1658.609
 92  6 13 15 50 18.0000000  0  5  2 19 28 16 18                      0.000723770
  -2740698.220 7  -2135607.600 6  23099194.041    23099210.949    23099210.619
     -2775.001       -2162.342
         0.000 1         0.000 1  20691534.699           0.000           0.000
         0.000           0.000
    605722.968 6    472074.660 6  23891142.916    23891155.597    23891154.848
      1164.421         907.328
  -1153994.120 6   -899216.618 5  23291001.765    23291010.579    23291009.170
      -826.577        -644.059
   1508009.998 8   1175071.755 7  21075187.621    21075198.773    21075196.675
      2130.815        1660.404
 92  6 13 15 50 21.0000000  0  5  2 19 28 16 18                      0.000724120
  -2749020.157 6  -2142092.212 6  23097612.516    23097627.625    23097626.996
     -2773.060       -2160.827
         0.000 1         0.000 1  20691857.635           0.000           0.000
         0.000           0.000
    609220.779 6    474800.220 6  23891809.744    23891820.957    23891819.847
      1167.359         909.671
  -1156469.383 6   -901145.387 5  23290528.932    23290539.515    23290537.896
      -823.682        -641.874
   1514406.249 8   1180055.848 7  21076405.198    21076415.811    21076413.682
      2133.243        1662.292
 92  6 13 15 50 24.0000000  0  5  2 19 28 16 18                      0.000724480
  -2757336.413 6  -2148572.414 6  23096035.188    23096044.871    23096044.691
     -2771.115       -2159.284
         0.000 1         0.000 1  20692182.640           0.000           0.000
         0.000           0.000
    612727.294 6    477532.567 6  23892480.530    23892488.384    23892486.616
      1170.310         911.973
  -1158936.100 6   -903067.516 6  23290058.378    23290069.950    23290069.350
      -820.794        -639.424
   1520809.640 8   1185045.501 7  21077621.186    21077634.168    21077632.309
      2135.712        1664.197
 92  6 13 15 50 27.0000000  0  5  2 19 28 16 18                      0.000724830
  -2765647.061 7  -2155048.235 6  23094455.911    23094463.256    23094463.256
     -2769.244       -2157.871
         0.000 1         0.000 1  20692505.756           0.000           0.000
         0.000           0.000
    616242.541 6    480271.715 6  23893144.570    23893156.772    23893156.022
      1173.204         914.210
  -1161394.231 6   -904982.929 6  23289587.434    23289601.944    23289600.745
      -817.981        -637.297
   1527220.103 8   1190040.662 7  21078842.571    21078854.083    21078852.014
      2137.995        1666.015
 92  6 13 15 50 30.0000000  0  5  2 19 28 16 18                      0.000725190
  -2773952.217 6  -2161519.776 6  23092880.262    23092882.900    23092882.150
     -2767.451       -2156.462
         0.000 1         0.000 1  20692834.719           0.000           0.000
         0.000           0.000
    619766.409 6    483017.583 6  23893812.628    23893827.737    23893826.058
      1176.113         916.353
  -1163843.907 6   -906891.762 6  23289127.103    23289135.617    23289134.867
      -815.153        -635.174
   1533637.483 8   1195041.215 7  21080064.225    21080075.318    21080073.309
      2140.310        1667.779
 92  6 13 15 50 33.0000000  0  5  2 19 28 16 18                      0.000725560
  -2782251.727 6  -2167986.927 6  23091301.015    23091303.653    23091302.964
     -2765.493       -2154.940
         0.000 1         0.000 1  20693158.015           0.000           0.000
         0.000           0.000
    623298.959 6    485770.215 6  23894488.030    23894499.692    23894498.703
      1178.965         918.677
  -1166285.069 6   -908793.976 6  23288658.707    23288671.238    23288670.459
      -812.334        -632.960
   1540061.890 8   1200047.240 7  21081289.837    21081297.721    21081295.833
      2142.661        1669.605
 92  6 13 15 50 36.0000000  0  5  2 19 28 16 18                      0.000725920
  -2790545.668 7  -2174449.733 6  23089718.411    23089725.456    23089724.916
     -2763.778       -2153.558
         0.000 1         0.000 1  20693488.026           0.000           0.000
         0.000           0.000
    626840.093 6    488529.534 6  23895162.863    23895173.685    23895171.527
      1181.707         920.913
  -1168717.876 6   -910689.667 6  23288200.234    23288208.509    23288208.149
      -809.567        -630.817
   1546493.281 8   1205058.712 7  21082509.602    21082521.744    21082519.675
      2144.944        1671.361
 92  6 13 15 50 39.0000000  0  5  2 19 28 16 18                      0.000726290
  -2798834.039 6  -2180908.200 6  23088138.414    23088147.948    23088147.858
     -2761.899       -2152.111
         0.000 1         0.000 1  20693816.659           0.000           0.000
         0.000           0.000
    630389.745 6    491295.489 6  23895836.167    23895848.968    23895847.499
      1184.618         923.094
  -1171142.430 6   -912578.931 6  23287737.385    23287747.128    23287745.959
      -806.832        -628.690
   1552931.691 8   1210075.650 7  21083735.634    21083747.146    21083744.837
      2147.307        1673.209
 92  6 13 15 50 42.0000000  0  5  2 19 28 16 18                      0.000726650
  -2807116.709 6  -2187362.224 6  23086564.084    23086572.089    23086571.729
     -2759.916       -2150.564
         0.000 1         0.000 1  20694154.405           0.000           0.000
         0.000           0.000
    633948.123 6    494068.252 6  23896514.567    23896526.319    23896524.490
      1187.616         925.449
  -1173558.546 6   -914461.611 6  23287274.715    23287287.187    23287286.887
      -803.891        -626.423
   1559377.335 8   1215098.225 7  21084957.887    21084973.537    21084971.708
      2149.792        1675.147
 92  6 13 15 50 45.0000000  0  5  2 19 28 16 18                      0.000727020
  -2815393.666 6  -2193811.796 6  23084989.754    23084997.159    23084996.889
     -2758.003       -2149.120
         0.000 1         0.000 1  20694482.738           0.000           0.000
         0.000           0.000
    637515.181 6    496847.772 6  23897194.976    23897204.959    23897203.280
      1190.454         927.754
  -1175966.170 6   -916337.686 6  23286815.583    23286829.014    23286828.534
      -801.146        -624.207
   1565830.209 8   1220126.429 7  21086188.416    21086201.606    21086199.418
      2152.144        1677.007
 92  6 13 15 50 48.0000000  0  5  2 19 28 16 18                      0.000727390
  -2823665.032 7  -2200257.010 6  23083407.330    23083423.099    23083422.739
     -2756.324       -2147.741
         0.000 1         0.000 1  20694813.948           0.000           0.000
         0.000           0.000
    641090.882 6    499634.034 6  23897876.344    23897885.338    23897884.139
      1193.223         929.782
  -1178365.355 6   -918207.179 6  23286362.627    23286372.880    23286372.070
      -798.426        -622.151
   1572290.177 8   1225160.171 7  21087419.843    21087431.145    21087428.507
      2154.382        1678.726
 92  6 13 15 50 51.0000000  0  5  2 19 28 16 18                      0.000727770
  -2831930.968 6  -2206697.999 6  23081835.428    23081850.088    23081849.998
     -2754.443       -2146.320
         0.000 1         0.000 1  20695141.831           0.000           0.000
         0.000           0.000
    644675.055 6    502426.889 6  23898559.512    23898567.816    23898566.077
      1196.061         931.965
  -1180756.248 6   -920070.219 6  23285906.462    23285917.435    23285916.925
      -795.644        -619.929
   1578757.035 8   1230199.278 7  21088649.322    21088661.673    21088659.185
      2156.698        1680.552
 92  6 13 15 50 54.0000000  0  5  2 19 28 16 18                      0.000728140
  -2840191.475 6  -2213134.752 6  23080269.222    23080278.426    23080277.856
     -2752.557       -2144.852
         0.000 1         0.000 1  20695478.708           0.000           0.000
         0.000           0.000
    648267.632 6    505226.305 6  23899243.158    23899251.253    23899249.784
      1198.940         934.310
  -1183138.914 6   -921926.838 6  23285453.146    23285463.879    23285463.219
      -792.765        -617.723
   1585230.796 8   1235243.762 7  21089881.349    21089893.640    21089891.362
      2159.106        1682.428
 92  6 13 15 50 57.0000000  3  2
R649                                                        MARKER NAME
--> THIS IS THE START OF A NEW SITE <---                    COMMENT
 92  6 13 15 50 57.0000000  0  5  2 19 28 16 18                      0.000728520
  -2848446.316 6  -2219567.089 6  23078700.798    23078707.243    23078706.884
     -2750.692       -2143.381
         0.000 1         0.000 1  20695810.758           0.000           0.000
         0.000           0.000
    651868.691 6    508032.307 6  23899920.240    23899936.668    23899934.989
      1201.731         936.443
  -1185513.103 6   -923776.877 6  23285000.160    23285012.002    23285011.432
      -789.996        -615.614
   1591711.606 8   1240293.745 7  21091111.877    21091127.047    21091124.858
      2161.444        1684.258
 92  6 13 15 51  0.0000000  0  5  2 19 28 16 18                      0.000728900
  -2856695.635 7  -2225995.124 6  23077122.720    23077137.560    23077136.991
     -2748.811       -2141.943
         0.000 1         0.000 1  20696151.592           0.000           0.000
         0.000           0.000
    655477.998 6    510844.742 6  23900611.591    23900623.253    23900621.754
      1204.496         938.559
  -1187879.039 6   -925620.433 6  23284549.272    23284562.313    23284560.904
      -787.207        -613.376
   1598199.362 8   1245349.131 7  21092349.750    21092361.502    21092359.104
      2163.765        1686.035
 92  6 13 15 51  3.0000000  0  5  2 19 28 16 18                      0.000729280
  -2864939.487 7  -2232418.899 6  23075555.256    23075569.046    23075568.596
     -2746.942       -2140.437
         0.000 1         0.000 1  20696488.499           0.000           0.000
         0.000           0.000
    659095.408 6    513663.503 6  23901302.583    23901312.056    23901310.347
      1207.263         940.720
  -1190236.722 6   -927457.598 6  23284102.042    23284114.033    23284113.224
      -784.411        -611.219
   1604693.891 8   1250409.798 7  21093586.724    21093597.336    21093594.878
      2166.090        1687.846
 92  6 13 15 51  6.0000000  0  5  2 19 28 16 18                      0.000729660
  -2873177.421 6  -2238838.062 6  23073993.757    23074001.701    23074001.191
     -2745.110       -2139.059
         0.000 1         0.000 1  20696826.695           0.000           0.000
         0.000           0.000
    662721.353 6    516488.915 6  23901991.086    23902002.058    23902000.709
      1210.022         942.854
  -1192585.717 6   -929287.979 6  23283656.490    23283667.073    23283665.874
      -781.658        -609.050
   1611195.595 8   1255476.056 7  21094823.757    21094834.490    21094832.301
      2168.377        1689.668
 92  6 13 15 51  9.0000000  0  5  2 19 28 16 18                      0.000730050
  -2881409.548 6  -2245252.700 6  23072425.932    23072434.806    23072434.086
     -2743.023       -2137.387
         0.000 1         0.000 1  20697163.752           0.000           0.000
         0.000           0.000
    666355.694 6    519320.855 6  23902690.232    23902693.709    23902692.001
      1212.991         945.151
  -1194926.180 6   -931111.715 6  23283211.118    23283221.371    23283220.172
      -778.598        -606.668
   1617704.427 8   1260547.869 7  21096061.750    21096073.202    21096070.654
      2170.934        1691.579
 92  6 13 15 51 12.0000000  0  5  2 19 28 16 18                      0.000730440
  -2889636.192 7  -2251663.070 6  23070860.656    23070869.260    23070868.810
     -2741.237       -2136.012
         0.000 1         0.000 1  20697511.001           0.000           0.000
         0.000           0.000
    669998.115 6    522159.107 6  23903377.896    23903386.380    23903385.571
      1215.509         947.180
  -1197258.377 6   -932929.007 6  23282763.528    23282777.648    23282776.329
      -775.957        -604.598
   1624220.133 8   1265625.042 7  21097301.242    21097313.174    21097310.746
      2173.099        1693.341
 92  6 13 15 51 15.0000000  0  5  2 19 28 16 18                      0.000730830
  -2897856.990 6  -2258068.874 6  23069290.493    23069305.032    23069304.073
     -2739.335       -2134.564
         0.000 1         0.000 1  20697846.019           0.000           0.000
         0.000           0.000
    673648.919 6    525003.882 5  23904069.667    23904081.209    23904079.410
      1218.244         949.307
  -1199581.881 6   -934739.527 6  23282324.242    23282335.604    23282334.285
      -773.051        -602.404
   1630743.033 8   1270707.816 7  21098542.473    21098554.525    21098552.126
      2175.466        1695.144
 92  6 13 15 51 18.0000000  0  5  2 19 28 16 18                      0.000731220
  -2906072.124 6  -2264470.277 6  23067730.912    23067741.195    23067740.895
     -2737.444       -2133.064
         0.000 1         0.000 1  20698190.391           0.000           0.000
         0.000           0.000
    677307.897 6    527855.035 6  23904764.856    23904777.297    23904776.308
      1221.028         951.469
  -1201896.805 6   -936543.367 6  23281879.680    23281895.029    23281893.411
      -770.200        -600.127
   1637272.955 8   1275796.063 7  21099786.372    21099797.074    21099794.586
      2177.804        1697.007
 92  6 13 15 51 21.0000000  0  5  2 19 28 16 18                      0.000731610
  -2914281.729 6  -2270867.374 6  23066170.732    23066178.707    23066178.887
     -2735.688       -2131.725
         0.000 1         0.000 1  20698535.122           0.000           0.000
         0.000           0.000
    680974.905 6    530712.436 6  23905463.402    23905474.914    23905474.195
      1223.567         953.414
  -1204203.173 6   -938340.537 6  23281443.092    23281456.283    23281455.294
      -767.463        -597.954
   1643809.742 8   1280889.660 7  21101027.423    21101040.703    21101038.305
      2179.974        1698.702
 92  6 13 15 51 24.0000000  0  5  2 19 28 16 18                      0.000732000
  -2922485.870 6  -2277260.201 6  23064605.006    23064617.597    23064617.627
     -2733.828       -2130.306
         0.000 1         0.000 1  20698882.042           0.000           0.000
         0.000           0.000
    684649.966 6    533576.118 6  23906162.158    23906174.180    23906173.820
      1226.366         955.641
  -1206501.049 6   -940131.081 6  23281008.123    23281018.256    23281017.567
      -764.581        -595.780
   1650353.325 8   1285988.555 7  21102273.300    21102285.891    21102283.193
      2182.256        1700.502
 92  6 13 15 51 27.0000000  0  5  2 19 28 16 18                      0.000732400
  -2930684.638 6  -2283648.846 6  23063045.726    23063057.418    23063057.448
     -2731.981       -2128.848
         0.000 1         0.000 1  20699229.232           0.000           0.000
         0.000           0.000
    688332.922 6    536445.953 5  23906862.264    23906875.694    23906874.465
      1229.046         957.670
  -1208790.519 6   -941915.083 6  23280572.015    23280582.928    23280582.148
      -761.711        -593.568
   1656903.572 8   1291092.636 7  21103518.788    21103532.518    21103530.000
      2184.585        1702.257
 92  6 13 15 51 30.0000000  0  5  2 19 28 16 18                      0.000732800
  -2938877.838 6  -2290033.155 6  23061483.627    23061498.347    23061498.197
     -2730.184       -2127.412
         0.000 1         0.000 1  20699578.070           0.000           0.000
         0.000           0.000
    692023.975 6    539322.105 6  23907565.517    23907577.958    23907577.029
      1231.687         959.712
  -1211071.316 6   -943692.324 6  23280136.507    23280148.678    23280148.049
      -758.852        -591.394
   1663460.702 8   1296202.084 7  21104767.304    21104780.255    21104777.706
      2186.821        1704.011
 92  6 13 15 51 33.0000000  0  5  2 19 28 16 18                      0.000733200
  -2947065.474 6  -2296413.127 6  23059925.486    23059940.326    23059940.505
     -2728.273       -2125.948
         0.000 1         0.000 1  20699922.622           0.000           0.000
         0.000           0.000
    695723.207 6    542204.615 5  23908273.087    23908281.721    23908280.432
      1234.475         961.917
  -1213343.494 6   -945462.845 6  23279707.864    23279716.348    23279715.268
      -755.944        -589.036
   1670024.699 8   1301316.883 7  21106016.659    21106029.370    21106027.002
      2189.157        1705.845
 92  6 13 15 51 36.0000000  0  5  2 19 28 16 18                      0.000733600
  -2955247.401 6  -2302788.646 6  23058372.141    23058383.263    23058383.293
     -2726.379       -2124.483
         0.000 1         0.000 1  20700274.098           0.000           0.000
         0.000           0.000
    699430.774 6    545093.624 5  23908976.310    23908987.702    23908986.233
      1237.254         964.090
  -1215606.923 6   -947226.565 6  23279276.612    23279285.336    23279284.647
      -753.071        -586.782
   1676595.766 8   1306437.193 7  21107265.654    21107279.744    21107277.286
      2191.493        1707.668
 92  6 13 15 51 39.0000000  0  5  2 19 28 16 18                      0.000734000
  -2963423.681 6  -2309159.769 6  23056817.148    23056827.401    23056827.251
     -2724.498       -2122.989
         0.000 1         0.000 1  20700619.429           0.000           0.000
         0.000           0.000
    703146.552 6    547989.039 5  23909683.401    23909694.313    23909692.604
      1239.950         966.170
  -1217861.710 6   -948983.532 6  23278844.641    23278856.543    23278855.614
      -750.152        -584.572
   1683173.844 8   1311562.968 7  21108518.966    21108531.288    21108528.979
      2193.840        1709.471
 92  6 13 15 51 42.0000000  0  5  2 19 28 16 18                      0.000734410
  -2971594.315 6  -2315526.493 6  23055260.146    23055272.347    23055272.677
     -2722.708       -2121.570
         0.000 1         0.000 1  20700975.103           0.000           0.000
         0.000           0.000
    706870.529 6    550890.831 6  23910390.371    23910402.783    23910401.404
      1242.574         968.286
  -1220107.860 6   -950733.785 6  23278417.377    23278428.889    23278428.289
      -747.435        -582.335
   1689758.891 8   1316694.164 7  21109771.859    21109784.720    21109782.532
      2196.071        1711.207
 92  6 13 15 51 45.0000000  0  5  2 19 28 16 18                      0.000734820
  -2979759.422 6  -2321888.904 6  23053703.443    23053718.883    23053718.793
     -2720.677       -2120.005
         0.000 1         0.000 1  20701324.661           0.000           0.000
         0.000           0.000
    710602.608 6    553798.944 5  23911098.601    23911112.901    23911111.192
      1245.433         970.553
  -1222345.390 6   -952477.309 6  23277992.571    23278003.484    23278001.955
      -744.274        -579.892
   1696350.780 8   1321830.702 7  21111025.291    21111039.262    21111036.564
      2198.570        1713.167
 92  6 13 15 51 48.0000000  0  5  2 19 28 16 18                      0.000735220
  -2987918.950 6  -2328246.971 6  23052149.949    23052166.018    23052166.048
     -2719.028       -2118.683
         0.000 1         0.000 1  20701679.256           0.000           0.000
         0.000           0.000
    714342.909 6    556713.448 5  23911812.467    23911824.368    23911822.810
      1248.096         972.433
  -1224574.127 6   -954213.986 6  23277564.947    23277579.547    23277578.228
      -741.552        -577.799
   1702949.597 8   1326972.629 7  21112281.931    21112294.882    21112292.334
      2200.710        1714.820
 92  6 13 15 51 51.0000000  0  5  2 19 28 16 18                      0.000735630
  -2996073.100 6  -2334600.851 6  23050602.690    23050614.262    23050614.022
     -2717.166       -2117.270
         0.000 1         0.000 1  20702029.024           0.000           0.000
         0.000           0.000
    718091.311 6    559634.279 5  23912528.581    23912537.785    23912535.866
      1250.762         974.647
  -1226794.192 6   -955943.904 6  23277148.685    23277156.840    23277156.000
      -738.608        -575.530
   1709555.294 8   1332119.921 7  21113537.972    21113551.942    21113549.334
      2203.024        1716.684
 92  6 13 15 51 54.0000000  0  5  2 19 28 16 18                      0.000736050
  -3004222.115 6  -2340950.734 6  23049053.242    23049063.885    23049063.226
     -2715.420       -2115.873
         0.000 1         0.000 1  20702387.126           0.000           0.000
         0.000           0.000
    721847.551 6    562561.212 5  23913246.374    23913252.520    23913250.991
      1253.520         976.794
  -1229005.836 6   -957667.267 6  23276726.578    23276735.901    23276735.002
      -735.742        -573.287
   1716167.651 8   1337272.407 7  21114796.201    21114810.231    21114807.653
      2205.312        1718.459
 92  6 13 15 51 57.0000000  0  5  2 19 28 16 18                      0.000736470
  -3012365.596 6  -2347296.291 6  23047504.545    23047514.138    23047513.928
     -2713.604       -2114.543
         0.000 1         0.000 1  20702740.761           0.000           0.000
         0.000           0.000
    725612.123 6    565494.628 5  23913956.942    23913968.784    23913967.825
      1256.201         978.868
  -1231208.660 6   -959383.745 6  23276310.795    23276316.431    23276315.952
      -732.847        -571.070
   1722787.102 8   1342430.413 7  21116056.798    21116069.659    21116067.231
      2207.614        1720.217
 92  6 13 15 52  0.0000000  0  5  2 19 28 16 18                      0.000736880
  -3020503.641 6  -2353637.621 6  23045953.988    23045965.260    23045965.230
     -2711.722       -2113.009
         0.000 1         0.000 1  20703098.833           0.000           0.000
         0.000           0.000
    729384.922 6    568434.469 6  23914672.697    23914687.147    23914686.637
      1259.061         981.066
  -1233402.807 6   -961093.475 6  23275885.929    23275899.030    23275898.641
      -729.839        -568.772
   1729413.504 8   1347593.846 7  21117316.976    21117330.826    21117328.128
      2210.030        1722.104
 92  6 13 15 52  3.0000000  0  5  2 19 28 16 18                      0.000737300
  -3028636.294 6  -2359974.751 6  23044408.348    23044417.672    23044417.462
     -2709.937       -2111.682
         0.000 1         0.000 1  20703458.104           0.000           0.000
         0.000           0.000
    733165.877 6    571380.657 5  23915392.408    23915407.098    23915405.449
      1261.761         983.291
  -1235588.309 6   -962796.460 6  23275467.539    23275483.278    23275482.559
      -727.007        -566.480
   1736046.851 8   1352762.679 7  21118580.151    21118593.102    21118590.524
      2212.317        1723.904
 92  6 13 15 52  6.0000000  0  5  2 19 28 16 18                      0.000737720
  -3036763.428 6  -2366307.577 6  23042860.550    23042871.222    23042871.042
     -2708.089       -2110.269
         0.000 1         0.000 1  20703818.125           0.000           0.000
         0.000           0.000
    736955.174 6    574333.346 6  23916113.139    23916127.919    23916126.990
      1264.520         985.344
  -1237764.927 6   -964492.523 6  23275056.494    23275068.755    23275068.335
      -724.042        -564.097
   1742687.345 8   1357937.085 7  21119842.008    21119856.697    21119854.389
      2214.699        1725.767
 92  6 13 15 52  9.0000000  0  5  2 19 28 16 18                      0.000738150
  -3044885.251 6  -2372636.266 6  23041315.989    23041325.762    23041325.642
     -2706.338       -2108.900
         0.000 1         0.000 1  20704172.779           0.000           0.000
         0.000           0.000
    740752.620 6    577292.401 6  23916839.686    23916850.719    23916849.670
      1267.270         987.381
  -1239932.818 6   -966181.782 6  23274644.399    23274656.481    23274655.761
      -721.190        -561.996
   1749334.779 8   1363116.901 7  21121106.322    21121121.792    21121119.213
      2216.970        1727.499
 92  6 13 15 52 12.0000000  0  5  2 19 28 16 18                      0.000738570
  -3053001.620 6  -2378960.705 6  23039768.011    23039781.441    23039780.902
     -2704.687       -2107.500
         0.000 1         0.000 1  20704538.436           0.000           0.000
         0.000           0.000
    744558.322 6    580257.869 6  23917565.784    23917574.987    23917574.058
      1269.824         989.371
  -1242091.849 6   -967864.150 6  23274231.735    23274245.075    23274244.836
      -718.333        -559.724
   1755989.262 8   1368302.212 7  21122375.284    21122388.115    21122385.777
      2219.215        1729.239
 92  6 13 15 52 15.0000000  0  5  2 19 28 16 18                      0.000739000
  -3061112.691 6  -2385281.014 6  23038226.538    23038237.570    23038237.690
     -2702.699       -2105.977
         0.000 1         0.000 1  20704894.530           0.000           0.000
         0.000           0.000
    748372.054 6    583229.599 6  23918295.539    23918300.815    23918299.586
      1272.668         991.762
  -1244242.184 6   -969539.721 6  23273827.435    23273836.428    23273835.859
      -715.222        -557.288
   1762650.647 8   1373492.896 7  21123641.637    21123655.608    21123653.449
      2221.734        1731.235
 92  6 13 15 52 18.0000000  0  5  2 19 28 16 18                      0.000739430
  -3069218.519 6  -2391597.240 6  23036685.275    23036695.348    23036695.078
     -2701.177       -2104.807
         0.000 1         0.000 1  20705263.664           0.000           0.000
         0.000           0.000
    752193.704 6    586207.510 6  23919016.989    23919027.902    23919026.313
      1275.124         993.623
  -1246383.930 6   -971208.613 6  23273418.608    23273429.160    23273427.811
      -712.598        -555.259
   1769318.896 8   1378688.935 7  21124911.678    21124924.449    21124922.171
      2223.819        1732.859
 92  6 13 15 52 21.0000000  0  5  2 19 28 16 18                      0.000739860
  -3077319.315 6  -2397909.541 6  23035144.641    23035153.635    23035153.335
     -2699.354       -2103.410
         0.000 1         0.000 1  20705624.524           0.000           0.000
         0.000           0.000
    756023.107 6    589191.444 6  23919744.765    23919756.937    23919754.988
      1277.798         995.739
  -1248517.349 6   -972871.015 6  23273003.005    23273023.001    23273021.952
      -709.660        -552.972
   1775993.876 8   1383890.207 7  21126183.757    21126194.580    21126192.241
      2226.191        1734.709
 92  6 13 15 52 24.0000000  0  5  2 19 28 16 18                      0.000740290
  -3085414.495 6  -2404217.471 6  23033598.881    23033613.241    23033612.912
     -2697.530       -2101.965
         0.000 1         0.000 1  20705989.822           0.000           0.000
         0.000           0.000
    759860.772 6    592181.841 6  23920470.893    23920487.081    23920485.463
      1280.548         997.875
  -1250641.799 6   -974526.435 6  23272605.361    23272618.611    23272618.162
      -706.700        -550.723
   1782676.208 8   1389097.221 7  21127452.449    21127466.209    21127463.901
      2228.639        1736.570
 92  6 13 15 52 27.0000000  0  5  2 19 28 16 18                      0.000740730
  -3093504.665 6  -2410521.497 6  23032059.507    23032074.197    23032073.927
     -2695.834       -2100.672
         0.000 1         0.000 1  20706352.750           0.000           0.000
         0.000           0.000
    763706.144 6    595178.218 6  23921206.733    23921218.605    23921217.076
      1283.134         999.758
  -1252757.869 6   -976175.314 6  23272205.258    23272215.990    23272215.271
      -703.927        -548.479
   1789365.357 8   1394309.532 7  21128728.666    21128739.338    21128736.550
      2230.870        1738.356
 92  6 13 15 52 30.0000000  0  5  2 19 28 16 18                      0.000741160
  -3101589.475 6  -2416821.339 6  23030524.929    23030535.482    23030535.062
     -2694.104       -2099.319
         0.000 1         0.000 1  20706723.114           0.000           0.000
         0.000           0.000
    767559.611 6    598180.917 6  23921935.139    23921952.347    23921950.758
      1285.726        1001.927
  -1254865.150 6   -977817.355 6  23271805.694    23271815.347    23271813.699
      -701.018        -546.232
   1796061.644 8   1399527.423 7  21130001.704    21130013.546    21130011.208
      2233.222        1740.177
 92  6 13 15 52 33.0000000  0  5  2 19 28 16 18                      0.000741600
  -3109669.138 6  -2423117.178 6  23028988.493    23028998.056    23028997.427
     -2692.423       -2097.998
         0.000 1         0.000 1  20707088.411           0.000           0.000
         0.000           0.000
    771421.012 6    601189.791 6  23922667.292    23922687.618    23922685.220
      1288.417        1003.926
  -1256963.755 6   -979452.630 6  23271406.910    23271415.964    23271414.855
      -698.200        -543.966
   1802764.936 8   1404750.757 7  21131275.642    21131289.043    21131286.495
      2235.543        1741.998
 92  6 13 15 52 36.0000000  0  5  2 19 28 16 18                      0.000742040
  -3117743.743 6  -2429409.067 6  23027448.729    23027460.901    23027460.781
     -2690.564       -2096.528
         0.000 1         0.000 1  20707461.323           0.000           0.000
         0.000           0.000
    775290.343 6    604204.849 6  23923411.227    23923423.758    23923421.900
      1291.287        1006.192
  -1259053.765 6   -981081.206 6  23271008.126    23271018.469    23271017.090
      -695.140        -541.641
   1809475.198 8   1409979.533 7  21132551.019    21132565.799    21132563.671
      2238.045        1743.923
 92  6 13 15 52 39.0000000  0  5  2 19 28 16 18                      0.000742480
  -3125812.975 6  -2435696.786 6  23025914.421    23025925.424    23025925.843
     -2688.888       -2095.235
         0.000 1         0.000 1  20707826.260           0.000           0.000
         0.000           0.000
    779168.025 6    607226.410 6  23924151.265    23924161.668    23924160.288
      1293.913        1008.286
  -1261134.928 6   -982702.889 6  23270610.961    23270622.473    23270620.854
      -692.282        -539.493
   1816192.873 8   1415214.075 7  21133828.765    21133844.234    21133841.806
      2240.421        1745.799
 92  6 13 15 52 42.0000000  0  5  2 19 28 16 18                      0.000742920
  -3133877.089 6  -2441980.504 6  23024378.824    23024391.266    23024390.936
     -2687.179       -2093.946
         0.000 1         0.000 1  20708202.380           0.000           0.000
         0.000           0.000
    783053.899 6    610254.357 6  23924890.163    23924901.046    23924899.936
      1296.639        1010.447
  -1263207.488 6   -984317.873 6  23270210.828    23270228.006    23270226.148
      -689.400        -537.200
   1822917.798 8   1420454.269 7  21135110.258    21135124.078    21135121.680
      2242.866        1747.655
 92  6 13 15 52 45.0000000  0  5  2 19 28 16 18                      0.000743370
  -3141936.157 6  -2448260.290 6  23022847.304    23022857.527    23022857.198
     -2685.407       -2092.514
         0.000 1         0.000 1  20708568.876           0.000           0.000
         0.000           0.000
    786947.904 6    613288.647 6  23925625.194    23925641.593    23925640.574
      1299.461        1012.609
  -1265271.498 6   -985926.201 6  23269821.308    23269835.368    23269833.599
      -686.485        -534.888
   1829649.969 8   1425700.117 7  21136390.701    21136405.061    21136402.783
      2245.388        1749.629
 92  6 13 15 52 48.0000000  0  5  2 19 28 16 18                      0.000743810
  -3149990.325 6  -2454536.260 6  23021312.427    23021324.838    23021324.958
     -2683.902       -2091.321
         0.000 1         0.000 1  20708940.739           0.000           0.000
         0.000           0.000
    790849.885 6    616329.138 6  23926375.095    23926384.089    23926383.100
      1302.011        1014.518
  -1267327.083 6   -987527.946 6  23269433.946    23269443.779    23269442.550
      -683.771        -532.820
   1836389.243 8   1430951.502 7  21137670.995    21137687.244    21137684.905
      2247.647        1751.410
 92  6 13 15 52 51.0000000  0  5  2 19 28 16 18                      0.000744260
  -3158039.419 6  -2460808.274 6  23019785.134    23019793.229    23019793.259
     -2682.230       -2090.085
         0.000 1         0.000 1  20709315.209           0.000           0.000
         0.000           0.000
    794759.947 6    619375.940 6  23927116.602    23927128.084    23927127.215
      1304.664        1016.637
  -1269374.100 6   -989123.017 6  23269040.618    23269054.199    23269053.330
      -680.990        -530.589
   1843135.869 8   1436208.602 7  21138956.475    21138971.135    21138969.096
      2250.032        1753.239
 92  6 13 15 52 54.0000000  0  5  2 19 28 16 18                      0.000744710
  -3166083.586 6  -2467076.441 6  23018253.735    23018262.848    23018262.249
     -2680.477       -2088.713
         0.000 1         0.000 1  20709687.971           0.000           0.000
         0.000           0.000
    798678.002 6    622428.956 6  23927861.106    23927873.248    23927872.858
      1307.419        1018.838
  -1271412.614 6   -990711.474 6  23268652.357    23268666.507    23268665.038
      -678.058        -528.344
   1849889.711 8   1441471.333 7  21140242.315    21140256.315    21140254.067
      2252.554        1755.219
 92  6 13 15 52 57.0000000  0  5  2 19 28 16 18                      0.000745160
  -3174122.467 6  -2473340.504 6  23016717.178    23016732.947    23016732.468
     -2678.810       -2087.401
         0.000 1         0.000 1  20710062.472           0.000           0.000
         0.000           0.000
    802604.488 6    625488.560 6  23928609.718    23928620.451    23928618.712
      1310.215        1020.903
  -1273442.167 6   -992292.943 6  23268264.366    23268280.045    23268278.966
      -675.096        -526.021
   1856651.228 8   1446740.042 7  21141532.022    21141542.994    21141540.776
      2255.042        1757.172
 92  6 13 15 53  0.0000000  0  5  2 19 28 16 18                      0.000745610
  -3182156.613 6  -2479600.869 6  23015187.817    23015203.706    23015203.616
     -2677.157       -2086.128
         0.000 1         0.000 1  20710441.530           0.000           0.000
         0.000           0.000
    806538.966 6    628554.386 6  23929358.450    23929369.302    23929367.204
      1312.912        1023.004
  -1275463.137 6   -993867.725 6  23267882.040    23267895.891    23267894.212
      -672.166        -523.758
   1863419.914 8   1452014.343 7  21142818.581    21142831.382    21142829.134
      2257.512        1759.094
 92  6 13 15 53  3.0000000  0  5  2 19 28 16 18                      0.000746070
  -3190186.059 6  -2485857.579 6  23013663.043    23013676.024    23013675.904
     -2675.689       -2084.982
         0.000 1         0.000 1  20710819.688           0.000           0.000
         0.000           0.000
    810481.411 6    631626.409 6  23930110.030    23930119.293    23930118.424
      1315.494        1025.060
  -1277475.532 6   -995435.830 6  23267498.246    23267512.546    23267511.887
      -669.432        -521.618
   1870195.715 8   1457294.175 7  21144106.580    21144120.580    21144118.272
      2259.770        1760.856
 92  6 13 15 53  6.0000000  0  5  2 19 28 16 18                      0.000746520
  -3198211.240 7  -2492110.959 6  23012142.615    23012148.911    23012148.581
     -2674.310       -2083.854
         0.000 1         0.000 1  20711202.943           0.000           0.000
         0.000           0.000
    814431.368 6    634704.298 6  23930857.262    23930871.203    23930870.063
      1317.941        1026.955
  -1279479.803 6   -996997.601 6  23267119.368    23267131.450    23267130.071
      -666.686        -519.458
   1876978.195 8   1462579.227 7  21145397.726    21145411.306    21145409.328
      2261.974        1762.622
 92  6 13 15 53  9.0000000  0  5  2 19 28 16 18                      0.000746980
  -3206231.637 7  -2498360.607 6  23010611.635    23010622.607    23010622.188
     -2672.770       -2082.670
         0.000 1         0.000 1  20711578.882           0.000           0.000
         0.000           0.000
    818389.299 6    637788.395 6  23931605.964    23931624.311    23931623.622
      1320.515        1029.004
  -1281475.565 6   -998552.733 6  23266738.182    23266751.403    23266749.724
      -663.946        -517.316
   1883767.819 8   1467869.836 7  21146688.542    21146703.292    21146700.864
      2264.278        1764.392
 92  6 13 15 53 12.0000000  0  5  2 19 28 16 18                      0.000747440
  -3214247.309 6  -2504606.583 6  23009087.880    23009097.203    23009096.814
     -2671.076       -2081.395
         0.000 1         0.000 1  20711963.666           0.000           0.000
         0.000           0.000
    822355.063 6    640878.602 6  23932365.818    23932379.039    23932378.109
      1323.181        1031.109
  -1283462.922 6  -1000101.319 6  23266361.523    23266373.095    23266372.406
      -661.079        -515.152
   1890564.527 8   1473165.965 7  21147981.847    21147996.747    21147994.408
      2266.757        1766.260
 92  6 13 15 53 15.0000000  0  5  2 19 28 16 18                      0.000747900
  -3222258.112 7  -2510848.760 6  23007564.125    23007573.238    23007572.219
     -2669.510       -2080.158
         0.000 1         0.000 1  20712340.625           0.000           0.000
         0.000           0.000
    826328.804 6    643975.019 6  23933123.783    23933135.355    23933135.055
      1325.804        1033.114
  -1285441.735 6  -1001643.263 6  23265981.326    23265996.586    23265995.626
      -658.270        -512.952
   1897368.506 8   1478467.762 7  21149277.520    21149291.640    21149289.452
      2269.126        1768.155
 92  6 13 15 53 18.0000000  0  5  2 19 28 16 18                      0.000748360
  -3230264.249 7  -2517087.297 6  23006036.173    23006049.363    23006049.034
     -2667.885       -2078.864
         0.000 1         0.000 1  20712725.019           0.000           0.000
         0.000           0.000
    830310.460 6    647077.606 6  23933875.693    23933893.171    23933893.081
      1328.582        1035.230
  -1287412.134 6  -1003178.635 6  23265613.391    23265621.755    23265620.856
      -655.327        -510.588
   1904179.605 8   1483775.110 7  21150571.784    21150587.493    21150585.364
      2271.602        1770.061
 92  6 13 15 53 21.0000000  0  5  2 19 28 16 18                      0.000748820
  -3238265.385 6  -2523321.948 6  23004513.137    23004526.927    23004526.388
     -2666.274       -2077.678
         0.000 1         0.000 1  20713105.156           0.000           0.000
         0.000           0.000
    834300.458 6    650186.696 6  23934638.634    23934652.005    23934651.945
      1331.367        1037.329
  -1289373.761 6  -1004707.170 6  23265236.672    23265248.124    23265247.674
      -652.530        -508.459
   1910998.226 8   1489088.315 7  21151869.765    21151885.175    21151882.746
      2274.028        1771.954
 92  6 13 15 53 24.0000000  0  5  2 19 28 16 18                      0.000749290
  -3246262.083 7  -2529553.132 6  23002991.480    23003005.391    23003004.431
     -2664.714       -2076.410
         0.000 1         0.000 1  20713495.366           0.000           0.000
         0.000           0.000
    838298.301 6    653301.884 6  23935395.131    23935412.309    23935412.579
      1333.939        1039.408
  -1291327.177 6  -1006229.307 6  23264866.578    23264876.381    23264875.782
      -649.737        -506.296
   1917823.778 8   1494406.927 7  21153172.513    21153184.115    21153181.807
      2276.396        1773.794
 92  6 13 15 53 27.0000000  0  5  2 19 28 16 18                      0.000749750
  -3254254.116 6  -2535780.680 6  23001469.344    23001484.394    23001483.734
     -2663.260       -2075.268
         0.000 1         0.000 1  20713879.160           0.000           0.000
         0.000           0.000
    842304.199 6    656423.361 6  23936168.895    23936174.951    23936174.981
      1336.640        1041.515
  -1293272.184 6  -1007744.900 6  23264493.636    23264506.227    23264505.718
      -646.912        -504.126
   1924656.528 8   1499731.144 7  21154473.193    21154484.285    21154481.887
      2278.789        1775.693
 92  6 13 15 53 30.0000000  0  5  2 19 28 16 18                      0.000750220
  -3262241.379 7  -2542004.518 6  22999945.049    22999964.266    22999963.756
     -2661.573       -2073.915
         0.000 1         0.000 1  20714262.804           0.000           0.000
         0.000           0.000
    846318.336 6    659551.250 6  23936928.929    23936938.672    23936938.522
      1339.498        1043.732
  -1295208.633 6  -1009253.818 6  23264124.981    23264137.633    23264137.423
      -644.026        -501.772
   1931496.597 8   1505061.063 7  21155770.155    21155786.014    21155783.616
      2281.287        1777.606
 92  6 13 15 53 33.0000000  0  5  2 19 28 16 18                      0.000750680
  -3270223.987 7  -2548224.723 6  22998428.669    22998444.828    22998444.768
     -2660.057       -2072.735
         0.000 1         0.000 1  20714650.196           0.000           0.000
         0.000           0.000
    850340.520 6    662685.414 6  23937690.971    23937704.192    23937704.402
      1342.129        1045.835
  -1297136.640 6  -1010756.151 6  23263759.564    23263771.016    23263770.687
      -641.239        -499.682
   1938343.805 8   1510396.545 7  21157071.194    21157089.002    21157086.724
      2283.650        1779.460
 92  6 13 15 53 36.0000000  0  5  2 19 28 16 18                      0.000751150
  -3278201.714 7  -2554441.132 6  22996917.146    22996927.219    22996926.559
     -2658.400       -2071.502
         0.000 1         0.000 1  20715042.504           0.000           0.000
         0.000           0.000
    854370.907 6    665825.969 6  23938454.183    23938471.331    23938471.391
      1344.887        1047.948
  -1299056.131 6  -1012251.863 6  23263396.006    23263405.779    23263405.390
      -638.397        -497.466
   1945198.278 8   1515737.689 7  21158380.778    21158393.339    21158391.001
      2286.048        1781.337
 92  6 13 15 53 39.0000000  0  5  2 19 28 16 18                      0.000751630
  -3286174.672 7  -2560653.811 6  22995399.986    22995410.059    22995409.010
     -2656.847       -2070.274
         0.000 1         0.000 1  20715427.018           0.000           0.000
         0.000           0.000
    858409.496 6    668972.906 6  23939227.168    23939240.539    23939240.269
      1347.557        1050.045
  -1300967.242 6  -1013741.034 6  23263032.208    23263042.071    23263041.591
      -635.614        -495.306
   1952059.883 8   1521084.390 7  21159688.023    21159699.115    21159696.447
      2288.388        1783.182
 92  6 13 15 53 42.0000000  0  5  2 19 28 16 18                      0.000752100
  -3294142.911 7  -2566862.834 6  22993880.068    22993893.739    22993893.289
     -2655.221       -2068.993
         0.000 1         0.000 1  20715819.117           0.000           0.000
         0.000           0.000
    862456.306 6    672126.255 6  23940000.063    23940010.436    23940010.256
      1350.411        1052.284
  -1302870.071 6  -1015223.760 6  23262663.793    23262680.132    23262679.412
      -632.804        -493.142
   1958928.596 8   1526436.629 7  21160992.989    21161006.180    21161003.722
      2290.839        1785.078
 92  6 13 15 53 45.0000000  0  5  2 19 28 16 18                      0.000752580
  -3302106.413 7  -2573068.143 6  22992366.236    22992378.138    22992377.718
     -2653.859       -2067.911
         0.000 1         0.000 1  20716205.040           0.000           0.000
         0.000           0.000
    866511.379 6    675286.049 6  23940768.521    23940781.742    23940781.922
      1352.920        1054.231
  -1304764.678 6  -1016700.077 6  23262308.419    23262319.451    23262318.792
      -630.282        -491.134
   1965804.493 8   1531794.468 7  21162299.845    21162314.355    21162312.106
      2293.052        1786.789
 92  6 13 15 53 48.0000000  0  5  2 19 28 16 18                      0.000753050
  -3310065.232 7  -2579269.818 6  22990849.586    22990863.886    22990863.556
     -2652.061       -2066.541
         0.000 1         0.000 1  20716601.365           0.000           0.000
         0.000           0.000
    870574.562 6    678452.150 6  23941542.105    23941554.876    23941554.577
      1355.831        1056.510
  -1306651.226 6  -1018170.117 6  23261948.488    23261960.810    23261959.281
      -627.413        -488.871
   1972687.538 8   1537157.876 7  21163609.458    21163624.358    21163621.929
      2295.606        1788.819
 92  6 13 15 53 51.0000000  0  5  2 19 28 16 18                      0.000753530
  -3318019.146 7  -2585467.671 6  22989338.392    22989349.964    22989349.634
     -2650.588       -2065.341
         0.000 1         0.000 1  20716992.025           0.000           0.000
         0.000           0.000
    874646.125 6    681624.797 6  23942312.782    23942329.300    23942329.930
      1358.432        1058.587
  -1308529.474 6  -1019633.679 6  23261588.707    23261603.637    23261602.588
      -624.783        -486.879
   1979577.978 8   1542527.045 7  21164922.279    21164935.740    21164933.282
      2297.997        1790.621
 92  6 13 15 53 54.0000000  0  5  2 19 28 16 18                      0.000754010
  -3325968.262 7  -2591661.774 6  22987820.153    22987837.541    22987837.032
     -2648.860       -2064.099
         0.000 1         0.000 1  20717390.449           0.000           0.000
         0.000           0.000
    878726.034 6    684803.931 6  23943090.863    23943106.332    23943106.003
      1361.421        1060.802
  -1310399.498 6  -1021090.844 6  23261231.295    23261247.543    23261246.224
      -621.959        -484.570
   1986475.732 8   1547901.910 7  21166233.721    21166248.111    21166245.743
      2300.479        1792.577
 92  6 13 15 53 57.0000000  0  5  2 19 28 16 18                      0.000754490
  -3333912.449 7  -2597852.047 6  22986310.788    22986325.658    22986325.328
     -2647.266       -2062.811
         0.000 1         0.000 1  20717782.428           0.000           0.000
         0.000           0.000
    882814.297 6    687989.589 6  23943865.047    23943884.024    23943883.814
      1364.082        1062.940
  -1312261.211 6  -1022541.534 6  23260878.799    23260893.309    23260891.930
      -619.198        -482.458
   1993380.894 8   1553282.558 7  21167547.682    21167562.192    21167559.703
      2302.932        1794.494
 92  6 13 15 54  0.0000000  0  5  2 19 28 16 18                      0.000754980
  -3341851.866 7  -2604038.606 6  22984797.706    22984815.244    22984814.464
     -2645.593       -2061.536
         0.000 1         0.000 1  20718181.182           0.000           0.000
         0.000           0.000
    886910.696 6    691181.566 6  23944655.330    23944664.054    23944663.484
      1366.809        1065.066
  -1314114.820 6  -1023985.898 6  23260528.881    23260540.363    23260539.434
      -616.488        -480.427
   2000293.222 8   1558668.779 7  21168862.511    21168877.471    21168875.223
      2305.312        1796.350
 92  6 13 15 54  3.0000000  0  5  2 19 28 16 18                      0.000755460
  -3349786.427 7  -2610221.367 6  22983292.178    22983304.979    22983304.349
     -2644.062       -2060.310
         0.000 1         0.000 1  20718574.809           0.000           0.000
         0.000           0.000
    891015.303 6    694379.958 6  23945434.611    23945445.013    23945444.294
      1369.526        1067.188
  -1315960.235 6  -1025423.889 6  23260175.785    23260189.126    23260188.467
      -613.760        -478.188
   2007212.744 8   1564060.613 7  21170179.500    21170194.130    21170191.791
      2307.656        1798.142
 92  6 13 15 54  6.0000000  0  5  2 19 28 16 18                      0.000755950
  -3357716.259 7  -2616400.457 6  22981784.102    22981796.064    22981795.254
     -2642.402       -2059.003
         0.000 1         0.000 1  20718974.133           0.000           0.000
         0.000           0.000
    895127.983 6    697584.631 6  23946221.356    23946227.322    23946226.812
      1372.300        1069.372
  -1317797.653 6  -1026855.642 6  23259828.896    23259839.598    23259838.129
      -611.076        -476.068
   2014139.244 8   1569457.898 7  21171500.085    21171512.077    21171510.218
      2310.110        1800.070
 92  6 13 15 54  9.0000000  0  5  2 19 28 16 18                      0.000756440
  -3365641.246 7  -2622575.757 6  22980275.276    22980287.688    22980287.568
     -2640.754       -2057.721
         0.000 1         0.000 1  20719372.707           0.000           0.000
         0.000           0.000
    899248.860 6    700795.703 6  23947000.517    23947011.549    23947011.819
      1375.044        1071.478
  -1319627.035 6  -1028281.135 6  23259475.620    23259491.269    23259490.310
      -608.368        -474.090
   2021072.899 8   1574860.727 7  21172818.363    21172831.614    21172829.425
      2312.479        1801.902
 92  6 13 15 54 12.0000000  0  5  2 19 28 16 18                      0.000756930
  -3373561.322 7  -2628747.245 6  22978767.021    22978780.991    22978780.421
     -2639.312       -2056.609
         0.000 1         0.000 1  20719775.118           0.000           0.000
         0.000           0.000
    903377.894 6    704013.125 6  23947787.112    23947797.665    23947797.065
      1377.610        1073.511
  -1321448.490 6  -1029700.440 6  23259128.910    23259144.679    23259143.600
      -605.918        -472.151
   2028013.661 8   1580269.108 7  21174139.188    21174152.229    21174150.401
      2314.682        1803.679
 92  6 13 15 54 15.0000000  0  5  2 19 28 16 18                      0.000757420
  -3381476.868 7  -2634915.195 6  22977262.182    22977274.684    22977274.054
     -2637.798       -2055.447
         0.000 1         0.000 1  20720175.851           0.000           0.000
         0.000           0.000
    907514.667 6    707236.582 6  23948568.821    23948584.290    23948584.350
      1380.206        1075.480
  -1323262.383 6  -1031113.863 6  23258788.136    23258799.498    23258798.689
      -603.423        -470.216
   2034961.069 8   1585682.671 7  21175462.712    21175474.314    21175472.216
      2316.897        1805.363
 92  6 13 15 54 18.0000000  0  5  2 19 28 16 18                      0.000757910
  -3389387.871 7  -2641079.612 6  22975760.552    22975769.246    22975768.317
     -2636.191       -2054.173
         0.000 1         0.000 1  20720582.040           0.000           0.000
         0.000           0.000
    911659.206 6    710466.076 6  23949360.303    23949373.314    23949372.444
      1382.909        1077.547
  -1325068.690 6  -1032521.378 6  23258445.503    23258455.846    23258454.287
      -600.772        -468.103
   2041915.147 8   1591101.429 7  21176782.818    21176797.508    21176795.589
      2319.198        1807.112
 92  6 13 15 54 21.0000000  0  5  2 19 28 16 18                      0.000758410
  -3397294.092 7  -2647240.291 6  22974253.285    22974264.648    22974263.538
     -2634.564       -2052.925
         0.000 1         0.000 1  20720979.864           0.000           0.000
         0.000           0.000
    915811.600 6    713701.708 6  23950158.680    23950163.507    23950162.607
      1385.450        1079.619
  -1326867.180 6  -1033922.797 6  23258101.911    23258113.243    23258112.494
      -598.180        -466.098
   2048876.138 8   1596525.569 7  21178106.852    21178122.051    21178120.312
      2321.466        1808.966
 92  6 13 15 54 24.0000000  0  5  2 19 28 16 18                      0.000758900
  -3405195.559 7  -2653397.274 6  22972747.668    22972761.098    22972760.379
     -2633.060       -2051.695
         0.000 1         0.000 1  20721385.064           0.000           0.000
         0.000           0.000
    919971.839 6    716943.444 6  23950943.087    23950955.019    23950954.030
      1388.096        1081.623
  -1328657.817 6  -1035318.100 6  23257760.897    23257772.949    23257771.630
      -595.566        -464.075
   2055844.067 8   1601955.122 7  21179436.012    21179448.213    21179446.175
      2323.796        1810.772
 92  6 13 15 54 27.0000000  0  5  2 19 28 16 18                      0.000759400
  -3413092.191 7  -2659550.492 6  22971249.035    22971258.719    22971257.250
     -2631.426       -2050.499
         0.000 1         0.000 1  20721794.430           0.000           0.000
         0.000           0.000
    924139.995 6    720191.360 5  23951734.269    23951748.839    23951747.370
      1390.645        1083.676
  -1330440.538 6  -1036707.225 6  23257422.521    23257433.554    23257432.415
      -592.966        -462.041
   2062819.004 8   1607390.136 7  21180766.281    21180775.844    21180773.626
      2326.073        1812.555
 92  6 13 15 54 30.0000000  0  5  2 19 28 16 18                      0.000759900
  -3420983.958 7  -2665699.912 6  22969747.944    22969756.728    22969755.679
     -2629.848       -2049.244
         0.000 1         0.000 1  20722198.431           0.000           0.000
         0.000           0.000
    928315.995 6    723445.384 6  23952536.274    23952543.799    23952542.150
      1393.227        1085.644
  -1332215.406 6  -1038090.228 6  23257079.049    23257095.928    23257095.058
      -590.367        -460.103
   2069800.898 8   1612830.569 7  21182090.974    21182104.134    21182102.096
      2328.361        1814.355
 92  6 13 15 54 33.0000000  0  5  2 19 28 16 18                      0.000760400
  -3428870.700 7  -2671845.421 6  22968243.916    22968255.967    22968254.648
     -2627.969       -2047.785
         0.000 1         0.000 1  20722601.651           0.000           0.000
         0.000           0.000
    932500.000 6    726705.635 5  23953328.056    23953340.138    23953337.949
      1396.081        1087.790
  -1333982.192 6  -1039466.953 6  23256750.477    23256759.710    23256759.111
      -587.490        -457.701
   2076789.955 8   1618276.583 7  21183419.834    21183434.194    21183432.365
      2330.955        1816.306
 92  6 13 15 54 36.0000000  0  5  2 19 28 16 18                      0.000760900
  -3436752.387 7  -2677986.987 6  22966747.322    22966756.136    22966755.356
     -2626.470       -2046.562
         0.000 1         0.000 1  20723011.917           0.000           0.000
         0.000           0.000
    936692.008 6    729972.129 6  23954125.414    23954138.125    23954136.117
      1398.544        1089.720
  -1335740.891 6  -1040837.367 6  23256410.602    23256425.202    23256423.943
      -584.972        -455.844
   2083786.177 8   1623728.184 7  21184753.640    21184765.482    21184763.533
      2333.154        1818.046
 92  6 13 15 54 39.0000000  0  5  2 19 28 16 18                      0.000761400
  -3444629.348 7  -2684124.883 6  22965247.670    22965257.053    22965256.574
     -2624.734       -2045.234
         0.000 1         0.000 1  20723419.875           0.000           0.000
         0.000           0.000
    940891.659 6    733244.586 6  23954921.903    23954937.012    23954935.034
      1401.272        1091.932
  -1337491.830 6  -1042201.738 6  23256080.530    23256091.863    23256091.053
      -582.172        -453.717
   2090789.158 8   1629185.042 7  21186082.530    21186098.209    21186095.991
      2335.566        1819.903
 92  6 13 15 54 42.0000000  0  5  2 19 28 16 18                      0.000761910
  -3452501.290 7  -2690258.854 6  22963749.697    22963759.230    22963758.001
     -2623.311       -2044.079
         0.000 1         0.000 1  20723834.758           0.000           0.000
         0.000           0.000
    945099.248 6    736523.221 6  23955728.224    23955737.668    23955736.019
      1403.654        1093.752
  -1339234.762 6  -1043559.860 6  23255747.461    23255760.112    23255758.793
      -579.773        -451.771
   2097799.137 8   1634647.361 7  21187414.898    21187432.196    21187430.187
      2337.663        1821.579
 92  6 13 15 54 45.0000000  0  5  2 19 28 16 18                      0.000762410
  -3460368.525 7  -2696389.170 6  22962251.814    22962262.037    22962260.928
     -2621.618       -2042.741
         0.000 1         0.000 1  20724236.749           0.000           0.000
         0.000           0.000
    949314.485 6    739807.821 6  23956530.769    23956539.493    23956537.844
      1406.361        1095.839
  -1340969.960 6  -1044911.967 6  23255418.229    23255430.520    23255429.321
      -577.085        -449.607
   2104815.737 8   1640114.834 7  21188754.880    21188767.501    21188765.373
      2339.972        1823.356
 92  6 13 15 54 48.0000000  0  5  2 19 28 16 18                      0.000762920
  -3468231.103 7  -2702515.838 6  22960752.702    22960765.893    22960764.603
     -2620.034       -2041.593
         0.000 1         0.000 1  20724649.384           0.000           0.000
         0.000           0.000
    953537.353 6    743098.361 6  23957326.118    23957342.877    23957341.677
      1408.930        1097.935
  -1342697.488 6  -1046258.084 6  23255084.080    23255101.678    23255100.419
      -574.488        -447.629
   2111838.895 8   1645587.425 7  21190092.854    21190103.796    21190101.728
      2342.202        1825.071
 92  6 13 15 54 51.0000000  0  5  2 19 28 16 18                      0.000763430
  -3476089.132 7  -2708638.971 6  22959255.928    22959270.588    22959269.299
     -2618.515       -2040.410
         0.000 1         0.000 1  20725059.830           0.000           0.000
         0.000           0.000
    957767.681 6    746394.715 6  23958133.819    23958147.550    23958147.460
      1411.477        1099.861
  -1344417.502 6  -1047598.358 6  23254761.114    23254774.545    23254772.896
      -572.013        -445.717
   2118868.435 8   1651064.981 7  21191429.479    21191441.560    21191439.102
      2344.332        1826.727
 92  6 13 15 54 54.0000000  0  5  2 19 28 16 18                      0.000763940
  -3483942.126 7  -2714758.186 6  22957765.899    22957776.452    22957775.193
     -2616.871       -2039.121
         0.000 1         0.000 1  20725479.359           0.000           0.000
         0.000           0.000
    962005.923 6    749697.230 6  23958943.888    23958954.111    23958953.632
      1413.978        1101.828
  -1346129.501 6  -1048932.376 6  23254439.556    23254448.370    23254447.261
      -569.385        -443.703
   2125904.828 8   1656547.881 7  21192762.686    21192780.463    21192778.425
      2346.550        1828.448
 92  6 13 15 54 57.0000000  0  5  2 19 28 16 18                      0.000764450
  -3491790.256 7  -2720873.604 6  22956272.183    22956282.586    22956281.897
     -2615.330       -2037.883
         0.000 1         0.000 1  20725900.987           0.000           0.000
         0.000           0.000
    966251.818 6    753005.718 6  23959750.270    23959761.602    23959761.212
      1416.492        1103.786
  -1347833.746 6  -1050260.362 6  23254114.132    23254123.935    23254123.066
      -566.889        -441.773
   2132947.794 8   1662035.903 7  21194103.837    21194121.045    21194118.887
      2348.679        1830.158
 92  6 13 15 55  0.0000000  0  5  2 19 28 16 18                      0.000764960
  -3499633.496 7  -2726985.223 6  22954779.996    22954790.219    22954789.290
     -2613.578       -2036.560
         0.000 1         0.000 1  20726314.131           0.000           0.000
         0.000           0.000
    970505.288 6    756320.100 6  23960559.560    23960571.342    23960571.012
      1419.110        1105.789
  -1349530.255 6  -1051582.319 6  23253784.960    23253801.118    23253799.620
      -564.185        -439.647
   2139997.269 8   1667528.992 7  21195448.167    21195462.437    21195460.638
      2350.922        1831.916
 92  6 13 15 55  3.0000000  0  5  2 19 28 16 18                      0.000765470
  -3507471.803 7  -2733092.984 6  22953284.182    22953298.452    22953297.463
     -2611.831       -2035.157
         0.000 1         0.000 1  20726720.350           0.000           0.000
         0.000           0.000
    974766.296 6    759640.361 6  23961363.843    23961381.801    23961381.561
      1421.712        1107.811
  -1351218.897 6  -1052898.137 6  23253464.751    23253479.651    23253478.422
      -561.502        -437.542
   2147053.278 8   1673027.177 7  21196793.755    21196805.207    21196803.049
      2353.200        1833.647
 92  6 13 15 55  6.0000000  0  5  2 19 28 16 18                      0.000765990
  -3515305.021 7  -2739196.795 6  22951789.597    22951807.974    22951806.835
     -2610.166       -2033.866
         0.000 1         0.000 1  20727140.329           0.000           0.000
         0.000           0.000
    979034.949 6    762966.561 6  23962184.675    23962194.268    23962194.058
      1424.214        1109.716
  -1352899.503 6  -1054207.700 6  23253146.102    23253159.353    23253158.513
      -558.836        -435.447
   2154115.913 8   1678530.520 7  21198135.986    21198149.027    21198146.718
      2355.360        1835.306
 92  6 13 15 55  9.0000000  0  5  2 19 28 16 18                      0.000766500
  -3523133.405 7  -2745296.826 6  22950303.106    22950318.485    22950317.076
     -2608.593       -2032.706
         0.000 1         0.000 1  20727555.662           0.000           0.000
         0.000           0.000
    983311.025 6    766298.571 6  23962993.575    23963007.605    23963007.395
      1426.635        1111.669
  -1354572.344 6  -1055511.210 6  23252834.528    23252841.633    23252840.464
      -556.321        -433.464
   2161184.873 8   1684038.808 7  21199478.576    21199494.345    21199491.797
      2357.412        1836.965
 92  6 13 15 55 12.0000000  0  5  2 19 28 16 18                      0.000767020
  -3530956.683 7  -2751392.883 6  22948820.692    22948829.596    22948829.026
     -2607.018       -2031.400
         0.000 1         0.000 1  20727980.048           0.000           0.000
         0.000           0.000
    987594.777 6    769636.542 6  23963810.599    23963822.621    23963822.681
      1429.068        1113.550
  -1356237.189 6  -1056808.494 6  23252518.007    23252524.962    23252523.883
      -553.669        -431.433
   2168260.416 8   1689552.207 7  21200825.244    21200840.713    21200838.225
      2359.527        1838.577
 92  6 13 15 55 15.0000000  0  5  2 19 28 16 18                      0.000767540
  -3538775.038 7  -2757485.110 6  22947330.963    22947341.636    22947340.467
     -2605.268       -2030.045
         0.000 1         0.000 1  20728398.049           0.000           0.000
         0.000           0.000
    991885.980 6    772980.330 6  23964627.653    23964638.986    23964639.495
      1431.698        1115.601
  -1357894.262 6  -1058099.718 6  23252196.809    23252209.670    23252208.801
      -550.965        -429.307
   2175342.283 8   1695070.542 7  21202174.730    21202188.490    21202186.062
      2361.748        1840.309
 92  6 13 15 55 18.0000000  0  5  2 19 28 16 18                      0.000768060
  -3546588.229 7  -2763573.308 6  22945843.693    22945854.545    22945853.616
     -2603.591       -2028.723
         0.000 1         0.000 1  20728819.557           0.000           0.000
         0.000           0.000
    996184.917 6    776330.128 6  23965443.119    23965457.479    23965457.809
      1434.257        1117.517
  -1359543.363 6  -1059384.728 6  23251880.588    23251895.248    23251894.498
      -548.441        -427.339
   2182430.709 8   1700593.992 7  21203525.025    21203537.197    21203535.128
      2363.875        1841.979
 92  6 13 15 55 21.0000000  0  5  2 19 28 16 18                      0.000768580
  -3554396.454 7  -2769657.635 6  22944355.403    22944369.014    22944367.695
     -2601.884       -2027.391
         0.000 1         0.000 1  20729238.397           0.000           0.000
         0.000           0.000
   1000491.387 6    779685.811 6  23966264.940    23966276.872    23966277.052
      1436.836        1119.645
  -1361184.760 6  -1060663.735 6  23251570.693    23251582.984    23251581.875
      -545.798        -425.338
   2189525.478 8   1706122.383 7  21204875.470    21204887.552    21204884.944
      2366.017        1843.702
 92  6 13 15 55 24.0000000  0  5  2 19 28 16 18                      0.000769110
  -3562199.043 7  -2775737.572 6  22942867.054    22942884.292    22942883.392
     -2600.047       -2026.020
         0.000 1         0.000 1  20729660.744           0.000           0.000
         0.000           0.000
   1004805.958 6    783047.818 6  23967084.333    23967098.213    23967097.883
      1439.505        1121.625
  -1362817.851 6  -1061936.275 6  23251261.786    23251272.279    23251271.680
      -543.093        -423.113
   2196627.158 8   1711656.154 7  21206226.485    21206238.686    21206236.198
      2368.304        1845.419
 92  6 13 15 55 27.0000000  0  5  2 19 28 16 18                      0.000769630
  -3569996.652 7  -2781813.622 6  22941385.749    22941400.589    22941399.360
     -2598.386       -2024.703
         0.000 1         0.000 1  20730085.191           0.000           0.000
         0.000           0.000
   1009128.012 6    786415.640 6  23967909.182    23967921.113    23967920.304
      1441.955        1123.583
  -1364443.367 6  -1063202.915 6  23250954.799    23250963.163    23250962.054
      -540.584        -421.179
   2203735.112 8   1717194.816 7  21207578.369    21207591.290    21207589.012
      2370.356        1847.029
 92  6 13 15 55 30.0000000  0  5  2 19 28 16 18                      0.000770160
  -3577789.345 7  -2787885.860 6  22939904.984    22939917.516    22939916.256
     -2596.828       -2023.452
         0.000 1         0.000 1  20730511.975           0.000           0.000
         0.000           0.000
   1013457.551 6    789789.294 6  23968736.429    23968745.483    23968744.164
      1444.375        1125.469
  -1366061.286 6  -1064463.626 6  23250645.593    23250655.246    23250654.167
      -538.104        -419.330
   2210849.327 8   1722738.350 7  21208932.142    21208945.033    21208942.784
      2372.406        1848.634
 92  6 13 15 55 33.0000000  0  5  2 19 28 16 18                      0.000770690
  -3585577.019 7  -2793954.166 6  22938425.688    22938435.402    22938434.142
     -2595.106       -2022.153
         0.000 1         0.000 1  20730933.064           0.000           0.000
         0.000           0.000
   1017794.755 6    793168.933 5  23969554.892    23969570.692    23969569.223
      1446.929        1127.576
  -1367671.443 6  -1065718.285 6  23250336.627    23250349.038    23250347.270
      -535.501        -417.267
   2217969.988 8   1728286.918 7  21210286.454    21210300.125    21210297.816
      2374.580        1850.283
 92  6 13 15 55 36.0000000  0  5  2 19 28 16 18                      0.000771220
  -3593359.866 7  -2800018.723 6  22936935.720    22936954.637    22936953.078
     -2593.482       -2020.940
         0.000 1         0.000 1  20731362.007           0.000           0.000
         0.000           0.000
   1022139.476 6    796554.424 5  23970383.279    23970397.549    23970396.170
      1449.482        1129.501
  -1369274.015 6  -1066967.055 6  23250032.038    23250044.059    23250042.411
      -532.904        -415.237
   2225096.869 8   1733840.323 7  21211642.805    21211656.326    21211654.077
      2376.657        1851.970
 92  6 13 15 55 39.0000000  0  5  2 19 28 16 18                      0.000771750
  -3601137.783 7  -2806079.430 6  22935460.411    22935474.591    22935473.452
     -2591.817       -2019.598
         0.000 1         0.000 1  20731784.774           0.000           0.000
         0.000           0.000
   1026491.803 6    799945.855 5  23971217.811    23971226.026    23971223.957
      1452.026        1131.473
  -1370868.936 6  -1068209.833 6  23249732.395    23249740.939    23249739.320
      -530.408        -413.291
   2232230.046 8   1739398.644 7  21213000.955    21213013.726    21213011.718
      2378.739        1853.587
 92  6 13 15 55 42.0000000  0  5  2 19 28 16 18                      0.000772290
  -3608910.397 7  -2812136.026 6  22933986.721    22933995.595    22933994.426
     -2590.021       -2018.167
         0.000 1         0.000 1  20732217.165           0.000           0.000
         0.000           0.000
   1030852.014 6    803343.422 5  23972044.039    23972055.791    23972053.543
      1454.663        1133.610
  -1372455.871 6  -1069446.413 6  23249426.487    23249438.838    23249437.429
      -527.677        -411.168
   2239369.720 8   1744962.020 7  21214357.546    21214372.326    21214370.197
      2380.944        1855.331
 92  6 13 15 55 45.0000000  0  5  2 19 28 16 18                      0.000772820
  -3616678.153 7  -2818188.802 6  22932504.817    22932517.498    22932516.059
     -2588.472       -2016.946
         0.000 1         0.000 1  20732643.530           0.000           0.000
         0.000           0.000
   1035219.609 6    806746.738 5  23972876.833    23972886.726    23972885.017
      1457.022        1135.411
  -1374035.305 6  -1070677.139 6  23249126.874    23249138.356    23249136.947
      -525.256        -409.257
   2246515.447 8   1750530.116 7  21215719.623    21215732.274    21215729.906
      2382.894        1856.804
 92  6 13 15 55 48.0000000  0  5  2 19 28 16 18                      0.000773360
  -3624440.971 7  -2824237.750 6  22931024.892    22931039.911    22931038.892
     -2586.745       -2015.670
         0.000 1         0.000 1  20733077.269           0.000           0.000
         0.000           0.000
   1039594.663 6    810155.867 5  23973708.757    23973719.279    23973717.751
      1459.692        1137.457
  -1375607.167 6  -1071901.971 6  23248829.270    23248839.194    23248837.605
      -522.634        -407.235
   2253667.273 8   1756102.962 7  21217081.370    21217093.062    21217090.694
      2385.014        1858.527
 92  6 13 15 55 51.0000000  0  5  2 19 28 16 18                      0.000773900
  -3632198.528 7  -2830282.602 6  22929549.583    22929564.063    22929562.894
     -2584.964       -2014.239
         0.000 1         0.000 1  20733504.683           0.000           0.000
         0.000           0.000
   1043977.571 6    813571.127 5  23974539.452    23974553.542    23974550.994
      1462.311        1139.468
  -1377171.126 6  -1073120.638 6  23248533.285    23248541.050    23248539.701
      -519.968        -405.195
   2260825.550 8   1761680.853 7  21218442.548    21218455.499    21218453.101
      2387.206        1860.193
 92  6 13 15 55 54.0000000  0  5  2 19 28 16 18                      0.000774440
  -3639950.965 7  -2836323.451 6  22928077.272    22928088.694    22928086.896
     -2583.428       -2013.051
         0.000 1         0.000 1  20733937.704           0.000           0.000
         0.000           0.000
   1048368.183 6    816992.377 5  23975378.421    23975389.213    23975387.205
      1464.751        1141.291
  -1378727.309 6  -1074333.253 6  23248233.073    23248245.065    23248243.686
      -517.545        -403.268
   2267990.133 8   1767263.621 7  21219802.676    21219818.835    21219816.557
      2389.167        1861.680
 92  6 13 15 55 57.0000000  0  5  2 19 28 16 18                      0.000774980
  -3647698.637 7  -2842360.604 6  22926604.962    22926614.345    22926612.756
     -2581.776       -2011.796
         0.000 1         0.000 1  20734370.274           0.000           0.000
         0.000           0.000
   1052766.171 6    820419.382 5  23976218.170    23976226.024    23976224.525
      1467.236        1143.274
  -1380276.062 6  -1075540.075 5  23247942.514    23247950.249    23247949.050
      -515.008        -401.278
   2275160.703 8   1772851.072 7  21221169.370    21221183.251    21221180.942
      2391.153        1863.284
 92  6 13 15 56  0.0000000  0  5  2 19 28 16 18                      0.000775520
  -3655441.565 7  -2848394.052 6  22925130.343    22925140.805    22925139.726
     -2580.240       -2010.553
         0.000 1         0.000 1  20734809.140           0.000           0.000
         0.000           0.000
   1057171.650 6    823852.203 5  23977055.460    23977064.124    23977062.505
      1469.718        1145.244
  -1381817.231 6  -1076740.987 6  23247648.088    23247656.692    23247655.673
      -512.480        -399.393
   2282337.320 8   1778443.235 7  21222536.184    21222548.895    21222546.647
      2393.200        1864.798
 92  6 13 15 56  3.0000000  0  5  2 19 28 16 18                      0.000776070
  -3663179.798 7  -2854423.841 6  22923656.533    22923668.105    22923666.816
     -2578.582       -2009.270
         0.000 1         0.000 1  20735234.306           0.000           0.000
         0.000           0.000
   1061584.390 6    827290.708 5  23977892.990    23977903.663    23977902.374
      1472.100        1147.107
  -1383350.895 6  -1077936.039 6  23247355.101    23247365.384    23247363.885
      -509.880        -397.380
   2289519.893 8   1784040.047 7  21223903.777    21223915.949    21223913.400
      2395.211        1866.438
 92  6 13 15 56  6.0000000  0  5  2 19 28 16 18                      0.000776620
  -3670912.923 7  -2860449.647 6  22922186.261    22922196.903    22922195.224
     -2576.909       -2007.981
         0.000 1         0.000 1  20735675.840           0.000           0.000
         0.000           0.000
   1066004.710 6    830735.116 5  23978730.520    23978744.820    23978743.351
      1474.649        1149.034
  -1384876.695 6  -1079124.971 6  23247062.414    23247074.885    23247073.596
      -507.338        -395.345
   2296708.766 8   1789641.766 7  21225269.841    21225283.992    21225281.593
      2397.269        1867.985
 92  6 13 15 56  9.0000000  0  5  2 19 28 16 18                      0.000777160
  -3678641.206 7  -2866471.679 6  22920714.460    22920725.942    22920724.593
     -2575.344       -2006.765
         0.000 1         0.000 1  20736105.263           0.000           0.000
         0.000           0.000
   1070432.357 6    834185.212 6  23979573.147    23979587.267    23979586.578
      1477.037        1150.967
  -1386394.874 6  -1080307.975 6  23246773.294    23246785.795    23246784.536
      -504.815        -393.355
   2303903.695 8   1795248.200 7  21226638.034    21226652.904    21226650.386
      2399.274        1869.596
 92  6 13 15 56 12.0000000  0  5  2 19 28 16 18                      0.000777710
  -3686364.606 7  -2872489.902 6  22919248.654    22919256.269    22919255.310
     -2573.771       -2005.573
         0.000 1         0.000 1  20736544.849           0.000           0.000
         0.000           0.000
   1074867.482 6    837641.147 6  23980421.859    23980431.483    23980431.033
      1479.544        1152.914
  -1387905.340 6  -1081484.955 5  23246482.465    23246498.324    23246497.035
      -502.271        -391.407
   2311104.743 8   1800859.401 7  21228011.773    21228023.255    21228021.007
      2401.253        1871.106
 92  6 13 15 56 15.0000000  0  5  2 19 28 16 18                      0.000778260
  -3694083.110 7  -2878504.323 6  22917776.703    22917787.556    22917786.477
     -2572.027       -2004.168
         0.000 1         0.000 1  20736978.019           0.000           0.000
         0.000           0.000
   1079310.092 6    841102.904 6  23981268.353    23981277.017    23981275.878
      1482.137        1154.856
  -1389408.062 6  -1082655.907 6  23246199.281    23246212.232    23246211.093
      -499.609        -389.291
   2318311.960 8   1806475.410 7  21229383.624    21229394.686    21229392.318
      2403.429        1872.813
 92  6 13 15 56 18.0000000  0  5  2 19 28 16 18                      0.000778810
  -3701797.073 7  -2884515.200 6  22916309.339    22916319.562    22916318.693
     -2570.510       -2002.980
         0.000 1         0.000 1  20737420.602           0.000           0.000
         0.000           0.000
   1083759.797 6    844570.202 6  23982111.700    23982123.481    23982122.372
      1484.481        1156.751
  -1390903.322 6  -1083821.045 6  23245916.817    23245927.489    23245926.920
      -497.168        -387.241
   2325525.095 8   1812096.032 7  21230756.643    21230767.346    21230765.007
      2405.400        1874.321
 92  6 13 15 56 21.0000000  0  5  2 19 28 16 18                      0.000779370
  -3709506.197 7  -2890522.308 6  22914842.934    22914852.738    22914851.299
     -2568.807       -2001.628
         0.000 1         0.000 1  20737858.659           0.000           0.000
         0.000           0.000
   1088216.998 6    848043.338 6  23982959.153    23982971.594    23982970.065
      1487.125        1158.859
  -1392390.781 6  -1084980.098 5  23245635.252    23245644.725    23245643.346
      -494.375        -385.206
   2332744.454 8   1817721.498 7  21232129.033    21232140.815    21232139.076
      2407.635        1876.082
 92  6 13 15 56 24.0000000  0  5  2 19 28 16 18                      0.000779920
  -3717210.573 7  -2896525.706 6  22913379.587    22913386.333    22913385.253
     -2567.416       -2000.636
         0.000 1         0.000 1  20738301.063           0.000           0.000
         0.000           0.000
   1092681.644 6    851522.286 6  23983807.685    23983821.356    23983819.917
      1489.374        1160.510
  -1393870.482 6  -1086133.119 5  23245351.948    23245362.800    23245361.841
      -492.053        -383.373
   2339970.015 8   1823351.812 7  21233502.442    21233515.963    21233513.834
      2409.480        1877.543
 92  6 13 15 56 27.0000000  0  5  2 19 28 16 18                      0.000780480
  -3724910.031 7  -2902525.286 6  22911909.315    22911921.517    22911920.348
     -2565.723       -1999.239
         0.000 1         0.000 1  20738744.756           0.000           0.000
         0.000           0.000
   1097153.928 6    855007.167 6  23984663.263    23984672.467    23984670.938
      1491.990        1162.562
  -1395342.177 6  -1087279.880 5  23245072.571    23245082.554    23245081.205
      -489.264        -381.225
   2347202.087 8   1828987.180 7  21234878.699    21234892.370    21234889.972
      2411.759        1879.270
 92  6 13 15 56 30.0000000  0  5  2 19 28 16 18                      0.000781030
  -3732604.476 7  -2908520.953 6  22910441.112    22910457.211    22910456.251
     -2564.027       -1997.917
         0.000 1         0.000 1  20739178.615           0.000           0.000
         0.000           0.000
   1101633.953 6    858498.091 6  23985513.954    23985524.657    23985523.697
      1494.615        1164.569
  -1396805.736 6  -1088420.317 5  23244791.786    23244804.617    23244802.668
      -486.587        -379.158
   2354440.781 8   1834627.723 7  21236257.295    21236269.736    21236267.488
      2413.975        1881.010
 92  6 13 15 56 33.0000000  0  5  2 19 28 16 18                      0.000781590
  -3740294.052 7  -2914512.831 6  22908978.424    22908993.924    22908992.814
     -2562.505       -1996.745
         0.000 1         0.000 1  20739620.330           0.000           0.000
         0.000           0.000
   1106121.620 6    861994.961 6  23986362.187    23986378.556    23986377.836
      1497.022        1166.550
  -1398261.234 6  -1089554.475 5  23244513.518    23244527.249    23244526.109
      -483.961        -377.126
   2361685.925 8   1840273.282 7  21237637.689    21237648.482    21237646.144
      2416.006        1882.615
 92  6 13 15 56 36.0000000  0  5  2 19 28 16 18                      0.000782150
  -3747978.897 7  -2920501.016 6  22907521.823    22907531.386    22907530.397
     -2560.893       -1995.495
         0.000 1         0.000 1  20740066.960           0.000           0.000
         0.000           0.000
   1110616.748 6    865497.641 6  23987221.722    23987233.983    23987233.714
      1499.516        1168.496
  -1399708.794 6  -1090682.447 5  23244240.257    23244252.099    23244250.360
      -481.200        -375.073
   2368937.364 8   1845923.755 7  21239016.885    21239028.367    21239026.208
      2418.115        1884.245
 92  6 13 15 56 39.0000000  0  5  2 19 28 16 18                      0.000782710
  -3755659.152 7  -2926485.623 6  22906062.913    22906069.718    22906068.369
     -2559.243       -1994.222
         0.000 1         0.000 1  20740508.225           0.000           0.000
         0.000           0.000
   1115119.234 6    869006.069 6  23988082.876    23988091.240    23988090.550
      1502.105        1170.547
  -1401148.523 6  -1091804.309 6  23243966.337    23243978.119    23243977.010
      -478.546        -372.835
   2376195.012 8   1851579.055 7  21240398.838    21240409.421    21240407.142
      2420.319        1885.925
